GFSNGP_250_rhum_000.txt.gz
RH
100 98 100 100 100 100 100 100 100 100 100 100 100 100 100 100 100 99 95 99 100 100 100 88 85 93 95 93 94 87 79 74 68 60 55 47 42 36 30 29 42 43 37 36
100 100 97 100 100 100 100 100 100 100 100 100 100 100 100 100 100 100 100 100 100 100 100 100 98 93 94 97 89 79 67 56 50 36 31 28 25 24 28 26 28 32 24 22
91 99 100 100 100 100 100 100 100 100 100 100 100 100 100 100 100 99 98 99 99 94 89 78 68 66 61 52 44 38 36 34 33 28 28 28 31 29 26 20 19 23 25 29
100 96 100 100 100 96 90 98 93 87 98 95 100 100 100 96 99 95 90 93 87 79 70 63 55 49 41 38 34 30 25 26 28 29 29 30 28 24 24 25 25 24 24 28
80 80 74 84 98 98 96 100 90 86 86 81 84 88 86 73 67 67 64 57 51 48 48 39 32 29 26 25 26 24 26 30 28 29 27 26 23 20 18 17 17 16 14 13
66 80 96 94 89 89 86 80 86 95 96 92 81 73 68 63 58 51 47 44 37 32 28 28 28 30 29 32 35 36 33 30 23 20 16 13 12 11 11 11 9 9 9 9
76 74 95 91 91 99 99 92 91 91 81 70 68 64 54 40 37 37 35 43 52 56 60 56 49 43 38 30 27 26 22 21 18 16 12 10 10 9 8 9 9 9 11 11
55 54 69 80 80 66 56 53 51 48 46 42 37 31 32 38 47 57 62 55 44 36 30 28 28 25 23 23 28 20 16 12 11 10 12 13 11 10 10 9 10 10 9 8
48 52 46 52 50 43 41 42 42 50 48 40 36 38 47 53 44 40 37 32 28 25 26 30 29 23 21 21 18 14 14 13 12 11 10 9 10 9 10 9 10 10 10 9
65 79 67 48 44 39 36 40 39 37 38 38 38 36 34 33 30 27 26 26 24 26 25 23 19 18 14 12 12 11 9 9 9 10 10 6 5 5 6 6 6 6 6 6
52 49 41 41 45 46 42 38 34 34 35 36 33 32 33 35 34 33 30 22 20 19 16 12 10 9 7 7 6 7 7 7 7 6 5 5 5 5 5 5 5 6 7 8
54 60 57 54 46 42 38 33 30 30 33 34 34 33 37 44 42 38 18 17 19 16 10 6 6 6 6 6 6 6 6 6 5 5 5 5 6 7 9 8 8 8 8 8
55 44 41 41 40 37 37 39 34 32 35 39 44 55 67 74 66 33 22 20 15 11 8 7 7 7 6 5 6 6 5 5 6 6 6 7 8 8 10 10 7 6 6 6
45 48 54 46 39 38 34 37 40 48 53 62 72 73 77 69 48 28 22 16 13 9 7 7 6 5 4 4 5 5 5 6 6 7 7 7 6 6 5 6 7 5 4 4
55 51 46 47 46 52 59 54 56 54 66 84 88 75 69 50 26 18 17 14 10 8 7 6 5 5 5 5 5 5 6 6 6 5 5 5 5 5 5 5 5 5 4 4
56 55 47 52 55 52 51 55 61 62 68 84 71 60 46 26 16 16 13 10 9 7 6 6 5 5 5 5 6 6 6 5 5 5 5 4 4 4 4 4 4 4 4 4
58 59 60 53 47 49 57 58 70 79 81 52 53 36 20 15 15 12 9 8 7 6 5 5 5 5 6 5 5 5 5 5 4 3 3 3 4 4 4 4 4 4 4 4
80 53 60 60 55 55 62 69 70 81 63 46 26 17 14 15 13 9 9 7 6 5 5 5 5 5 5 4 4 4 3 3 3 3 4 4 4 3 4 4 4 5 5 5
68 68 65 60 60 68 67 75 77 49 40 23 17 15 14 10 9 8 6 6 5 5 6 6 5 5 4 4 3 3 3 3 3 4 4 4 5 5 5 5 5 4 4 3
76 65 60 62 71 70 87 80 33 31 23 16 14 11 9 8 7 6 6 5 5 5 5 5 5 4 4 3 3 3 4 4 4 5 5 5 5 4 4 3 3 2 2 2
54 54 58 65 72 85 83 40 26 18 14 12 10 8 7 6 6 5 4 5 6 5 4 4 4 3 3 3 4 4 4 4 4 4 4 3 3 2 2 2 2 3 3 2
58 57 67 71 80 78 32 22 17 13 11 9 8 6 5 5 5 5 5 4 5 5 5 4 3 3 4 4 4 4 3 3 3 2 2 2 2 2 2 2 3 3 3 3
64 73 75 82 76 25 22 16 14 11 9 7 6 6 6 5 5 5 7 6 5 4 3 3 4 4 5 4 3 2 2 2 2 2 3 3 4 3 4 4 4 4 4 4
70 70 62 61 26 20 15 13 11 9 7 7 7 6 5 5 6 6 5 4 4 3 3 3 4 4 3 2 2 2 2 2 2 3 4 4 4 3 3 3 4 4 4 4
67 56 39 22 16 14 12 10 8 7 7 7 6 5 5 5 6 6 5 4 4 4 4 4 4 3 2 2 2 3 4 4 4 4 3 3 3 3 3 3 3 4 5 5
36 22 18 15 14 12 9 8 7 7 7 7 6 6 6 6 6 5 4 4 4 4 5 4 2 2 2 2 3 4 4 3 3 2 3 2 2 2 2 2 3 4 5 5
19 16 14 13 10 8 7 6 7 7 6 6 6 6 7 6 6 5 4 4 5 5 4 2 2 2 3 3 3 3 2 2 2 2 2 2 2 2 2 2 3 3 4 6

GFSNGP_250_rhum_003.txt.gz
RH
100 100 100 100 100 100 100 100 100 100 100 100 97 88 89 88 84 78 64 63 68 77 84 97 100 100 100 100 95 99 100 95 84 70 61 54 50 46 42 36 32 30 29 32
100 100 98 94 94 95 95 90 91 84 84 85 100 100 97 85 79 80 88 86 93 99 92 84 91 91 86 83 77 74 68 57 49 48 46 40 41 43 41 37 31 32 26 23
100 100 100 100 96 87 76 73 73 83 98 100 94 90 92 97 88 79 81 89 88 80 80 82 78 73 67 61 57 53 53 58 52 42 35 34 32 31 27 26 24 22 20 19
100 100 100 96 98 99 96 90 88 95 92 97 100 96 87 86 86 95 88 80 84 85 73 64 59 61 60 56 53 54 55 47 42 39 35 34 30 23 20 17 16 13 12 12
97 100 100 100 100 99 100 100 97 99 100 93 78 66 67 74 78 80 76 68 55 51 54 56 58 56 54 50 50 47 41 34 31 28 24 21 20 17 16 13 10 11 10 10
76 84 91 99 99 98 100 98 85 68 55 52 56 63 72 85 76 61 59 58 62 62 54 49 43 40 37 36 33 32 26 24 23 19 16 15 14 13 12 11 10 9 10 10
74 72 71 72 66 61 55 58 64 75 78 60 52 72 78 69 60 58 56 51 40 37 37 35 40 42 44 38 34 29 27 25 19 16 13 12 12 10 9 9 8 7 6 8
93 96 82 75 71 80 82 68 52 43 49 59 64 62 60 53 44 39 35 32 30 33 38 44 53 52 40 32 29 21 17 15 13 10 8 8 7 6 5 5 5 5 5 5
100 92 84 77 66 58 62 68 66 59 59 50 44 34 30 33 30 28 28 31 35 42 52 58 55 39 33 21 14 10 9 7 7 7 6 6 5 4 4 4 4 4 5 5
88 78 72 69 64 54 51 52 46 37 27 23 28 29 28 27 27 30 34 44 57 65 61 57 48 27 13 9 6 5 6 6 6 6 6 5 4 4 4 4 4 4 5 6
70 63 57 50 43 35 29 25 27 30 31 35 35 33 31 30 36 44 51 67 83 83 79 58 35 13 6 5 6 6 6 8 7 6 5 5 5 4 4 4 4 5 5 6
60 55 54 58 54 41 44 45 44 44 40 36 31 33 42 46 50 62 88 86 91 86 62 23 15 8 7 7 7 8 8 6 5 5 5 5 5 6 6 6 5 5 4 4
77 73 71 72 62 54 52 54 43 31 27 30 41 52 58 61 69 79 86 99 89 62 20 13 11 9 8 9 8 6 5 5 5 5 5 5 5 6 6 6 6 4 4 3
77 74 74 75 66 50 38 30 30 32 38 48 64 78 65 63 77 80 97 91 74 23 14 12 10 9 9 8 7 6 5 5 5 5 5 5 5 4 4 4 5 4 2 2
65 62 57 48 41 36 34 38 46 48 55 63 64 72 66 73 78 87 91 65 35 14 11 9 9 9 7 6 5 5 4 4 4 4 4 4 4 4 3 3 3 3 3 3
46 39 37 35 36 50 68 67 57 61 59 70 79 60 66 82 91 86 64 25 15 12 10 9 8 7 6 5 4 5 5 4 4 4 4 4 3 3 3 3 3 3 3 3
60 67 67 74 71 71 68 65 64 64 66 80 70 75 96 91 79 67 25 14 12 10 10 8 7 6 5 4 4 5 5 4 4 3 3 3 3 3 3 4 4 4 4 4
79 85 80 73 65 63 62 61 67 79 93 72 70 80 79 78 52 25 14 12 11 11 8 6 5 5 4 4 4 4 4 3 3 3 4 4 4 4 3 3 3 3 4 4
85 74 74 69 66 66 71 77 75 73 69 69 71 84 72 47 21 13 12 12 10 8 7 6 5 4 4 4 4 4 3 3 4 4 4 4 3 3 3 3 2 2 3 2
80 80 73 74 75 77 74 70 68 77 81 83 88 58 35 18 12 11 11 11 7 6 6 5 4 5 5 4 4 3 3 4 4 4 3 2 2 2 2 2 2 2 2 2
85 88 77 73 75 73 76 78 76 74 83 84 66 29 15 13 11 11 10 8 6 5 5 4 4 5 5 4 4 4 4 4 4 3 2 2 2 2 2 2 2 2 3 3
84 78 74 72 77 82 80 71 70 64 63 51 29 18 13 11 11 9 7 5 5 5 5 5 5 4 4 4 4 4 4 4 2 2 2 2 3 3 3 3 3 4 4 4
70 77 88 88 74 68 60 63 66 59 54 24 16 13 11 10 8 6 6 6 5 5 5 5 4 4 4 4 4 4 4 2 2 2 3 3 4 4 4 3 3 3 4 4
88 84 78 63 52 57 61 60 50 24 16 15 13 10 10 8 7 6 6 6 5 6 5 4 4 4 4 5 4 3 2 2 2 3 4 3 3 3 2 2 3 3 4 4
70 60 56 55 59 63 60 40 17 14 13 12 10 9 7 6 6 6 6 6 6 6 5 4 3 4 4 4 3 2 2 3 4 4 3 2 2 2 2 2 3 3 3 4
56 57 60 67 57 41 22 13 13 12 11 10 9 7 6 6 6 6 6 6 6 5 4 4 4 5 4 3 2 2 3 4 4 3 2 2 2 2 2 2 3 2 3 4
59 53 46 38 22 14 13 12 12 10 9 9 8 6 6 6 6 6 6 6 6 5 4 4 4 4 3 2 2 3 4 3 2 2 2 2 2 2 2 2 2 2 3 4

GFSNGP_250_rhum_006.txt.gz
RH
66 43 43 49 92 100 100 100 100 100 100 100 100 100 100 100 100 100 91 77 65 59 53 57 69 74 67 62 63 78 97 100 100 89 70 56 52 48 47 43 39 34 29 27
100 97 100 100 100 100 100 100 100 100 100 100 100 100 93 83 72 61 60 58 55 55 60 58 50 44 54 80 88 80 65 53 52 56 49 49 44 44 38 34 32 26 22 18
100 100 100 100 100 100 100 100 100 100 99 92 83 73 63 59 57 56 50 48 55 66 54 44 62 68 65 64 55 52 49 49 48 50 46 44 39 37 34 31 26 21 18 14
96 89 94 94 95 96 94 96 97 93 90 84 83 81 74 66 58 59 72 79 59 48 55 67 77 75 66 53 46 43 43 42 43 43 39 34 32 31 27 23 19 15 14 13
100 100 100 100 100 100 96 94 100 100 98 91 89 83 71 62 69 75 60 51 46 47 50 53 56 48 42 39 37 40 43 44 45 45 42 33 33 28 21 15 11 10 9 8
100 100 100 100 100 100 100 100 99 93 89 79 70 73 79 78 68 48 49 46 42 47 47 41 35 37 36 42 53 56 56 57 44 37 32 20 18 14 12 9 6 6 7 7
99 100 100 100 100 96 89 81 82 76 66 60 64 63 54 45 58 59 50 53 42 37 33 35 41 51 62 62 64 66 61 50 38 23 14 11 8 6 6 6 6 6 5 5
76 74 72 68 62 62 66 68 69 67 61 58 67 74 78 68 61 48 40 38 35 32 33 42 53 56 54 63 76 73 62 36 16 10 8 7 6 7 7 6 4 3 4 4
66 64 76 79 80 80 75 73 75 90 99 93 77 68 55 42 36 36 32 30 29 34 43 60 73 74 78 84 68 59 32 13 8 7 8 8 7 6 4 4 3 3 3 3
90 83 87 94 97 100 99 90 92 91 73 60 53 40 29 27 26 21 26 34 41 48 64 74 81 72 71 73 60 26 12 8 8 8 8 6 5 4 4 4 3 3 3 3
89 85 85 84 94 96 91 76 61 52 46 39 37 28 21 20 22 25 32 45 55 60 69 80 74 77 78 45 22 13 11 9 9 8 6 5 4 4 4 4 3 2 3 3
100 94 88 75 64 60 53 44 42 44 45 43 34 25 27 25 25 38 59 63 60 71 79 92 91 78 46 28 16 11 10 9 8 6 4 4 4 4 5 4 4 3 2 2
71 61 53 52 49 46 47 47 58 67 60 48 33 29 29 30 44 62 69 67 86 78 91 92 77 45 29 19 11 9 9 7 5 4 4 4 4 4 5 6 4 2 2 2
64 54 51 54 58 57 62 67 59 47 38 33 31 30 40 51 65 67 68 83 77 93 86 70 46 33 19 12 10 9 7 5 4 4 4 4 4 4 4 3 3 3 3 3
72 66 64 76 73 64 55 46 39 35 34 32 34 41 52 69 69 76 79 79 83 75 62 42 28 17 12 10 9 7 5 4 4 4 4 4 4 4 3 3 3 4 4 3
56 63 74 75 66 54 44 45 46 39 36 37 42 58 74 77 80 80 78 83 72 72 49 25 22 13 10 8 7 5 4 4 4 4 4 4 4 3 3 3 4 3 2 2
63 67 64 56 48 45 47 47 38 38 39 45 58 71 81 74 75 79 81 77 66 62 30 19 13 11 8 6 5 4 4 4 4 4 4 4 3 3 4 4 3 2 2 2
70 63 52 44 44 46 41 40 46 50 51 61 74 87 74 80 81 93 85 69 56 32 16 13 10 9 7 5 4 4 4 4 4 4 3 3 3 4 3 2 2 2 2 2
70 62 51 43 43 42 46 52 53 55 64 81 77 76 76 82 88 78 68 67 52 20 12 10 9 8 6 5 4 4 4 5 5 4 4 4 4 3 2 2 2 3 4 4
72 60 55 62 59 55 56 62 66 71 75 68 72 83 88 83 73 64 56 36 16 10 10 10 9 7 6 6 5 4 5 5 5 4 4 4 2 2 2 3 4 5 5 5
68 76 70 77 72 69 69 73 68 64 72 82 87 87 74 58 42 32 31 19 10 9 10 9 7 6 6 5 5 5 5 5 4 5 4 2 2 2 3 4 4 4 4 5
77 74 67 66 68 71 68 65 70 76 88 92 79 59 52 37 31 25 14 9 9 9 9 8 6 5 5 5 5 5 5 5 5 4 3 2 2 3 4 3 3 3 3 3
79 80 79 72 65 68 80 80 83 94 89 64 55 45 26 22 20 11 9 9 8 8 8 6 5 5 5 5 5 5 5 5 5 3 2 2 3 3 3 2 3 3 3 3
72 70 72 78 87 86 82 88 75 60 51 46 35 23 18 16 9 8 9 8 8 8 6 5 5 5 5 5 5 5 4 4 3 2 3 4 3 2 2 2 2 3 3 3
83 84 82 73 74 78 73 64 52 44 34 32 22 16 11 8 8 10 9 9 8 7 6 5 5 5 5 5 4 4 4 2 2 3 4 3 2 2 2 2 2 3 2 3
82 82 78 72 67 62 60 55 45 31 25 18 13 10 8 9 9 9 8 7 6 6 5 5 5 5 5 4 4 4 2 3 4 3 2 2 2 2 2 2 2 2 2 3
66 58 55 56 58 51 33 24 22 18 13 10 8 8 9 9 9 7 6 6 5 5 5 5 5 4 4 4 4 3 3 4 3 2 2 2 2 2 2 2 2 2 2 3

GFSNGP_250_rhum_009.txt.gz
RH
19 18 17 16 18 24 30 27 26 31 35 29 72 100 100 100 100 100 100 100 100 100 100 90 76 67 58 51 49 52 56 54 63 75 77 58 45 43 38 36 39 38 33 34
30 29 29 29 28 27 26 30 44 38 54 91 100 100 100 100 100 100 100 100 87 78 66 58 54 52 41 42 49 58 61 63 50 41 40 37 48 46 51 49 40 39 42 32
50 42 42 46 48 48 49 46 50 97 100 100 100 99 100 100 99 91 80 67 59 56 56 52 45 43 49 59 66 62 46 38 33 34 44 53 63 66 67 50 40 31 25 19
51 50 47 74 73 75 74 96 100 100 100 97 95 94 98 84 72 65 56 58 57 56 51 48 54 64 71 62 45 43 35 34 43 50 59 73 79 62 47 37 26 20 14 11
90 81 98 88 95 100 100 100 100 100 96 95 87 78 68 69 64 61 65 62 52 49 59 69 66 59 47 36 29 30 36 40 50 63 70 74 58 41 31 20 15 12 9 8
100 100 100 100 98 88 86 84 92 87 88 89 88 83 77 69 65 58 54 57 75 86 74 61 43 35 32 28 28 36 50 57 61 67 71 66 42 24 17 12 10 7 6 6
80 83 96 100 100 95 98 100 99 99 100 100 96 80 68 61 67 84 97 97 81 68 51 44 34 32 34 32 34 51 63 75 75 72 65 38 19 12 10 7 6 6 5 5
100 100 100 100 100 100 99 100 100 95 77 58 57 60 65 86 95 93 86 73 56 47 36 35 37 36 34 44 53 66 74 79 75 56 38 18 11 9 7 7 6 5 4 4
86 97 100 98 96 99 94 87 77 66 68 75 83 92 93 78 79 64 61 55 43 40 49 40 36 38 51 62 71 79 77 64 51 40 18 10 9 7 8 6 4 4 3 3
100 100 81 85 97 82 75 71 74 93 95 88 77 76 76 78 68 58 51 43 49 42 34 30 41 48 57 66 76 81 69 61 49 20 11 9 8 8 6 4 3 3 3 4
86 92 90 97 91 97 98 95 88 84 76 70 78 92 71 58 57 52 48 43 37 32 31 38 42 52 63 75 84 70 65 45 26 12 9 9 9 6 4 4 4 3 3 3
86 77 82 89 96 99 89 81 85 86 94 92 70 57 54 52 51 49 41 32 30 32 35 40 48 57 73 82 70 66 42 24 13 8 8 8 6 5 6 5 4 3 3 3
100 95 90 91 92 97 98 95 82 73 68 58 52 50 49 43 41 36 35 35 35 37 42 50 58 79 76 75 70 45 26 15 10 8 8 7 5 5 6 6 5 4 3 3
100 100 97 89 82 70 62 65 66 58 50 49 54 48 39 39 37 38 37 36 41 45 51 56 82 79 80 72 52 28 16 8 7 8 8 5 5 5 5 5 5 5 4 4
87 85 76 64 60 60 60 54 54 52 51 49 49 46 45 41 38 38 38 42 48 53 64 80 74 80 70 44 21 15 12 8 8 8 6 5 5 5 5 5 4 4 4 4
63 63 74 80 69 57 53 52 51 55 53 50 49 50 44 41 39 41 43 49 56 71 74 77 87 66 41 20 15 14 8 7 7 7 5 5 5 6 5 4 4 4 4 3
87 88 83 79 64 52 55 62 63 60 59 56 52 46 44 44 46 46 54 64 72 72 82 82 62 46 27 20 14 8 7 7 7 5 5 5 5 5 4 4 4 4 3 2
80 74 68 64 68 71 71 67 61 52 45 44 44 47 47 46 54 63 64 67 69 87 78 63 50 30 21 13 8 7 7 6 5 4 5 5 6 5 4 5 5 3 3 3
75 74 73 71 64 58 55 54 53 53 58 55 48 49 58 62 62 65 66 76 84 81 74 58 34 17 12 8 8 8 6 5 5 5 6 5 5 4 4 4 3 2 3 4
80 81 76 72 72 69 66 60 56 54 56 61 62 64 60 63 67 73 86 82 76 65 59 31 17 13 8 8 8 7 5 5 5 6 6 5 4 4 4 3 2 4 4 4
73 70 69 71 68 62 55 56 62 61 61 61 63 65 68 70 79 86 80 77 51 35 20 15 11 8 8 9 8 6 5 6 6 6 5 5 5 4 3 3 3 4 3 3
73 68 67 66 64 62 58 57 60 62 63 66 69 73 80 86 86 78 65 42 26 14 12 10 8 8 8 8 6 6 6 6 6 6 5 5 5 3 4 3 3 3 3 3
60 63 60 53 54 55 54 58 63 70 77 80 83 84 84 78 63 52 33 16 12 10 8 7 7 8 7 6 6 5 6 6 6 5 5 4 3 4 4 3 2 3 3 3
64 63 66 62 61 64 73 84 89 87 85 78 65 56 48 45 39 19 12 11 9 7 7 8 7 7 6 6 6 6 6 6 4 4 4 3 4 4 3 2 3 3 3 3
77 77 73 74 79 83 87 82 78 68 49 40 32 25 19 14 12 12 10 8 7 8 8 7 7 6 6 5 5 5 5 4 4 4 4 4 4 2 2 2 3 3 2 3
77 79 81 80 80 78 71 60 42 26 21 16 14 14 13 11 10 8 8 8 9 8 8 7 6 5 5 5 5 4 4 4 3 4 4 3 3 2 2 3 3 2 2 3
70 65 63 57 50 40 32 19 12 12 13 13 12 10 9 8 8 8 9 8 8 8 6 5 5 5 5 4 4 4 3 3 4 4 3 2 2 3 4 3 2 2 3 3

GFSNGP_250_rhum_012.txt.gz
RH
19 19 17 18 18 16 16 17 17 19 19 18 21 26 33 31 32 32 35 83 100 100 100 99 95 99 91 85 77 71 60 68 70 66 67 70 63 43 34 29 33 42 52 50
16 16 15 16 15 15 17 17 18 18 16 20 25 36 36 33 37 44 67 100 100 100 100 100 92 81 72 70 71 65 71 65 64 65 63 40 36 33 30 39 49 57 51 54
20 18 18 19 20 19 19 18 19 24 26 26 35 38 35 40 57 78 77 98 92 100 92 81 77 66 60 60 70 72 66 66 68 47 37 32 31 38 49 55 60 64 59 37
30 25 27 29 23 24 25 27 29 33 35 36 37 42 53 58 68 70 94 100 97 80 69 65 60 56 60 64 71 73 72 57 44 35 30 36 44 49 54 59 59 59 52 39
30 28 34 31 33 34 34 38 39 43 46 45 54 58 71 71 72 100 99 87 70 64 62 60 52 68 84 84 80 67 49 39 30 31 37 43 42 48 60 73 78 57 28 17
48 48 43 37 38 46 50 46 48 44 44 68 79 81 77 83 78 72 70 73 66 67 67 75 89 82 78 71 56 49 34 37 37 36 38 40 48 62 71 71 46 20 16 12
99 93 92 85 68 76 78 98 95 86 93 93 79 74 66 67 78 89 89 72 72 87 89 79 82 72 61 56 43 43 50 44 35 37 40 49 53 65 66 36 19 14 11 7
100 100 100 100 96 93 95 95 87 93 85 86 88 94 92 92 96 98 95 88 86 90 89 80 70 61 51 45 53 49 42 41 37 40 47 61 71 68 47 18 12 10 7 7
79 89 82 82 93 95 100 88 78 76 68 66 79 87 93 99 100 97 81 82 80 81 75 65 55 46 48 54 51 49 44 37 43 53 61 70 66 50 26 14 9 6 6 6
81 84 78 82 79 85 97 89 84 81 88 97 100 100 100 96 74 74 77 85 91 81 66 48 43 44 51 53 50 40 38 45 51 63 70 71 55 30 14 10 7 6 5 5
99 100 100 100 100 97 95 92 92 95 100 100 100 93 78 82 81 83 96 90 74 54 43 48 56 53 43 38 37 39 46 50 60 67 68 57 42 19 11 8 6 5 4 4
69 73 88 100 100 98 96 91 92 98 97 86 75 83 84 87 98 97 82 58 42 45 56 56 46 38 39 41 42 46 51 59 67 70 59 39 22 13 9 8 7 6 4 4
74 73 66 73 81 78 78 89 95 94 92 87 87 95 99 98 81 59 48 54 56 54 49 44 42 42 43 46 47 52 62 70 74 62 44 20 14 8 7 9 8 6 5 4
86 70 60 66 75 94 98 99 100 100 96 94 95 87 72 66 70 68 53 48 49 48 44 42 44 51 51 46 54 63 70 72 60 36 14 11 7 6 8 7 7 7 6 5
98 80 77 87 96 93 89 95 99 97 91 85 75 64 55 48 45 48 53 52 47 46 46 55 57 48 46 58 67 77 72 52 30 13 10 7 6 7 6 6 6 6 5 5
87 90 97 98 99 99 94 86 71 66 67 62 54 49 48 53 56 57 51 50 55 52 50 47 45 50 60 69 78 72 41 21 15 11 7 6 7 7 5 6 5 5 5 4
99 94 85 77 75 67 67 70 65 63 62 59 57 57 60 61 59 60 64 59 49 49 47 49 57 67 77 74 55 24 14 12 9 7 6 6 6 5 5 5 5 5 5 4
74 64 65 68 62 60 56 59 64 66 69 72 79 79 81 77 68 56 51 50 49 49 53 57 66 70 64 33 17 12 10 8 6 6 7 6 6 5 5 5 5 4 4 4
62 61 57 57 60 66 73 80 84 84 88 90 85 74 66 59 53 48 48 48 49 56 63 68 72 58 22 12 10 10 8 6 6 7 6 6 5 4 4 5 4 4 4 3
73 74 76 78 82 85 84 84 80 76 76 68 57 50 46 48 49 48 50 57 62 68 67 70 49 20 12 10 10 7 6 7 8 7 6 5 4 4 4 4 4 4 3 5
75 77 77 78 80 75 64 56 55 54 51 50 50 50 53 55 56 59 60 66 61 59 60 30 12 10 10 9 7 6 7 7 6 5 5 5 4 4 4 4 3 3 4 5
70 68 64 60 59 57 58 56 55 55 56 57 60 59 59 62 66 69 64 46 41 27 16 11 10 10 7 6 6 7 7 6 5 5 4 4 4 4 4 3 3 4 4 3
62 60 62 65 68 67 65 64 62 60 63 68 65 63 66 70 69 57 32 12 11 10 10 9 8 6 6 6 6 6 5 5 5 4 4 4 4 4 3 3 3 3 3 3
70 69 70 68 64 64 62 62 65 70 67 64 66 72 71 55 25 9 10 12 11 9 8 7 6 6 6 6 5 5 5 5 4 4 4 4 3 3 3 3 3 3 3 3
77 75 69 65 64 65 66 68 69 67 66 72 68 44 22 9 9 12 11 9 8 6 6 6 6 6 5 5 4 5 5 4 4 4 3 3 3 3 2 2 2 3 4 4
78 77 71 71 76 79 81 79 74 71 58 33 13 10 10 11 11 9 8 7 7 6 6 6 6 5 4 4 5 4 4 4 4 3 3 3 2 2 2 2 3 4 4 4
77 78 77 82 86 80 63 44 30 18 14 14 12 11 10 9 8 8 7 7 7 7 6 6 4 4 4 4 4 4 4 4 3 3 2 2 2 2 2 3 4 4 4 4

GFSNGP_250_rhum_015.txt.gz
RH
23 28 28 29 30 29 26 26 23 27 27 28 31 32 32 26 21 20 21 23 23 26 30 35 35 30 32 53 80 98 94 84 86 78 72 78 65 59 70 67 55 47 38 30
18 20 23 24 24 24 25 26 27 29 29 28 27 28 25 22 20 21 23 24 24 30 39 37 35 34 44 90 99 89 81 80 93 89 68 52 55 60 59 55 47 34 30 34
20 18 18 19 20 20 20 22 25 28 29 26 26 24 21 22 24 24 26 26 31 39 39 36 40 58 93 99 89 84 88 100 81 67 50 58 59 58 52 34 29 34 39 41
19 19 21 20 18 20 22 23 22 24 23 22 21 21 22 23 25 29 38 40 41 40 45 60 82 100 96 87 95 99 89 65 54 54 56 56 52 36 31 34 39 40 42 47
25 26 25 23 22 20 20 19 19 20 22 21 22 24 28 33 39 44 42 42 46 54 72 84 83 88 85 95 98 91 63 54 58 59 56 44 39 35 38 41 43 45 44 52
25 25 26 24 24 24 22 24 25 25 26 24 22 26 31 34 40 41 50 59 73 80 77 68 80 100 99 97 86 59 58 60 58 48 39 38 42 40 40 46 44 45 52 51
48 55 58 47 40 32 29 33 27 31 33 35 38 42 47 49 55 79 87 88 86 77 81 82 97 100 95 75 62 62 62 51 43 39 39 40 41 44 46 45 45 54 58 51
68 68 70 55 50 52 65 69 63 58 69 75 71 72 73 92 100 89 66 72 70 84 96 100 95 87 71 67 64 52 44 41 40 42 42 44 47 50 47 45 54 55 47 26
100 100 100 100 98 82 84 82 91 96 80 85 92 80 68 78 73 68 69 91 93 100 98 89 80 76 67 59 46 43 42 45 42 46 47 49 51 46 48 58 55 27 15 12
100 100 100 100 100 100 100 100 94 85 92 78 76 81 85 69 56 80 92 99 96 89 84 80 69 69 60 55 50 52 49 45 47 51 49 49 50 52 59 48 22 13 9 8
86 90 96 91 82 89 97 89 77 74 70 62 68 68 65 77 89 91 86 87 82 78 70 72 68 61 56 52 51 50 48 50 51 52 49 50 55 62 50 21 10 8 8 6
74 73 83 87 88 84 79 82 82 84 79 80 86 79 78 83 86 86 88 84 84 86 76 67 64 58 53 53 50 50 52 56 51 48 50 56 59 48 23 9 9 8 5 5
56 51 50 52 65 68 68 74 82 82 83 81 71 77 87 85 81 88 95 93 83 70 77 69 57 51 47 48 57 61 51 46 50 52 52 56 37 14 9 10 9 6 6 6
66 59 55 50 51 49 52 51 51 50 53 55 74 87 86 81 84 85 80 71 71 68 62 55 48 50 58 58 55 52 51 50 52 53 45 19 9 8 9 8 7 7 8 7
67 68 69 73 72 71 72 66 56 53 60 77 84 80 84 80 70 70 69 71 68 60 57 59 59 59 60 57 50 49 53 53 48 32 13 8 8 8 6 6 7 8 7 6
80 80 82 84 87 83 73 66 67 76 81 83 85 82 75 69 67 70 70 70 72 64 61 60 60 57 53 51 53 53 46 37 23 10 8 8 8 6 6 7 7 6 5 5
68 69 76 84 81 74 76 79 79 70 69 69 67 68 72 72 73 74 75 70 64 65 59 56 55 54 52 54 43 38 27 12 8 9 9 7 6 6 6 6 6 5 5 5
71 70 64 57 56 58 64 68 69 70 73 76 72 71 74 78 76 73 70 70 66 53 57 58 54 53 49 36 31 16 8 8 10 9 7 6 6 6 6 5 5 5 5 4
65 61 61 63 67 72 75 73 70 70 71 73 73 74 74 77 74 70 68 58 56 61 57 53 50 38 30 22 11 9 10 10 8 7 6 6 6 5 4 4 5 5 4 4
65 66 68 68 66 67 68 72 75 74 72 73 80 82 75 69 67 62 62 59 57 57 56 49 36 25 18 12 10 10 9 8 7 6 6 6 5 4 4 5 4 4 4 4
76 81 79 78 79 83 87 83 79 81 80 72 69 68 67 68 69 64 60 62 63 58 48 31 17 13 13 11 10 8 7 7 6 6 6 4 4 5 5 4 4 3 4 4
80 77 76 75 77 80 81 82 76 68 70 75 78 78 73 65 65 68 69 69 55 45 27 15 13 13 10 8 7 7 7 7 6 5 4 4 5 5 4 4 3 3 3 3
88 84 82 82 80 77 76 79 82 83 83 80 75 71 74 79 74 68 62 51 33 17 13 13 12 9 8 7 6 7 7 6 5 4 4 4 4 4 4 3 3 3 3 4
90 90 92 94 97 95 90 85 80 77 76 81 82 82 75 62 59 46 36 20 15 14 13 11 8 8 7 6 7 7 6 5 5 4 4 4 4 4 3 3 3 3 4 5
96 95 91 85 80 77 78 81 82 79 76 68 57 57 61 47 36 28 17 14 13 11 9 8 7 7 7 8 7 5 5 4 4 4 4 4 4 3 2 3 3 4 5 6
94 88 82 85 91 89 84 77 75 68 58 52 49 42 37 30 24 19 15 12 10 9 8 8 7 7 7 6 5 5 5 4 4 4 4 3 3 2 3 3 4 5 5 5
98 97 96 92 85 78 72 68 58 48 45 40 35 31 26 20 15 12 10 9 8 7 7 7 7 7 5 4 4 4 4 4 4 4 3 2 2 3 3 4 5 5 5 5

GFSNGP_250_rhum_018.txt.gz
RH
25 33 36 34 26 24 23 25 25 31 29 30 28 30 31 30 30 29 29 28 29 31 29 24 22 22 23 23 22 26 36 35 41 78 96 97 96 92 92 73 63 50 57 63
23 26 33 37 36 31 28 24 27 30 36 33 27 27 28 31 30 28 29 31 32 31 25 22 23 25 25 23 27 34 36 50 80 93 100 100 97 78 71 60 52 58 41 34
22 23 25 31 39 39 37 33 33 32 35 28 30 31 30 28 28 29 29 28 28 25 22 22 25 28 27 34 38 46 65 76 97 99 94 82 72 61 57 57 40 33 37 38
22 23 25 27 29 35 37 36 37 37 34 32 32 31 29 28 29 28 27 26 24 23 25 27 30 28 39 52 63 70 86 85 78 96 82 58 55 60 52 30 33 37 37 41
20 21 22 22 22 23 24 26 30 32 31 29 27 25 24 24 25 25 24 23 22 24 27 33 41 58 67 77 86 92 81 91 82 62 50 59 62 35 31 36 38 39 44 53
19 21 20 19 21 22 22 23 23 23 23 22 20 20 21 23 23 22 24 27 31 42 51 65 87 82 89 78 87 91 85 68 57 63 64 54 35 38 39 38 40 49 61 54
23 24 22 22 23 23 24 24 24 25 25 25 25 23 23 24 27 30 37 47 64 80 88 92 92 80 78 81 88 82 67 66 70 64 50 43 42 37 38 47 59 56 52 54
54 43 41 40 40 43 43 50 43 41 39 37 36 34 32 35 41 52 77 88 96 92 84 88 80 70 83 91 76 72 71 70 59 44 43 42 41 44 53 52 54 53 54 49
60 53 44 45 44 48 47 49 47 50 49 46 47 50 53 69 97 99 87 72 71 63 75 84 71 74 70 72 74 72 66 50 45 44 43 46 52 52 52 52 51 50 45 34
94 93 82 61 62 58 60 59 61 64 71 79 96 97 98 91 74 63 75 61 60 78 73 68 70 70 77 75 71 57 49 52 52 54 59 60 53 50 48 50 47 39 25 14
95 91 100 95 89 84 87 94 100 99 100 97 93 91 92 91 79 67 63 66 70 74 68 70 76 75 70 60 56 60 58 60 60 68 65 54 51 52 51 44 30 17 9 7
100 100 100 100 100 100 100 100 100 100 98 91 88 88 80 60 60 65 66 65 60 66 73 69 67 59 56 62 61 58 60 72 76 58 52 50 53 46 34 21 11 7 7 7
73 91 96 85 90 88 81 80 77 68 64 60 55 55 51 47 48 51 52 54 62 65 66 63 56 60 62 65 67 68 73 64 56 51 50 50 39 24 12 8 8 8 7 6
54 59 60 60 57 54 57 54 50 47 46 47 49 48 48 52 52 51 58 67 66 67 63 63 64 70 75 72 71 69 63 56 52 50 44 31 15 9 9 8 8 8 7 6
72 66 58 49 48 48 43 41 39 44 54 64 70 61 59 60 62 63 66 69 67 66 67 76 80 77 73 70 69 62 58 53 47 36 26 13 9 8 8 8 8 7 6 6
62 62 57 55 57 56 55 61 69 73 76 72 64 66 71 67 65 65 63 64 76 80 82 80 73 72 74 68 64 59 54 40 29 19 10 9 9 8 7 7 7 7 6 5
75 71 72 70 68 69 71 67 67 73 75 73 69 63 62 66 68 76 82 78 75 78 77 76 80 69 68 66 60 48 35 30 19 11 10 9 8 7 7 7 7 6 5 4
60 63 64 64 67 71 71 73 70 67 69 75 76 73 74 79 76 71 72 79 85 84 81 76 71 69 65 55 41 34 26 14 12 11 9 8 7 7 7 7 6 5 4 5
68 63 62 61 67 73 73 70 74 81 83 79 73 69 70 74 80 91 94 87 82 80 80 77 69 58 45 37 30 18 15 14 10 9 8 7 7 7 6 5 4 4 5 5
71 74 76 76 72 68 68 70 68 67 69 70 72 78 84 90 91 85 86 87 84 81 73 63 54 45 38 23 17 17 13 10 9 8 7 7 7 5 5 5 5 5 5 4
82 83 83 80 74 73 73 74 80 85 87 89 89 87 87 91 97 94 88 80 74 66 58 54 48 32 23 20 19 14 10 8 8 7 7 6 5 5 5 5 4 5 4 3
94 90 82 82 86 88 89 93 98 96 94 91 91 95 99 95 87 79 72 70 59 60 55 42 30 24 20 17 12 10 8 8 7 7 6 5 5 5 5 4 5 4 3 3
97 93 93 92 90 91 91 91 92 96 97 92 91 89 82 74 75 73 70 68 64 54 41 33 23 19 14 11 10 8 7 6 7 6 5 5 5 4 4 5 4 3 3 4
96 95 92 88 88 88 91 92 88 86 83 80 77 78 80 79 81 84 71 62 46 32 28 22 18 14 11 10 8 7 6 6 6 5 5 4 4 4 4 4 3 3 4 5
86 91 97 98 96 92 90 85 77 77 83 87 88 93 92 88 75 62 53 37 27 25 18 15 12 11 9 8 7 6 6 6 5 5 4 4 4 4 4 3 4 4 5 6
98 100 98 91 84 81 81 86 89 90 93 97 96 86 73 59 49 37 25 22 20 16 14 12 10 8 7 7 6 6 6 6 5 4 4 4 4 3 3 3 4 5 6 6
85 85 86 90 95 96 92 93 98 100 96 81 67 52 48 39 27 23 20 18 13 13 12 9 7 7 6 6 6 6 5 5 4 4 4 3 4 4 3 4 6 6 6 6

GFSNGP_250_rhum_021.txt.gz
RH
22 32 28 30 31 25 26 30 30 31 29 29 28 32 38 41 42 43 42 40 37 34 31 30 29 28 28 27 27 26 26 23 23 25 29 33 48 66 61 81 82 82 74 63
24 33 33 29 27 26 27 31 33 34 37 37 36 35 34 35 37 38 36 32 29 28 29 30 29 28 27 28 26 25 23 23 27 29 38 47 73 72 88 89 77 63 57 64
26 29 34 34 31 31 32 35 35 36 35 28 31 31 33 33 32 28 26 29 32 32 32 31 28 26 25 25 25 24 25 28 35 53 67 86 82 92 93 77 59 59 60 55
23 23 29 42 45 36 31 31 32 34 30 27 28 27 28 28 29 32 34 34 34 33 31 28 25 24 27 26 25 29 34 49 69 81 81 84 85 78 59 56 59 57 49 36
21 22 24 26 33 39 41 42 43 49 44 44 42 38 38 39 39 38 38 37 34 31 27 25 26 27 26 29 34 46 60 71 71 82 90 66 60 59 61 58 54 49 40 38
23 22 22 22 24 26 29 33 36 40 42 42 42 43 43 40 38 37 34 31 27 25 27 28 26 31 35 51 59 64 67 78 82 66 60 63 62 63 59 55 48 43 48 50
23 22 21 22 23 23 24 24 24 26 28 30 30 30 31 30 28 26 26 27 28 27 32 39 42 53 72 70 68 61 67 77 66 61 60 65 63 56 52 50 48 49 54 58
23 24 23 23 23 24 26 27 28 29 29 29 29 28 27 28 28 29 31 38 42 45 46 56 81 72 66 63 71 84 78 65 61 66 63 53 53 52 51 49 56 59 59 52
27 24 23 24 27 29 28 28 28 27 28 30 29 31 32 34 37 42 49 52 56 64 69 70 65 66 65 68 71 65 61 67 63 57 54 55 56 54 57 60 61 56 48 40
44 41 35 40 39 42 39 38 38 41 43 45 44 49 54 55 56 62 82 88 79 72 76 78 66 58 58 59 58 58 64 53 54 58 61 59 60 63 66 59 51 44 38 27
79 74 65 58 53 52 55 53 52 56 64 66 66 67 71 76 79 91 99 99 91 75 66 59 53 53 51 52 58 58 54 56 61 65 67 69 69 66 58 48 40 34 19 10
96 96 88 84 80 80 87 91 98 99 97 96 98 99 100 100 100 86 79 69 59 54 51 48 49 52 54 55 56 60 62 69 70 70 71 71 65 57 46 38 30 16 8 8
100 100 96 94 100 93 90 97 100 100 100 100 100 96 94 93 80 61 47 42 44 47 57 56 55 54 58 62 63 70 73 71 71 74 69 59 49 42 40 29 13 9 8 7
76 72 71 72 72 81 95 96 82 77 72 69 66 68 60 50 45 42 52 66 66 60 53 53 56 64 68 67 71 73 75 77 75 62 54 48 42 33 15 11 9 9 8 7
70 66 60 56 50 49 53 56 58 58 52 49 46 42 40 52 64 73 70 61 52 50 58 71 74 74 72 76 81 80 78 65 53 52 48 38 21 13 13 9 8 7 7 7
61 58 56 64 64 56 51 51 52 50 48 51 55 64 71 71 65 55 50 56 67 77 77 78 74 74 83 86 84 70 56 53 52 40 33 16 14 13 9 7 7 7 7 6
61 68 67 61 63 66 71 71 69 69 68 69 72 71 64 56 54 62 73 75 74 78 80 80 85 90 90 74 60 56 54 44 38 28 17 15 14 9 7 7 7 7 6 5
67 73 84 88 87 83 82 81 78 74 68 65 66 66 64 66 70 73 77 81 88 96 97 97 92 83 68 60 55 46 39 33 26 17 14 11 9 8 8 7 7 6 5 5
77 85 89 87 82 76 73 71 67 60 60 66 68 68 72 81 84 88 96 100 99 98 94 85 75 65 58 50 43 39 35 21 16 15 11 9 8 8 7 7 6 5 5 5
70 69 66 66 66 66 59 56 56 65 74 81 88 95 97 99 100 100 98 96 94 86 76 68 62 55 46 45 39 33 19 15 13 11 10 9 8 7 6 6 5 5 5 5
66 70 72 73 75 74 75 80 89 97 99 100 99 99 98 95 91 90 89 87 80 72 65 59 52 48 46 37 30 19 15 13 11 10 8 8 7 6 6 5 5 5 5 4
77 78 80 81 81 85 96 98 99 100 98 95 91 92 89 86 86 85 80 76 73 66 59 55 53 42 37 28 17 13 12 11 9 8 7 7 6 6 5 5 5 4 4 3
87 82 83 92 99 100 99 98 98 98 90 86 86 85 84 85 84 77 76 70 66 63 62 49 38 34 23 14 14 12 11 9 8 7 7 6 6 5 5 5 4 4 4 4
89 93 99 100 100 98 98 98 93 88 85 87 89 86 83 73 73 76 75 74 68 56 46 39 31 19 15 13 12 11 9 7 7 7 6 5 5 5 5 4 4 4 4 5
100 100 100 100 99 94 88 83 81 86 86 82 79 74 76 82 83 76 71 63 57 47 38 28 17 14 12 12 11 8 7 7 7 6 5 5 5 5 4 4 4 4 5 6
76 80 86 91 91 90 92 90 87 82 79 80 83 86 85 81 75 67 61 53 45 33 26 18 15 12 10 10 8 7 7 7 6 5 5 5 5 4 4 4 4 5 7 8
98 96 97 96 92 88 83 82 82 82 82 86 86 82 72 60 57 54 48 38 34 26 17 15 12 10 8 7 6 6 7 6 5 5 5 4 4 3 4 4 5 8 8 8

GFSNGP_250_rhum_024.txt.gz
RH
39 32 29 31 34 40 59 59 54 55 63 54 47 37 36 37 39 41 41 43 44 45 43 42 42 41 38 32 29 31 32 32 30 27 25 25 26 25 28 31 47 71 79 83
31 28 29 34 34 45 53 47 50 52 54 50 39 42 41 32 33 38 41 46 49 46 44 41 37 37 32 30 33 33 33 33 28 24 25 26 26 29 44 56 62 75 72 62
23 25 30 35 35 44 46 46 54 54 47 35 33 32 35 35 37 38 36 35 34 34 34 35 33 29 33 34 35 37 34 27 25 27 26 29 37 48 54 67 73 66 63 58
26 30 37 34 34 36 39 43 48 48 44 28 36 36 33 34 37 36 36 35 34 34 31 30 33 38 39 40 36 32 25 26 28 28 35 47 52 54 62 58 62 66 62 58
26 26 28 35 38 37 35 37 43 44 40 35 38 35 31 31 32 33 32 32 31 34 39 42 43 42 38 33 26 24 27 30 38 47 57 53 55 60 65 70 62 63 50 41
30 29 28 32 43 48 48 35 37 36 34 36 33 35 36 34 32 35 43 47 48 48 46 44 38 32 26 24 27 33 43 48 57 53 49 51 58 58 57 60 54 45 42 45
28 29 30 29 32 41 52 47 40 37 38 41 44 46 47 48 51 51 47 44 40 36 31 28 26 26 29 40 50 53 57 54 50 52 54 56 56 52 58 48 46 47 48 46
26 25 26 28 30 32 33 38 44 48 51 52 51 47 41 37 32 30 29 28 28 28 27 28 32 48 47 56 59 54 46 54 59 53 50 48 51 49 45 47 50 51 52 55
26 27 25 24 24 26 28 28 28 29 29 29 29 28 28 28 27 27 28 27 29 33 42 51 58 62 66 68 61 61 59 53 52 53 54 53 46 49 52 52 57 61 52 45
29 26 29 30 30 29 30 30 29 28 28 28 28 28 28 29 29 31 36 45 57 63 64 63 78 69 58 62 56 47 46 51 55 58 50 50 53 56 58 64 60 50 44 38
29 26 25 27 27 28 28 28 28 28 28 29 31 36 40 50 61 62 68 71 70 78 81 71 66 53 47 44 46 53 56 56 53 52 54 59 66 66 66 58 48 41 30 18
57 51 51 51 46 42 46 46 53 65 65 64 62 63 68 74 76 89 93 89 79 77 61 59 53 45 49 64 63 58 51 50 56 57 65 70 71 67 57 49 44 31 16 8
80 79 76 87 98 97 95 95 86 86 88 87 94 97 100 100 97 94 89 76 66 51 48 44 49 74 70 64 54 51 57 62 70 71 73 64 57 53 54 49 30 14 9 7
84 86 82 77 77 75 77 82 91 96 97 94 87 82 76 67 62 58 52 50 47 44 60 76 71 65 55 51 57 65 76 79 75 66 62 56 54 49 36 18 11 9 8 7
99 98 95 90 82 77 74 73 72 70 66 64 61 61 58 53 47 43 42 48 61 74 69 61 54 52 58 66 76 83 79 69 63 58 56 54 44 28 17 11 8 7 7 7
83 85 86 80 73 66 66 63 58 52 48 53 55 52 50 55 57 56 65 74 69 57 54 54 58 66 77 86 84 76 67 60 59 59 51 36 24 18 10 8 8 7 6 6
68 66 64 58 57 56 56 56 64 62 66 68 69 77 85 85 79 72 62 57 54 53 54 66 78 86 86 76 70 65 60 61 56 44 34 25 18 10 9 8 8 7 6 6
64 66 66 68 67 67 70 70 81 89 84 80 83 85 76 66 55 50 50 52 59 72 78 82 82 75 71 68 66 62 62 52 43 33 27 16 11 9 8 8 6 6 7 6
63 64 67 69 67 71 76 79 84 80 79 79 74 62 57 52 48 56 70 80 82 85 81 73 73 72 70 68 64 62 51 38 31 28 15 12 10 8 8 7 7 7 6 5
69 67 65 64 66 72 80 79 78 72 70 67 58 53 60 69 75 79 85 89 80 76 74 76 75 75 69 66 58 53 34 34 29 14 12 11 8 8 6 6 7 6 5 5
66 66 63 66 71 70 66 62 60 58 56 64 75 78 76 72 78 89 85 79 77 77 78 78 75 69 64 57 48 33 33 25 16 13 12 9 8 6 6 7 6 5 5 5
72 69 67 65 61 56 53 56 63 71 74 76 75 71 74 82 89 88 84 80 79 83 78 74 69 63 55 40 34 31 24 15 13 12 9 8 6 6 7 6 5 5 5 5
66 63 60 60 63 69 80 83 78 76 76 78 79 84 94 97 89 81 80 89 86 75 74 66 62 52 34 32 29 22 16 14 12 9 8 6 6 7 6 5 5 5 5 5
78 80 83 87 90 88 84 83 86 92 94 93 95 96 87 83 87 93 92 80 74 71 69 60 45 30 32 27 22 16 14 12 9 7 6 6 6 6 5 5 5 4 5 5
95 94 93 92 92 92 95 95 96 97 94 89 81 83 90 91 84 80 78 75 74 71 53 37 28 31 25 22 15 13 12 9 7 6 6 6 6 5 5 5 4 5 5 7
100 99 97 97 98 100 100 94 81 76 81 89 90 88 83 81 80 78 76 75 59 44 30 29 29 23 20 14 12 10 8 6 6 6 6 6 5 5 5 4 5 5 7 9
100 100 98 87 74 70 72 80 92 92 90 88 83 81 80 76 76 74 62 43 37 30 28 27 22 18 14 12 9 6 6 6 6 7 6 5 5 5 4 5 5 8 9 8

GFSNGP_250_rhum_027.txt.gz
RH
100 100 100 100 89 58 44 34 35 57 62 60 56 56 67 65 66 65 60 55 49 48 53 54 54 54 50 45 43 43 44 38 35 31 31 33 36 30 24 23 26 30 35 42
100 99 100 50 57 39 33 33 40 54 57 52 55 63 63 63 67 69 61 56 53 50 50 50 48 45 42 43 44 40 37 34 30 31 37 38 31 24 24 28 33 39 45 50
93 70 47 46 44 33 29 26 28 46 50 55 60 59 67 69 71 71 67 57 52 49 48 45 42 41 42 41 38 35 30 31 36 40 38 28 24 26 34 44 47 50 53 48
70 38 40 30 28 27 22 22 37 49 53 56 61 64 61 63 64 65 61 49 46 47 45 39 40 40 39 34 31 33 36 40 40 31 24 24 30 41 50 50 50 52 48 46
53 43 34 31 27 25 32 40 46 47 55 62 64 58 54 54 53 50 49 48 45 40 37 38 38 35 34 36 38 41 42 32 25 26 30 43 52 51 50 52 47 46 49 51
42 43 35 32 30 37 46 59 57 47 52 58 61 60 60 60 54 45 41 38 38 39 38 39 40 33 38 42 40 30 25 26 30 38 55 52 54 55 45 44 45 53 51 44
37 36 29 31 38 51 57 57 52 45 44 47 49 54 55 51 48 46 43 42 43 41 36 36 39 43 38 29 26 27 29 42 56 56 48 50 45 45 47 56 56 45 48 50
37 31 31 33 37 48 53 60 63 58 49 45 47 49 50 47 43 40 41 39 41 45 49 47 34 28 27 27 30 41 50 55 56 52 53 46 50 60 60 46 47 50 53 55
34 29 31 32 32 38 46 52 60 59 56 60 64 61 62 63 62 57 54 56 50 36 29 28 28 28 29 42 52 54 62 49 51 45 45 63 65 49 46 49 54 56 53 49
34 29 28 29 31 33 34 37 39 42 45 48 49 50 50 47 41 35 31 29 29 30 31 32 37 50 52 55 66 60 54 48 46 59 69 55 47 48 53 58 56 55 52 47
28 29 30 31 30 30 30 31 31 32 32 33 34 32 30 29 30 32 33 33 39 49 60 59 53 66 70 63 58 48 44 55 70 60 50 49 55 60 61 59 57 54 47 29
31 30 30 30 28 29 29 30 31 32 33 33 33 34 36 39 42 46 56 68 76 69 55 61 67 64 56 50 44 43 66 63 51 48 52 59 64 66 63 63 64 53 27 13
74 57 45 45 52 52 49 47 46 48 50 52 53 59 73 84 88 86 83 84 75 60 59 55 47 48 41 40 60 65 51 49 52 57 61 66 67 68 74 73 58 31 16 11
97 89 83 86 86 84 82 82 85 95 93 88 80 77 82 93 86 78 69 58 50 43 44 43 40 42 59 66 53 50 52 58 63 64 68 67 66 72 70 57 34 24 14 11
98 90 83 76 79 92 98 90 87 81 80 85 83 76 69 67 62 54 45 39 39 52 54 57 65 64 53 46 49 58 64 66 66 70 68 70 75 65 47 26 19 14 11 10
96 95 92 87 89 82 83 88 82 76 70 61 59 58 54 47 46 50 48 61 74 76 71 62 51 46 46 58 64 64 67 71 75 72 77 74 59 43 26 21 14 11 10 8
88 92 96 99 91 84 78 74 64 59 55 55 49 50 56 56 65 72 77 76 66 59 57 50 48 58 65 62 67 73 75 77 75 74 71 58 38 27 21 14 11 10 8 6
85 81 78 74 69 65 62 56 53 53 58 67 64 65 71 75 80 78 68 61 58 55 54 62 63 63 68 76 79 78 80 79 74 72 50 34 28 22 15 11 10 8 6 6
85 91 90 82 74 68 70 68 69 70 69 66 72 74 75 78 67 62 60 56 62 66 65 64 67 74 83 81 84 86 76 76 73 44 31 28 22 16 11 10 8 6 7 7
91 87 77 74 72 72 69 73 78 78 74 69 69 75 73 67 64 60 64 70 68 66 66 68 79 86 80 87 79 78 80 73 39 29 26 22 17 12 10 7 6 7 7 6
58 62 66 67 65 67 68 73 68 64 70 76 74 71 71 64 66 72 71 71 70 71 80 85 81 81 86 82 83 76 66 34 28 24 20 16 12 10 7 6 7 8 6 6
82 77 76 73 70 69 70 73 76 76 72 69 67 64 66 73 76 76 72 71 75 82 81 76 83 86 87 80 70 58 30 26 23 20 14 11 10 7 6 7 8 7 6 5
98 89 84 84 84 82 80 76 73 72 70 71 75 78 77 77 76 77 75 80 77 73 77 84 86 84 75 64 46 29 25 19 18 12 11 9 6 6 7 7 7 6 6 5
100 99 98 92 88 81 74 72 75 80 81 83 79 76 82 86 85 85 80 69 73 83 86 86 81 68 60 39 25 22 17 15 12 10 8 6 6 7 7 6 6 6 5 6
90 88 85 81 76 75 77 83 88 88 86 84 88 90 88 86 81 67 69 83 86 84 81 75 64 63 38 23 20 15 12 10 10 8 5 6 7 7 6 6 6 5 6 7
100 100 98 96 96 96 96 96 95 92 90 90 88 86 78 63 63 81 88 88 83 79 72 66 56 29 22 18 14 11 10 8 6 5 5 7 6 6 6 6 5 6 7 9
100 99 99 98 99 100 100 98 98 96 89 78 64 59 66 78 85 87 86 84 84 80 64 43 28 21 18 14 11 9 7 6 5 6 7 6 5 6 6 5 6 7 9 8

GFSNGP_250_rhum_030.txt.gz
RH
100 100 100 100 100 100 100 100 65 44 45 42 43 54 49 56 62 73 83 83 83 70 55 54 55 57 58 58 56 57 55 52 47 45 42 39 34 32 29 30 34 29 24 23
100 100 100 100 100 100 97 85 51 59 44 43 45 56 50 62 66 73 85 85 78 59 55 56 56 57 56 54 52 53 52 49 46 42 39 35 32 28 32 34 26 23 25 42
100 100 100 100 93 100 100 71 63 47 44 40 52 55 61 67 73 80 90 90 78 60 57 57 58 58 57 54 52 50 49 46 42 38 36 31 29 34 32 25 23 37 44 42
100 100 95 91 84 98 76 54 44 36 41 54 50 64 74 76 80 86 91 91 86 76 71 66 65 64 61 57 52 49 47 40 37 34 30 33 35 30 25 27 43 42 38 35
98 90 82 66 98 95 58 37 36 32 49 67 79 85 82 87 89 91 91 90 84 80 77 76 74 72 66 58 51 47 40 36 32 30 39 33 27 24 35 44 39 35 35 50
79 73 69 64 76 61 38 35 30 36 65 80 79 81 79 84 82 84 87 84 78 77 75 69 62 57 51 45 39 36 33 32 40 40 30 25 26 42 48 44 35 46 54 45
88 81 84 84 52 33 32 30 35 56 77 85 90 90 85 77 78 80 79 79 78 73 64 58 52 44 40 36 33 36 45 45 33 26 24 36 44 52 40 37 54 55 46 46
73 64 66 64 52 34 34 32 43 71 89 91 88 82 74 68 64 64 65 67 64 62 58 52 43 37 38 44 47 46 34 27 25 30 39 54 46 38 41 56 50 46 53 66
55 57 53 49 46 34 32 36 51 68 78 81 80 75 71 69 67 67 64 62 57 49 45 53 63 56 47 40 32 27 25 31 36 50 52 40 40 52 58 48 47 61 65 62
56 50 42 41 39 38 34 40 55 65 70 76 78 75 67 60 56 51 49 54 67 70 64 53 41 33 29 26 27 35 37 44 54 43 38 41 59 53 48 53 64 59 58 59
47 48 42 39 39 37 37 41 54 63 67 67 66 66 65 63 63 62 59 52 45 39 34 30 28 28 32 35 39 50 50 43 37 38 58 56 47 50 61 62 57 59 58 62
37 37 38 34 32 33 35 38 42 47 51 51 49 47 45 40 36 33 32 31 30 30 32 36 36 43 50 52 44 38 36 41 56 63 51 48 60 64 60 59 60 57 61 48
37 38 34 31 30 29 30 31 32 32 32 31 31 30 30 30 30 32 35 44 55 52 49 58 61 53 42 39 38 56 65 64 56 50 58 64 62 60 66 67 63 68 53 21
58 48 44 35 34 30 29 27 27 28 29 29 30 33 38 44 60 77 75 66 68 69 59 52 43 40 52 64 70 63 55 55 58 65 66 61 62 68 65 64 77 65 27 17
71 68 70 70 60 45 39 36 38 42 54 66 73 74 82 86 84 78 69 60 55 48 40 40 55 68 72 61 54 58 62 67 66 62 58 64 71 64 65 73 59 28 21 15
79 90 93 91 96 96 92 94 96 99 96 82 84 83 78 74 63 55 51 45 41 44 51 76 73 68 58 56 64 70 69 64 59 62 71 72 64 65 69 48 27 21 14 10
100 98 100 100 97 90 83 86 85 83 88 84 75 68 60 54 50 47 48 52 55 70 77 71 62 58 62 70 71 68 62 60 66 71 70 64 64 60 47 27 21 14 10 9
100 100 100 99 91 95 100 100 94 86 76 70 66 58 56 56 55 56 54 65 70 73 66 62 62 66 71 71 67 61 63 70 71 68 68 64 58 35 23 20 13 10 9 6
93 91 89 90 94 93 86 71 72 72 70 61 58 59 62 69 65 61 65 70 70 69 65 64 67 73 73 66 62 70 71 71 70 68 59 52 33 24 18 12 9 8 6 6
100 99 96 96 92 86 84 83 83 73 67 65 66 67 69 66 65 69 69 71 70 67 65 71 78 73 67 70 73 67 73 71 66 53 43 24 20 17 12 9 8 6 6 8
100 100 100 99 100 99 89 73 65 62 63 65 68 74 77 79 77 75 75 71 68 72 75 75 69 69 78 70 63 71 69 62 49 38 20 20 17 13 9 7 5 6 8 7
71 75 78 74 63 64 72 80 83 82 83 89 93 87 82 77 75 73 71 73 74 75 73 70 76 78 66 65 68 69 58 48 39 23 20 16 12 9 7 5 6 8 7 7
97 95 96 95 96 100 99 99 98 99 99 98 95 88 82 78 76 74 77 78 77 77 79 81 72 61 70 68 66 54 50 41 22 19 16 13 8 6 5 5 8 7 7 6
100 100 100 100 100 100 100 100 100 100 99 97 88 82 79 76 78 81 78 79 82 87 76 59 62 69 68 64 55 50 40 20 18 16 12 7 6 5 5 7 7 6 6 5
100 100 100 100 100 100 100 98 98 98 94 89 86 85 83 81 83 86 88 90 88 70 67 69 69 73 64 57 47 31 21 19 14 11 7 5 4 5 7 7 6 5 5 6
99 100 100 100 100 99 98 98 98 94 92 92 91 89 89 88 86 87 88 84 77 72 72 72 74 65 55 42 26 19 17 14 10 6 5 4 5 7 7 6 5 5 6 8
93 99 100 98 96 96 95 93 91 90 88 87 87 87 87 86 84 83 82 77 79 78 75 72 62 52 35 24 17 16 12 8 6 5 4 6 7 7 6 5 5 6 8 9

GFSNGP_250_rhum_033.txt.gz
RH
100 100 100 100 100 100 75 55 32 30 37 49 51 61 59 39 37 42 48 66 65 56 73 78 76 78 72 56 55 55 61 62 60 60 59 57 54 50 49 46 44 38 33 30
100 100 100 100 100 100 100 100 100 100 94 85 80 65 54 36 45 50 61 70 56 60 72 82 87 83 80 68 63 62 61 60 60 58 57 56 54 51 46 44 38 36 31 33
100 100 100 100 100 100 100 100 100 100 99 88 71 62 54 44 50 60 68 53 59 66 80 88 96 90 80 71 65 60 58 58 58 60 61 60 56 50 44 41 36 31 37 29
99 100 100 100 100 93 100 100 100 100 91 75 63 53 49 40 52 75 65 72 82 89 90 91 87 86 79 66 59 58 59 63 66 70 71 66 52 43 39 33 36 37 26 25
100 98 100 100 100 100 100 100 100 100 84 78 54 56 45 46 73 81 89 98 100 95 96 96 92 87 79 71 69 73 77 77 77 69 52 45 41 34 34 40 30 25 27 34
66 66 96 100 100 100 100 100 82 95 56 57 58 56 50 70 93 96 94 93 97 93 90 93 96 92 88 84 82 78 77 70 57 52 46 37 36 42 33 26 26 31 37 32
100 100 100 100 100 100 99 99 98 76 69 56 51 56 83 97 96 95 96 98 99 96 95 94 89 84 78 76 76 77 70 61 51 44 44 43 34 27 26 34 38 33 37 43
100 100 100 100 100 100 97 69 73 56 52 48 53 68 86 93 97 97 96 93 89 87 86 82 78 78 78 83 76 64 54 49 48 45 35 29 27 35 38 35 34 44 45 48
100 100 100 100 100 100 95 64 51 46 48 51 58 78 89 93 95 94 92 87 82 79 78 81 80 74 69 64 55 54 54 45 37 31 28 36 42 34 35 47 45 44 57 61
100 92 88 95 93 91 73 73 58 50 46 48 62 88 95 95 95 97 92 85 80 75 72 71 66 60 62 62 58 44 37 33 32 38 43 36 35 53 51 46 56 63 57 50
73 65 65 67 72 83 67 48 45 46 44 54 73 85 89 91 91 87 85 84 80 78 77 78 73 59 43 36 34 35 40 48 49 40 36 54 58 46 52 61 62 53 47 50
52 57 57 58 50 54 58 45 40 39 46 57 68 77 84 90 92 88 85 88 90 79 62 48 40 34 36 47 54 55 54 41 33 47 68 54 50 56 60 58 48 44 46 52
46 45 43 42 43 40 38 36 33 35 41 48 56 64 72 76 79 78 67 53 43 38 34 35 56 65 61 61 51 42 35 44 68 67 53 53 64 67 63 50 44 49 55 59
45 40 35 34 33 34 35 34 33 33 35 38 42 45 45 42 37 34 33 34 41 61 76 76 68 57 49 43 38 46 64 73 65 55 58 64 65 59 47 44 54 62 62 50
80 83 60 44 38 31 28 28 30 30 30 29 30 31 36 44 59 75 83 81 76 72 69 59 53 46 41 45 61 74 73 63 58 62 66 65 62 48 44 51 54 58 46 19
83 78 74 74 70 67 64 69 80 83 82 78 85 95 93 86 82 82 79 74 69 60 54 48 41 43 55 72 75 70 65 61 64 67 67 60 48 46 50 54 53 38 16 11
100 91 88 84 86 98 100 100 100 100 100 100 100 97 92 84 73 67 64 56 53 49 46 51 56 67 74 74 72 67 68 71 70 65 55 49 47 50 52 48 36 18 12 10
97 100 100 100 100 100 100 100 100 100 100 89 83 79 75 68 64 66 60 55 56 62 64 70 79 78 74 74 74 76 74 66 58 54 50 47 46 51 48 33 18 12 10 8
89 99 100 100 99 100 99 89 88 90 97 97 91 78 76 73 66 59 58 61 66 81 95 90 82 83 82 79 76 68 60 58 57 50 47 44 53 48 28 18 13 10 8 5
100 100 100 100 99 96 91 86 80 78 78 81 82 78 74 60 58 62 66 77 99 96 93 93 92 86 78 70 64 62 61 61 57 50 42 51 46 28 20 13 10 8 6 5
97 97 91 92 93 97 95 92 96 96 96 81 77 69 74 85 87 92 99 100 97 97 98 90 79 71 66 62 63 62 64 59 47 40 50 38 28 21 14 10 7 6 5 6
88 97 100 98 97 96 99 98 89 78 79 84 98 100 100 100 100 100 100 100 100 92 81 76 70 66 68 67 68 66 55 46 41 46 32 27 21 14 10 7 5 5 7 7
95 95 90 89 92 90 81 77 84 97 100 100 100 100 100 100 100 100 97 91 86 79 76 74 71 73 74 72 63 58 51 46 43 26 25 23 14 9 7 5 5 7 7 6
95 91 90 89 94 99 100 100 100 100 100 100 100 100 100 96 90 88 85 81 81 84 79 79 78 77 71 67 64 55 47 37 23 24 23 14 8 7 5 5 7 7 6 6
95 94 94 95 98 98 96 95 93 92 94 95 95 95 95 94 93 90 88 89 86 82 83 82 79 74 70 61 54 44 31 20 25 19 13 8 6 5 5 7 7 6 6 6
95 99 100 98 98 98 99 99 99 98 98 99 96 94 93 94 94 93 92 87 83 85 86 81 75 67 60 49 34 20 19 25 19 12 8 6 5 4 7 7 6 6 6 8
100 99 98 98 96 95 95 93 90 89 92 95 98 99 98 97 95 91 87 89 92 88 80 71 66 58 44 28 19 21 22 18 11 7 5 4 4 7 7 6 6 6 8 10

GFSNGP_250_rhum_036.txt.gz
RH
100 90 99 100 98 81 68 27 26 13 8 7 8 24 52 50 59 70 75 89 85 49 46 50 55 62 83 71 56 79 100 100 89 68 58 52 52 55 63 63 60 61 60 63
100 100 100 100 100 93 78 90 63 67 59 21 29 46 47 60 81 91 87 70 52 39 48 50 63 60 73 76 93 100 100 96 80 65 58 59 61 64 62 61 61 64 69 64
100 100 100 100 100 100 100 100 98 72 52 49 45 43 48 67 75 78 69 56 41 42 45 49 59 68 85 100 100 100 100 96 86 77 73 71 67 64 62 60 72 73 60 50
100 100 100 100 100 100 100 100 99 79 79 77 69 74 79 72 82 65 57 42 41 45 52 74 75 92 100 100 100 100 100 98 91 86 78 72 65 61 69 76 72 59 51 42
98 100 100 100 100 100 100 100 100 100 96 100 100 100 83 85 81 60 45 46 51 60 86 83 95 98 100 100 100 100 100 94 89 83 78 76 78 80 73 66 58 49 46 36
84 100 100 100 100 100 100 100 98 100 100 100 100 100 89 81 58 56 57 58 62 78 93 100 97 100 100 100 100 99 100 97 93 90 88 81 71 70 67 53 52 45 32 25
100 100 100 100 100 100 100 100 94 96 100 100 87 91 91 74 64 64 66 72 90 99 98 97 100 100 100 100 100 98 100 99 93 83 72 72 74 59 55 55 34 28 30 30
100 100 100 100 100 100 100 100 100 89 100 88 89 100 83 63 66 69 81 99 100 100 100 100 100 100 100 100 100 98 93 81 78 79 72 62 61 54 37 31 31 33 33 49
100 100 100 100 100 100 100 100 100 80 99 86 89 92 60 58 63 85 100 100 100 100 100 100 100 100 100 96 87 79 81 77 70 65 70 56 38 34 35 38 34 38 54 39
100 100 100 100 100 100 100 100 85 70 84 90 61 55 54 59 78 95 100 100 100 100 100 100 97 93 85 84 82 76 71 74 79 54 41 38 40 42 34 37 57 51 41 44
100 100 100 100 98 100 86 83 72 59 53 56 51 50 56 67 87 96 99 100 100 100 99 94 94 93 86 84 83 85 79 54 44 44 48 46 38 35 51 59 48 44 46 53
84 92 91 92 100 100 94 69 59 61 52 51 52 52 52 61 80 94 100 99 99 98 98 96 91 89 89 85 70 50 44 54 58 51 44 36 40 61 57 48 42 47 51 50
66 62 64 68 72 87 90 90 80 62 59 53 50 52 55 57 74 89 94 94 95 95 93 90 88 78 59 49 54 65 62 57 49 40 39 53 65 62 52 46 47 50 49 47
62 60 60 57 60 64 67 77 84 85 76 64 56 52 54 60 67 72 76 76 77 74 64 53 50 63 70 66 68 62 51 43 40 46 66 72 60 48 52 57 56 54 50 43
67 62 64 56 57 62 64 63 62 59 55 52 49 49 48 49 50 51 50 50 52 63 77 80 76 74 67 59 51 43 44 55 61 73 71 54 53 58 54 49 48 47 43 50
95 84 75 78 73 66 62 58 65 68 71 80 84 80 78 77 81 87 90 85 84 88 84 71 64 57 50 46 50 59 67 79 76 62 56 59 56 49 48 48 45 42 47 32
100 100 100 99 99 100 100 100 100 100 100 100 100 100 98 92 91 95 95 86 74 65 56 53 53 51 52 56 64 85 82 72 68 64 62 54 50 52 49 43 40 46 28 13
100 100 100 100 100 100 100 100 100 100 95 91 94 95 91 86 77 70 66 59 54 54 57 58 55 58 65 81 86 76 76 74 68 60 54 53 53 47 41 39 40 24 13 10
99 98 90 96 98 99 93 93 98 97 98 97 88 84 83 82 78 71 63 57 60 67 66 68 74 84 90 83 83 87 79 68 61 57 55 52 46 41 41 35 21 12 10 8
94 97 100 100 100 100 100 100 100 100 94 90 96 96 84 70 64 60 70 81 92 91 86 88 92 92 92 94 86 73 68 67 60 58 53 46 41 41 31 21 12 9 7 5
100 96 89 85 90 91 91 95 98 99 96 87 78 70 75 73 74 84 93 95 89 88 92 98 98 94 87 80 74 74 72 65 58 53 47 42 37 31 22 13 8 7 5 4
81 88 93 97 94 88 93 87 78 71 71 77 79 85 93 91 88 90 90 92 98 100 98 93 87 80 77 79 80 74 65 59 54 48 42 32 27 23 13 8 6 5 5 6
100 100 100 100 100 98 96 87 78 82 86 93 100 100 94 90 92 96 100 100 99 95 90 86 83 85 86 80 74 66 62 56 49 37 26 25 21 13 9 6 5 4 7 8
100 100 96 94 100 89 79 82 93 99 99 97 95 95 96 98 99 100 100 98 95 95 93 90 89 87 85 77 68 64 58 47 33 23 22 20 12 8 6 5 5 7 8 7
95 86 86 94 100 100 100 99 98 97 97 96 96 99 100 100 100 100 99 100 96 93 92 90 90 87 80 75 65 56 44 31 23 22 19 12 8 7 5 5 7 8 8 6
92 89 90 93 94 95 95 97 97 94 91 90 94 99 100 100 100 100 99 94 94 96 95 91 86 83 71 57 49 41 31 23 19 17 11 8 6 6 5 7 8 8 6 7
100 100 95 94 97 100 98 95 92 93 98 100 97 98 100 100 98 94 97 98 96 96 90 83 75 61 54 46 37 32 20 18 15 10 7 6 5 5 7 8 8 6 7 10

GFSNGP_250_rhum_039.txt.gz
RH
70 75 100 90 99 100 95 50 21 9 6 6 8 6 5 5 18 36 59 50 70 75 99 86 77 79 58 53 66 63 77 79 74 73 77 88 92 98 100 95 79 66 61 62
59 84 100 93 100 100 91 91 76 36 16 9 13 14 9 8 19 40 58 52 58 72 95 90 79 79 56 49 60 60 88 89 80 83 98 95 95 92 91 89 84 82 81 79
69 94 100 93 90 100 88 95 99 88 66 40 32 28 18 17 36 60 64 70 84 84 91 92 88 76 47 48 58 76 97 87 88 100 100 95 91 96 96 100 97 92 84 80
91 100 98 100 100 95 100 96 98 100 92 81 80 76 74 87 98 100 98 96 86 88 90 88 85 67 44 51 60 72 99 100 100 100 99 98 99 99 100 98 87 83 80 73
96 100 100 98 79 100 92 100 99 87 97 100 95 87 93 100 100 100 100 97 87 83 79 77 75 53 45 55 65 90 100 100 99 100 100 100 100 98 91 90 84 78 79 68
84 100 100 100 100 100 85 96 100 100 100 84 97 100 98 100 100 89 78 97 89 83 73 61 47 47 56 67 92 100 100 100 100 100 100 100 93 91 87 83 85 80 61 54
100 100 100 100 100 100 100 94 96 100 100 100 100 99 100 100 100 100 100 99 83 64 52 48 52 60 70 100 100 100 100 100 100 100 97 93 91 91 91 81 70 61 56 42
100 100 100 100 100 100 100 100 100 100 100 100 100 100 100 100 98 100 96 88 72 62 59 61 66 89 100 100 100 100 100 100 99 94 94 94 94 85 75 66 58 52 39 40
100 100 100 100 100 100 100 100 100 100 100 100 100 100 100 91 81 73 72 69 68 69 72 90 100 100 100 100 100 100 100 100 99 98 96 90 78 72 63 58 43 36 45 37
96 100 100 100 100 100 100 100 100 100 100 100 100 100 100 98 91 79 83 75 79 96 100 100 100 100 100 100 100 100 100 99 97 95 84 78 70 64 49 37 43 42 34 44
87 91 88 95 96 92 99 98 98 98 100 100 97 76 86 79 89 89 86 88 100 100 100 100 100 100 100 99 100 100 99 96 90 85 78 69 54 40 43 43 38 38 62 66
81 88 93 92 93 97 100 97 96 79 80 75 79 81 78 80 84 85 89 98 100 100 100 100 100 100 99 100 98 95 94 88 78 69 52 45 48 45 40 48 62 69 57 48
92 95 97 96 96 100 100 100 100 98 84 82 90 95 89 85 79 78 82 93 98 99 96 96 100 100 98 95 90 82 74 63 51 53 53 47 40 52 69 70 59 52 53 48
80 83 83 82 86 97 100 100 99 100 100 99 95 82 73 70 64 60 60 67 76 83 89 90 87 83 77 71 64 60 59 62 56 49 40 43 64 83 80 72 80 65 52 46
72 70 76 75 79 86 88 95 99 98 99 98 88 84 79 75 74 72 69 68 69 69 68 64 63 64 68 67 68 66 57 49 44 45 59 78 86 79 79 72 60 51 44 41
96 92 95 88 85 72 69 77 82 89 95 100 100 98 92 85 79 76 73 72 73 74 80 81 80 79 70 58 50 46 45 49 61 81 92 86 87 82 69 59 49 43 39 39
100 98 100 100 100 100 100 100 100 100 100 100 100 98 96 88 82 86 94 93 88 86 76 68 66 57 50 47 50 60 78 93 96 93 88 88 75 65 56 49 42 38 35 22
95 95 100 99 97 97 100 100 96 92 88 94 94 94 96 98 99 99 90 83 75 70 67 60 58 57 64 84 96 96 95 98 95 88 77 66 60 54 47 40 38 34 21 14
100 100 100 100 100 99 99 96 95 98 99 100 100 100 100 100 100 88 84 78 73 71 69 72 75 91 96 98 98 100 100 91 80 70 63 60 55 48 41 36 30 18 13 12
100 100 100 100 100 100 100 100 100 100 100 100 100 100 97 93 82 81 82 74 73 85 78 85 96 100 100 100 100 95 84 75 67 64 62 57 50 41 32 24 16 12 11 9
81 85 88 90 90 96 100 100 100 100 99 89 87 87 86 85 82 70 74 79 91 87 97 100 100 99 96 93 88 80 73 68 69 67 63 55 42 31 22 15 11 10 8 6
95 98 95 98 100 100 97 96 90 87 88 84 76 78 80 78 77 80 89 99 100 100 100 100 94 90 90 84 79 76 73 72 69 63 53 40 29 20 14 12 10 7 6 5
97 98 98 100 100 100 100 99 99 100 100 91 87 84 79 86 95 97 95 100 100 100 94 88 87 87 85 83 80 80 75 68 57 51 37 26 17 13 13 9 7 5 5 6
100 100 98 95 96 94 94 100 100 99 98 91 84 82 86 88 92 98 99 100 100 95 90 88 89 92 88 85 81 69 61 55 47 32 23 16 13 11 8 6 5 5 6 8
98 90 87 84 88 94 92 91 84 87 95 98 97 99 100 100 100 97 96 93 89 87 91 95 94 88 86 77 64 54 51 43 32 23 14 12 10 8 7 5 5 6 8 8
100 99 97 93 93 96 99 98 98 97 97 96 97 95 93 93 92 90 91 93 98 98 94 92 94 89 74 62 56 51 43 36 23 13 11 9 8 7 6 5 7 9 8 7
100 100 100 100 100 97 96 97 95 94 94 91 90 91 89 90 93 94 98 99 98 98 95 90 83 73 66 59 49 42 37 26 16 12 10 8 7 6 5 7 9 9 7 8

GFSNGP_250_rhum_042.txt.gz
RH
68 80 69 61 60 98 98 85 63 31 13 10 8 6 3 3 3 4 12 27 25 47 90 99 81 88 83 72 85 100 89 72 59 73 71 75 80 87 90 94 92 92 94 91
80 85 71 56 100 90 100 93 76 56 25 11 9 6 5 4 4 8 28 38 43 78 98 78 79 83 83 76 84 92 88 75 58 66 68 76 84 91 97 99 100 100 99 92
85 64 59 82 99 100 100 96 91 59 49 25 13 10 9 8 12 36 53 60 69 83 81 76 82 85 88 89 96 99 94 83 64 61 63 68 81 94 100 100 100 100 99 90
76 95 99 73 92 100 100 100 88 84 70 69 76 78 72 56 61 80 83 88 82 90 91 97 100 100 100 100 100 100 98 81 58 57 63 68 86 98 100 100 100 99 88 77
73 100 100 100 100 99 100 100 87 96 93 91 100 100 100 100 100 100 100 100 100 100 100 99 100 100 98 99 95 92 89 74 52 59 65 76 99 100 100 100 94 93 86 84
79 100 100 100 100 100 100 100 100 92 98 100 87 100 100 100 100 100 100 100 100 100 100 100 93 100 100 99 89 89 84 63 56 63 71 90 100 100 96 99 100 94 79 70
85 77 100 100 100 100 100 85 100 100 93 100 100 100 90 100 100 88 91 100 100 99 99 97 93 92 91 93 90 81 58 58 66 74 92 100 100 100 100 98 87 74 75 78
76 76 100 100 100 81 100 93 88 100 100 87 100 100 100 100 100 99 95 90 94 97 94 92 90 88 75 62 57 61 65 75 95 100 100 100 100 99 88 85 84 83 89 87
86 100 100 100 100 99 97 100 99 95 100 100 100 100 100 100 100 98 100 100 96 92 83 82 81 80 73 73 74 86 99 100 100 100 100 98 94 96 90 88 87 90 84 71
91 100 100 99 90 98 96 99 100 94 100 100 100 100 100 100 100 100 100 100 100 98 90 88 87 88 93 100 100 100 100 100 100 99 99 100 93 90 88 89 87 71 59 49
98 85 100 93 84 100 98 99 100 100 95 99 100 100 100 100 100 99 100 100 100 100 100 100 100 100 100 100 100 100 100 100 100 100 97 95 94 90 85 70 61 53 52 42
83 77 83 82 81 91 100 98 96 100 100 95 87 93 82 87 90 88 96 100 100 100 100 100 100 100 100 100 100 100 100 100 100 100 98 89 78 66 60 56 52 45 47 68
78 79 82 83 82 89 100 100 98 99 100 100 96 99 100 100 100 100 100 100 100 100 100 100 100 100 100 100 100 100 100 98 92 84 70 63 61 57 47 44 53 71 83 79
99 100 100 97 91 96 89 94 92 98 98 99 100 100 100 100 100 100 99 100 100 100 100 100 100 100 98 96 94 91 86 76 67 65 62 52 44 49 67 82 90 83 72 64
100 99 97 91 87 85 90 92 90 97 96 96 98 100 100 100 100 100 100 100 100 100 99 91 87 86 83 81 81 77 70 64 55 47 49 68 85 92 93 94 88 74 62 54
99 99 100 92 87 75 81 86 90 95 98 99 100 100 100 100 100 100 100 100 100 100 96 94 91 86 81 71 65 56 48 48 63 83 92 92 95 95 89 79 66 56 47 40
100 100 100 100 100 100 100 100 83 90 100 100 100 100 100 100 100 100 100 100 100 99 97 90 78 70 63 60 55 55 71 87 88 93 96 91 91 83 71 60 51 43 36 30
100 100 100 100 94 92 90 97 100 90 87 86 95 96 98 100 100 99 99 98 98 91 82 74 72 65 63 68 77 88 88 88 93 93 90 86 76 64 55 48 42 34 26 20
97 92 98 100 99 98 98 100 100 100 99 97 99 100 100 100 98 95 95 88 84 83 74 70 64 86 89 90 91 89 90 94 93 89 79 68 60 53 46 39 31 24 19 16
100 98 100 100 100 100 100 100 100 100 99 99 96 94 92 91 90 87 82 78 77 79 72 70 90 95 96 95 96 97 97 91 81 70 65 61 53 46 39 29 21 16 13 11
100 100 100 100 98 99 100 98 92 89 91 97 100 97 93 90 84 81 79 80 76 74 78 96 97 96 97 98 99 92 84 75 69 66 62 54 45 37 27 19 17 13 10 7
100 100 100 99 94 90 88 88 87 92 94 92 82 84 95 100 100 95 87 80 78 84 94 96 98 99 100 94 85 79 74 69 69 64 54 46 35 23 17 16 12 9 7 6
97 94 93 96 97 98 100 100 99 94 87 84 86 98 100 100 100 100 99 97 97 99 100 100 100 96 86 81 79 74 72 71 62 55 46 36 22 16 15 12 8 6 6 5
96 92 94 94 98 99 97 89 83 81 81 86 99 100 100 100 100 100 100 100 100 100 97 91 84 81 79 76 77 78 68 61 53 46 37 21 15 14 11 8 6 6 5 7
100 100 100 99 97 97 98 100 98 96 96 100 100 100 100 100 100 100 100 97 93 91 87 83 82 78 79 81 72 66 59 50 47 40 23 13 12 10 8 6 6 6 8 9
99 97 97 96 93 95 97 97 99 99 100 100 100 100 100 100 99 96 92 90 90 86 83 83 81 82 76 67 62 57 53 53 45 24 13 11 11 8 7 6 6 8 9 9
100 100 100 100 99 100 100 98 99 97 95 100 100 96 93 89 89 89 88 85 86 86 81 79 76 71 66 60 56 55 59 50 30 15 12 12 9 7 7 6 9 10 9 10

GFSNGP_250_rhum_045.txt.gz
RH
98 100 86 77 58 68 85 91 91 100 81 37 17 13 10 6 3 3 3 2 3 4 8 18 34 38 44 76 95 100 97 81 97 90 96 88 77 60 64 83 85 80 77 79
98 73 59 54 76 79 84 100 100 100 63 52 24 10 7 5 4 4 4 4 6 11 21 30 38 46 82 100 100 100 86 96 98 100 90 95 88 80 75 71 80 82 80 79
76 54 60 69 70 74 81 100 100 98 72 63 35 35 14 8 7 7 10 13 18 30 38 40 55 91 100 100 100 89 97 100 95 86 91 99 92 86 78 65 70 75 81 82
64 68 80 74 96 89 83 100 100 96 77 96 90 93 96 70 54 50 48 44 41 42 67 97 100 100 100 100 100 100 100 99 92 97 97 99 98 93 79 66 66 71 74 76
64 79 100 100 100 98 73 100 96 96 79 94 100 100 100 100 96 82 66 68 80 99 100 100 100 100 100 100 100 100 100 100 100 100 100 94 93 88 80 65 66 68 71 79
67 66 100 100 80 63 80 92 99 100 89 91 100 100 100 100 100 100 100 100 100 100 100 100 100 100 100 100 99 100 100 100 96 90 97 93 96 92 66 65 68 73 82 98
94 75 91 99 81 76 72 72 91 100 100 94 100 100 85 97 100 100 100 100 100 100 100 100 100 99 100 98 99 100 99 91 90 87 91 97 74 70 74 83 90 98 100 100
79 76 72 81 100 100 78 86 71 99 100 100 100 100 100 98 100 100 100 100 100 100 99 99 99 97 98 97 96 90 90 94 93 83 77 83 92 99 100 100 100 100 99 93
62 71 70 89 100 100 86 92 73 91 94 100 100 100 100 100 100 100 100 100 95 96 100 100 98 99 100 98 90 81 78 84 94 99 100 100 100 100 100 100 100 100 100 100
66 66 80 92 99 100 89 99 98 80 92 99 100 100 100 100 100 100 100 100 84 97 97 94 86 88 86 99 100 100 100 100 100 100 100 100 100 100 100 100 100 100 100 94
70 70 75 78 83 82 100 93 100 98 90 98 83 89 97 92 90 94 97 100 100 100 100 100 100 100 100 100 100 100 100 100 100 100 100 100 100 100 100 100 97 91 84 68
74 80 65 60 69 82 92 100 100 98 98 97 95 99 92 98 100 100 100 100 100 100 100 100 100 100 100 100 100 100 100 100 100 100 100 100 100 100 94 90 81 64 51 50
95 68 58 70 74 80 96 97 100 98 92 92 95 96 94 96 100 100 100 100 100 100 100 100 100 100 100 100 100 100 100 100 100 100 100 100 96 86 78 58 48 52 71 83
84 74 85 92 91 96 94 97 94 100 100 100 99 100 100 100 100 100 100 100 100 100 100 100 100 100 100 100 100 100 100 100 100 98 88 79 67 53 47 59 80 81 80 82
86 100 95 97 98 98 93 91 91 99 99 100 100 100 100 98 100 100 99 100 100 99 97 97 99 100 100 100 100 100 100 92 80 72 61 50 53 71 84 84 86 84 79 68
100 99 100 100 100 97 86 96 99 96 93 97 98 94 92 90 88 94 100 100 100 99 100 100 100 100 100 100 98 87 77 68 55 51 68 83 86 87 89 83 78 71 59 49
100 100 100 100 100 98 95 95 99 100 100 100 100 96 92 80 74 77 85 97 100 100 100 100 100 100 98 87 82 69 64 58 76 93 87 86 90 84 78 71 60 52 44 35
98 100 100 100 100 100 96 92 99 94 98 95 89 90 94 99 99 100 100 100 100 100 100 100 96 88 83 77 73 65 63 73 86 86 88 88 80 72 62 57 50 40 31 24
95 97 98 100 99 99 100 100 99 96 99 100 100 100 96 95 100 100 99 100 100 100 94 84 77 75 68 67 62 65 85 91 90 88 81 71 65 60 55 49 40 29 22 20
98 98 95 88 96 100 100 100 100 100 100 100 100 100 100 100 97 93 89 88 86 77 74 70 64 59 60 67 79 94 92 88 83 76 68 62 58 54 48 39 28 20 21 14
92 95 90 84 83 93 94 94 98 98 98 98 96 86 82 87 84 75 83 84 91 100 100 100 98 96 95 94 88 88 86 82 70 63 59 58 55 48 37 26 20 22 16 11
83 86 89 87 85 91 97 95 90 96 100 96 88 92 96 85 83 83 89 88 100 100 100 95 88 89 92 92 88 81 69 64 62 59 57 54 46 37 26 19 21 15 10 7
100 100 100 100 99 100 100 100 100 96 97 96 90 89 82 79 89 90 88 93 100 100 99 100 100 93 88 83 76 70 67 64 59 58 52 47 39 30 16 19 15 8 7 6
100 100 100 100 100 100 100 100 100 100 100 100 88 84 89 90 92 93 94 98 100 100 100 99 92 86 81 80 73 68 64 57 60 56 50 41 32 16 17 13 8 7 7 7
100 100 100 100 100 100 100 98 96 93 91 91 98 100 100 100 95 93 100 100 100 100 100 93 86 84 81 74 71 64 60 60 58 51 48 34 18 15 13 8 7 7 7 10
95 97 98 94 91 89 88 90 94 97 98 97 95 97 99 98 98 100 100 99 95 91 88 89 86 78 73 68 65 63 60 60 52 50 38 22 14 12 8 8 8 8 10 10
100 100 100 100 100 99 98 99 96 96 100 100 100 99 99 98 99 99 95 95 96 90 88 86 80 72 68 66 66 61 61 57 48 38 26 14 12 10 9 10 9 12 12 11

GFSNGP_250_rhum_048.txt.gz
RH
100 100 84 85 83 85 70 72 73 98 62 92 84 58 50 16 8 6 5 3 3 3 5 6 9 14 18 26 34 30 42 51 64 78 98 100 100 100 98 98 100 97 96 80
91 90 82 91 82 65 72 71 90 80 94 82 81 82 66 32 16 9 5 4 4 4 6 6 7 13 27 30 30 40 52 64 90 100 100 100 100 98 100 99 100 99 100 100
79 89 96 68 74 64 78 96 100 86 86 78 100 100 90 68 48 29 19 15 9 7 12 16 30 27 29 40 55 62 73 95 100 100 100 100 100 98 96 100 100 98 98 93
96 99 66 64 63 62 78 98 98 100 93 85 100 100 100 100 87 62 53 49 40 35 38 50 56 62 68 68 75 95 100 100 100 100 100 100 100 100 100 100 100 95 96 89
95 78 70 100 91 58 65 85 100 88 91 75 98 90 100 100 100 100 99 96 88 86 84 88 86 80 97 100 100 100 100 100 100 100 100 100 100 100 100 91 95 92 87 86
84 58 75 100 80 61 64 90 89 96 94 79 100 83 92 100 100 100 100 100 100 100 100 100 100 100 100 100 100 100 100 100 100 100 100 100 97 90 94 96 92 88 84 87
80 60 97 76 72 68 77 95 98 89 100 100 98 95 97 95 78 87 98 95 100 100 100 100 95 98 100 100 100 100 100 100 100 100 70 71 91 92 94 87 81 91 100 100
83 68 77 62 73 97 100 81 100 96 97 87 95 100 100 100 81 86 100 100 100 100 100 100 100 100 100 100 98 100 100 100 100 100 100 99 99 91 88 98 100 100 100 100
80 69 78 73 70 93 100 73 100 97 89 84 96 90 92 99 100 100 90 69 76 93 100 100 100 100 100 100 100 100 100 100 100 100 96 93 100 100 100 100 100 100 100 100
77 65 66 74 79 81 95 92 100 100 88 77 94 100 100 95 93 94 100 100 92 91 97 90 86 90 95 97 95 93 90 88 94 100 100 100 100 100 100 100 100 100 98 89
85 78 70 60 57 66 79 97 100 100 99 77 84 97 100 90 96 98 100 100 100 100 88 90 94 93 88 88 94 99 99 100 100 100 100 100 100 100 100 100 99 92 85 82
93 83 68 56 58 59 71 82 100 100 89 96 85 86 100 99 94 90 98 100 100 100 96 100 100 100 100 100 100 100 100 100 100 100 100 100 100 100 98 92 87 86 77 63
84 77 64 62 57 72 77 90 100 99 92 96 97 95 100 100 100 100 100 100 100 100 100 100 100 100 100 100 100 100 100 100 100 100 100 100 98 95 96 83 70 60 69 79
94 100 92 68 80 78 84 94 100 100 99 99 95 92 94 95 96 97 99 100 100 100 100 100 100 100 100 100 100 100 100 100 100 100 100 97 89 77 68 58 74 89 89 81
100 100 91 90 99 91 88 92 89 98 100 99 96 92 93 96 94 95 94 96 100 100 100 99 99 100 100 100 100 100 100 100 100 100 92 82 74 62 61 85 90 83 72 62
100 100 86 100 100 100 91 89 93 100 98 99 100 98 95 88 85 84 82 85 89 88 92 94 94 98 100 100 100 100 100 98 95 87 77 66 63 74 90 81 72 63 57 52
90 92 100 99 100 100 93 92 99 97 92 94 98 98 98 96 99 100 98 93 95 100 100 100 100 100 100 100 94 86 86 81 77 68 67 71 85 84 76 68 59 54 48 43
90 86 100 98 99 99 90 94 95 87 81 89 90 95 99 99 100 99 99 100 100 100 100 100 100 96 90 85 85 82 74 73 73 77 87 84 75 70 60 59 54 47 41 33
76 93 100 99 96 94 99 98 94 98 97 96 98 100 100 100 100 100 100 100 100 100 99 93 91 100 99 98 100 100 97 91 84 77 73 68 65 62 60 53 43 38 30 22
98 100 100 98 100 100 97 100 100 100 99 100 100 99 100 98 99 100 100 100 100 88 82 92 95 98 98 99 98 90 83 84 80 75 71 69 64 57 48 43 36 27 22 20
100 100 100 95 92 96 91 86 86 82 83 93 96 94 95 98 100 100 100 92 85 81 90 96 92 86 95 95 90 86 90 82 76 73 71 62 57 50 47 37 27 19 20 11
100 100 100 95 86 84 82 81 81 87 87 89 94 96 100 100 100 99 94 95 80 83 96 90 88 92 93 94 94 93 90 82 75 73 67 59 51 50 39 30 18 18 11 8
95 95 98 98 95 97 95 100 100 100 100 100 100 100 100 99 99 99 97 87 93 99 94 91 92 92 98 98 95 92 82 77 75 68 60 53 52 45 38 18 19 13 9 8
99 100 100 100 100 100 100 100 100 100 100 100 100 100 100 100 100 99 95 100 100 98 95 95 94 97 99 98 91 85 79 75 66 60 53 53 52 45 24 16 16 10 9 8
100 100 100 96 96 99 100 100 100 100 100 100 100 100 100 100 98 98 100 100 99 100 100 98 99 99 100 92 87 80 74 66 58 54 56 55 50 33 14 19 13 11 10 10
100 100 100 100 100 100 100 98 98 100 100 100 99 99 100 99 100 100 100 100 99 100 100 99 100 97 90 89 82 73 68 60 57 59 55 55 42 17 17 17 12 12 11 12
100 100 100 100 100 100 100 100 100 100 100 100 100 100 100 100 100 100 100 100 100 100 100 99 93 86 86 80 74 69 61 60 62 57 58 46 27 12 20 14 12 12 13 14

GFSNGP_250_rhum_054.txt.gz
RH
92 95 95 100 100 91 86 100 86 81 95 89 80 71 68 57 52 54 59 61 44 23 16 7 5 3 3 4 5 5 7 10 13 20 28 40 53 63 66 62 64 65 68 79
100 100 99 99 89 78 83 99 88 82 86 74 63 52 54 61 82 89 79 68 55 25 15 9 4 4 4 4 4 4 6 9 11 14 18 39 52 76 80 71 63 56 75 100
85 74 70 83 92 98 95 96 83 74 61 56 50 60 71 73 85 99 79 67 68 46 30 14 8 8 9 9 9 10 13 16 18 22 36 70 91 100 94 73 70 86 100 100
66 76 98 99 97 97 91 79 72 69 62 52 65 69 78 74 100 100 86 82 81 70 53 38 25 24 28 28 17 29 27 28 40 54 84 100 99 98 97 100 100 98 100 100
84 89 95 88 93 88 75 84 76 63 56 56 62 70 66 81 100 100 68 67 94 80 76 73 60 58 59 62 69 66 67 70 74 94 100 100 100 100 100 100 100 100 100 100
85 88 93 79 74 98 85 69 67 62 65 62 70 85 95 71 100 100 75 65 84 95 90 94 96 82 91 90 100 100 100 100 100 100 100 100 100 100 100 100 100 100 97 88
74 80 78 72 95 93 75 79 80 88 75 76 84 100 96 72 100 100 100 82 79 75 77 98 100 95 88 100 100 100 100 100 100 100 100 100 100 100 100 99 91 94 88 78
75 86 85 84 99 78 73 79 89 100 77 75 90 95 96 90 86 97 97 100 79 75 89 69 72 99 100 58 71 95 100 100 100 100 98 82 92 89 76 69 68 65 68 67
77 78 93 88 90 74 76 84 92 97 100 85 98 98 88 98 83 100 100 100 89 89 80 74 88 67 68 77 73 69 71 79 81 79 81 86 78 75 77 89 90 86 100 100
74 71 86 86 98 76 59 74 85 88 97 100 74 95 97 100 85 82 92 98 92 84 100 85 64 67 66 70 72 74 79 79 87 91 89 88 91 97 100 100 100 100 100 100
70 70 91 100 92 88 70 60 75 78 84 96 87 83 92 96 92 92 96 92 97 87 79 94 100 93 80 92 100 100 100 100 100 100 100 100 100 100 100 100 100 95 83 81
76 72 98 100 100 81 69 62 62 65 80 81 78 71 90 75 82 87 95 98 98 94 94 93 97 100 100 100 100 100 100 100 98 96 93 96 100 99 92 82 78 79 90 98
72 76 88 99 100 98 80 62 63 65 72 75 87 90 96 78 79 86 85 96 98 91 82 83 91 96 97 96 92 92 93 90 93 98 96 90 83 79 76 80 86 92 97 97
78 78 86 93 92 95 97 70 88 84 86 90 93 100 100 97 86 85 84 95 89 87 88 81 86 87 85 96 100 98 94 87 83 83 84 85 88 93 94 92 89 92 92 80
88 98 79 76 84 90 93 100 100 97 96 94 87 97 96 90 90 100 100 96 94 94 98 100 100 100 100 98 90 87 86 87 88 90 89 92 90 84 80 76 72 66 58 52
96 100 90 73 75 77 92 99 90 96 100 97 90 92 97 91 95 100 100 100 100 100 99 100 100 98 90 87 91 90 85 84 82 85 90 96 85 75 72 68 63 61 54 53
92 98 96 89 70 75 94 90 88 89 95 100 100 100 100 100 100 100 99 100 100 100 100 98 92 89 92 97 93 79 94 89 83 93 96 93 82 78 73 65 61 54 53 58
100 100 100 94 82 84 100 100 86 87 86 95 90 92 99 100 100 100 100 99 94 92 89 90 91 95 96 92 85 89 98 82 74 88 95 89 82 78 66 62 56 55 60 57
100 100 95 79 86 87 94 100 97 82 86 86 91 88 93 94 90 90 89 84 85 86 90 95 97 100 92 88 100 96 80 82 95 98 89 83 78 69 65 58 57 58 63 57
100 100 92 87 83 82 96 100 100 98 87 82 91 96 95 90 91 96 98 98 98 100 99 99 99 92 97 100 95 88 88 92 96 84 78 72 69 65 62 62 60 65 66 56
100 100 84 89 89 94 100 100 100 100 100 95 92 87 85 90 96 100 99 100 100 97 97 96 96 100 100 95 88 91 91 87 85 82 78 71 69 66 66 65 67 70 63 53
97 91 89 98 100 100 100 100 100 100 100 100 100 100 100 99 98 100 100 100 100 99 96 97 98 99 100 97 93 92 88 88 83 77 72 70 70 71 70 71 71 70 62 49
75 93 98 96 97 100 100 100 100 95 90 94 93 100 100 100 100 100 100 96 88 90 97 100 100 100 100 94 92 92 88 81 78 78 72 75 77 77 73 71 72 73 53 45
96 100 100 100 100 100 100 100 100 98 90 90 88 88 93 92 88 85 87 94 100 100 100 100 100 100 98 96 91 90 86 81 82 79 79 79 81 77 74 80 75 57 43 41
94 96 98 96 99 97 97 98 98 100 100 100 99 99 96 98 100 100 100 100 100 100 97 90 95 97 94 90 87 84 83 85 85 87 84 83 78 77 85 76 56 47 36 38
87 85 89 92 96 99 100 98 95 95 93 95 97 96 95 98 100 100 100 100 100 98 95 95 98 96 93 88 83 85 83 84 89 86 84 86 88 91 77 57 44 35 35 28
100 98 94 97 99 99 97 95 98 100 100 100 100 98 99 100 100 100 100 100 100 100 94 88 89 94 93 88 87 88 89 89 89 92 95 96 90 74 49 41 32 26 31 23

GFSNGP_250_rhum_057.txt.gz
RH
74 87 96 96 93 97 92 98 82 79 70 78 81 85 78 74 82 76 71 60 58 50 41 35 24 14 10 8 8 7 6 7 9 12 16 33 48 53 68 82 84 87 88 86
89 86 90 96 97 88 82 97 84 98 99 83 93 86 85 78 58 50 54 62 79 72 65 48 30 21 10 6 4 4 4 5 5 7 10 14 24 42 69 86 96 100 100 94
98 100 100 100 95 90 99 100 90 96 100 90 78 64 51 53 56 62 81 83 92 77 74 56 38 23 17 10 7 6 6 6 6 8 9 12 18 35 70 90 96 100 100 100
100 100 100 100 100 99 93 90 96 95 86 69 59 52 54 61 70 86 87 89 90 78 88 72 55 47 36 20 13 10 11 10 11 13 14 19 47 78 97 99 100 100 100 100
100 100 93 84 82 84 97 100 88 74 68 63 57 52 57 69 79 86 91 100 89 71 68 76 63 63 54 47 45 37 40 32 28 50 54 68 95 100 100 100 100 100 100 99
72 76 89 91 94 96 99 96 84 78 68 64 58 56 70 70 69 84 94 93 83 85 68 59 53 57 57 59 58 69 81 84 94 98 100 97 88 100 100 100 100 96 100 100
87 100 96 92 90 98 96 84 86 77 67 57 54 63 67 83 77 94 98 100 100 88 84 82 71 52 48 43 43 48 48 50 64 70 76 86 86 93 88 90 95 86 83 88
89 84 80 83 90 88 97 94 84 77 73 66 62 74 70 86 84 91 98 92 96 100 95 96 90 89 66 60 57 68 74 70 70 68 72 85 100 94 95 88 90 96 99 100
81 74 80 81 80 92 97 93 89 84 97 94 78 82 87 79 89 84 92 92 76 79 84 76 85 92 83 71 77 95 90 96 99 100 100 100 100 100 100 100 100 98 76 61
79 76 76 89 92 79 92 91 80 84 79 88 97 100 95 84 92 95 76 86 99 96 88 77 69 76 70 74 77 97 87 97 100 98 100 100 93 91 90 75 69 66 73 82
82 75 85 96 98 95 95 100 74 62 73 76 80 89 92 98 88 94 90 87 80 88 100 100 85 79 94 94 94 96 96 94 96 97 97 97 96 94 95 99 100 99 98 100
77 72 81 92 94 100 99 98 89 73 60 65 66 81 80 83 93 78 85 86 96 99 100 99 95 78 83 89 86 83 87 95 100 100 100 96 96 95 94 93 93 97 100 100
78 75 73 95 100 100 100 88 87 58 56 56 65 75 84 90 93 73 76 84 86 86 91 100 100 99 100 100 100 100 100 92 84 91 100 100 98 91 87 86 100 100 91 83
84 75 72 100 96 96 100 98 80 66 63 67 74 87 94 92 86 96 93 87 89 94 100 100 98 99 100 99 95 92 92 98 100 94 88 83 79 78 81 85 92 91 85 78
87 76 83 98 94 99 99 96 81 76 88 88 92 94 85 82 88 90 100 100 100 100 100 100 100 97 95 96 96 98 92 90 84 76 73 78 79 80 95 96 99 96 80 73
94 76 87 99 88 84 84 85 82 98 97 100 98 96 95 86 90 99 96 96 98 100 98 97 100 98 95 94 93 89 87 87 79 70 90 93 84 92 94 93 85 73 67 62
87 82 99 100 99 84 72 78 87 97 94 95 98 95 88 90 96 98 99 97 99 94 88 92 93 93 92 90 92 91 94 87 74 94 99 79 75 82 88 79 67 62 61 58
92 92 100 100 94 100 93 70 89 96 88 92 93 93 100 99 93 93 95 97 90 89 92 90 90 92 94 95 96 95 89 82 94 91 74 75 73 81 77 66 62 60 57 62
96 99 99 96 100 100 97 78 80 95 97 92 93 99 97 100 100 99 98 99 99 99 99 97 96 94 88 96 97 91 89 94 95 74 74 73 76 74 70 70 68 64 66 66
97 100 100 100 100 100 84 81 84 90 97 94 91 91 93 99 100 100 99 96 95 92 88 87 86 92 97 95 88 91 98 91 78 81 79 79 79 76 74 71 70 71 68 74
99 100 100 100 99 99 93 78 82 90 92 99 94 86 85 93 100 100 100 98 95 94 93 94 95 92 89 90 95 98 89 84 84 85 81 77 75 72 73 75 74 71 78 78
100 100 100 100 100 100 98 87 92 98 93 95 94 99 100 99 97 92 92 95 94 91 91 90 88 89 88 96 95 87 89 91 89 88 84 79 76 78 76 77 81 82 81 82
100 100 100 100 100 100 100 97 100 91 91 100 100 100 100 94 97 96 92 91 91 95 100 98 97 99 98 99 98 100 97 92 90 87 83 78 79 80 82 82 87 90 83 76
100 100 99 100 100 98 100 100 95 96 90 94 95 97 94 95 98 94 84 90 94 93 91 90 96 100 100 100 98 96 92 88 85 78 81 84 81 85 85 92 92 93 79 50
66 81 84 88 88 84 89 100 98 96 93 90 85 94 95 88 81 82 87 95 97 100 100 98 95 95 99 99 95 90 87 80 79 85 85 83 85 86 97 99 97 72 47 34
70 68 72 76 78 78 84 99 97 93 98 97 98 96 93 93 95 100 100 100 96 92 93 93 92 92 89 86 87 87 89 89 90 88 88 93 93 100 95 96 72 50 40 26
93 85 92 100 99 97 99 100 97 98 100 100 100 100 100 98 97 96 96 95 93 93 96 96 95 90 86 88 94 95 95 94 94 96 97 96 100 100 92 70 60 46 31 21

GFSNGP_250_rhum_060.txt.gz
RH
67 76 93 100 100 100 100 99 91 89 74 77 78 76 72 79 85 83 72 68 75 81 74 61 50 37 30 28 22 18 12 9 8 8 8 10 11 16 22 32 38 41 52 56
77 81 89 97 99 96 97 96 77 84 69 78 81 90 94 88 75 92 91 77 75 59 44 45 50 41 35 32 26 18 9 6 5 5 5 5 7 11 20 33 45 53 70 97
75 82 92 94 93 91 94 87 75 82 91 88 87 99 98 90 79 74 54 50 54 48 62 61 72 60 44 38 29 26 13 8 7 6 5 6 8 11 22 34 48 60 78 91
75 79 85 89 87 86 86 84 86 93 97 96 94 86 86 73 53 52 51 57 66 68 65 94 81 73 54 54 44 37 26 19 12 8 7 10 17 27 38 47 62 78 92 98
91 96 97 92 90 99 100 99 100 98 96 89 88 78 59 51 54 59 66 94 89 83 76 76 85 82 68 57 55 47 51 36 25 20 25 30 47 63 81 83 83 97 100 100
100 100 96 94 96 99 96 90 85 96 100 87 70 57 58 64 61 70 76 67 88 95 72 72 85 85 85 63 67 60 51 50 52 62 67 75 77 67 93 100 100 100 100 99
96 96 94 86 82 81 92 100 100 97 84 72 58 61 65 67 67 76 74 68 82 79 84 93 84 76 71 80 71 70 81 80 76 65 60 55 59 57 56 56 59 72 69 64
79 75 71 76 86 95 99 92 92 86 83 71 66 63 61 62 66 78 84 88 77 74 86 87 94 78 64 68 79 76 62 64 80 86 76 68 70 76 83 89 95 95 98 100
67 73 85 98 98 98 96 97 84 87 96 80 70 67 69 76 84 80 86 76 69 62 66 71 76 70 68 64 72 80 87 82 84 85 95 96 95 96 98 98 100 99 99 100
83 88 90 91 92 94 92 92 80 95 99 86 80 76 94 96 90 100 97 91 79 73 78 89 93 94 83 82 82 85 91 94 100 100 100 96 97 100 100 100 100 100 100 100
80 88 89 92 92 95 94 92 87 89 97 96 81 74 79 79 84 94 99 89 78 96 91 93 95 95 77 79 87 89 86 86 91 93 99 100 100 100 100 100 100 99 98 98
97 94 86 80 76 74 94 100 99 100 93 77 67 60 66 66 78 83 93 90 77 81 96 97 99 98 95 94 87 91 99 96 100 100 100 100 98 93 96 93 90 93 100 100
98 89 88 84 89 100 100 100 100 99 92 73 60 58 60 67 83 82 98 92 75 80 89 98 100 100 98 100 100 100 100 100 99 99 100 94 91 94 85 75 68 69 75 83
97 91 93 90 91 97 98 100 100 98 86 68 58 62 66 79 82 84 93 93 95 94 96 100 99 99 100 100 99 95 95 99 100 95 88 84 77 68 73 83 76 79 92 92
99 96 99 92 86 95 96 100 95 94 89 73 66 77 87 97 99 94 95 99 99 100 98 96 97 96 98 98 99 99 100 100 94 84 81 80 71 79 82 78 72 74 79 79
100 97 100 97 87 88 88 87 95 99 83 68 98 99 100 99 100 100 98 92 87 92 91 94 95 92 93 94 94 96 97 89 84 81 82 78 77 87 82 75 72 73 77 76
97 93 94 99 91 91 91 87 92 90 79 86 94 96 100 100 100 100 100 100 100 100 94 97 100 94 92 94 96 97 94 90 83 89 88 82 83 84 84 72 73 75 76 71
90 99 100 99 91 91 84 94 92 82 78 85 90 98 98 100 100 100 100 100 100 100 100 100 100 100 100 98 98 97 90 85 91 90 85 81 85 87 84 78 82 76 75 76
90 97 100 100 96 95 91 95 100 99 86 77 94 93 94 99 100 100 100 100 100 100 100 99 99 97 95 93 90 85 88 94 98 95 91 89 95 90 81 82 81 82 78 72
87 89 98 100 100 100 99 96 99 98 97 76 80 96 92 92 93 100 100 100 100 100 100 100 100 98 94 90 86 90 99 99 98 96 93 99 95 83 82 85 84 79 73 78
91 96 98 100 100 100 100 100 100 100 98 85 89 89 88 98 97 100 98 100 100 100 100 100 94 85 81 86 96 100 100 100 100 99 100 97 86 82 82 83 77 76 84 87
96 100 100 100 100 100 98 97 99 100 100 96 88 86 90 96 94 97 100 100 100 100 99 90 81 82 92 99 100 100 99 100 100 95 90 83 79 80 80 78 86 84 94 94
99 100 100 100 100 100 100 98 100 100 100 100 99 94 96 98 100 96 87 89 93 90 86 85 84 93 95 96 96 95 100 100 97 84 77 76 77 76 80 86 84 94 96 86
100 100 100 100 100 100 99 100 100 100 100 100 100 100 100 92 90 94 94 85 95 99 92 92 99 100 93 90 96 99 98 84 80 79 77 73 72 83 82 83 90 95 84 60
98 100 100 100 100 97 100 99 95 94 94 98 100 100 100 94 85 89 95 92 97 100 100 97 95 90 93 98 95 79 78 82 84 79 74 78 83 83 88 87 88 78 53 60
53 80 96 97 99 96 92 96 100 100 100 96 98 94 96 96 91 89 97 97 97 98 97 95 96 98 99 89 82 83 84 88 86 86 88 85 80 88 91 90 75 70 75 73
75 61 57 63 65 70 73 70 70 76 83 88 95 97 94 95 95 96 95 95 95 100 100 100 96 92 94 93 88 84 87 92 95 94 90 84 90 76 82 78 82 90 83 66

GFSNGP_250_rhum_063.txt.gz
RH
56 77 95 100 100 100 97 94 91 96 96 100 95 87 80 84 78 70 77 80 76 73 72 75 69 57 58 62 52 43 40 34 28 23 21 17 16 15 13 13 14 15 18 24
60 71 95 100 100 100 100 100 93 87 77 88 85 83 91 93 76 80 80 83 78 81 78 66 55 73 53 48 43 40 28 25 18 14 9 10 9 9 8 8 8 10 14 22
76 82 84 89 98 97 90 83 80 81 92 94 99 92 87 79 80 78 89 88 94 97 81 58 50 56 54 50 62 51 46 30 18 11 11 8 8 8 9 9 10 11 29 37
88 88 90 88 88 92 91 81 84 88 89 93 89 96 97 89 85 92 94 82 65 54 47 52 54 78 56 65 80 69 56 56 50 36 24 16 18 13 16 22 38 58 59 61
69 78 87 94 97 98 95 93 94 95 92 95 98 100 100 98 91 77 56 50 51 54 52 59 69 73 65 82 70 81 63 64 61 67 52 42 36 31 46 61 66 75 98 100
77 76 76 77 79 84 94 100 98 100 100 97 95 96 95 74 62 55 52 53 60 60 59 64 76 72 71 86 68 84 77 69 68 72 72 70 70 59 55 60 59 58 58 64
97 93 88 94 98 100 100 95 100 98 97 98 94 84 68 59 60 60 63 62 65 66 67 70 76 75 74 63 62 66 83 82 78 81 78 81 77 73 79 81 80 80 79 78
100 100 100 97 95 98 96 97 92 92 90 92 86 70 59 58 63 65 64 69 73 84 81 69 68 78 71 67 64 68 72 76 82 81 86 87 81 78 85 91 93 97 97 98
100 100 98 90 84 86 98 99 100 100 97 87 81 69 64 64 65 76 85 80 80 81 80 80 74 69 84 82 70 66 84 81 88 95 92 91 92 95 96 95 96 98 97 94
80 79 76 83 91 97 97 100 100 100 97 86 89 86 82 82 86 88 91 99 88 88 82 82 78 86 87 84 69 66 70 80 84 82 79 86 91 91 95 99 100 100 99 91
63 69 83 88 91 94 96 97 99 100 85 84 89 93 89 88 84 78 76 79 87 99 80 90 88 84 85 80 70 71 71 73 71 78 86 91 89 88 92 98 98 93 84 78
68 77 75 88 92 92 95 100 97 90 99 86 90 98 89 71 64 68 67 76 86 94 75 76 86 88 84 81 82 83 82 83 90 98 100 100 97 98 97 92 80 78 74 74
78 74 82 92 84 75 88 98 100 99 100 92 94 90 69 66 56 60 66 80 86 86 78 76 84 90 87 88 86 81 83 96 100 100 100 98 95 93 92 88 77 80 82 78
80 80 93 94 89 78 74 74 89 97 100 100 100 87 64 57 60 65 83 86 87 90 90 90 91 93 90 87 91 92 100 100 100 100 94 94 90 89 87 76 78 81 78 79
90 85 94 97 93 90 84 87 87 100 100 100 99 89 73 64 76 86 96 96 95 95 93 92 96 97 97 96 94 93 91 93 93 92 97 96 90 84 81 78 80 80 83 81
100 95 96 99 96 100 100 91 86 95 100 100 98 97 86 89 97 100 95 97 98 95 93 99 97 97 100 100 99 95 98 100 99 99 95 89 83 82 81 88 87 81 85 80
100 100 99 100 96 100 100 100 84 87 92 92 95 99 100 100 100 99 97 93 91 92 90 93 94 92 93 97 97 95 93 96 94 86 82 86 88 89 92 90 82 84 86 79
100 100 100 100 100 100 100 100 98 85 84 85 94 85 86 100 100 100 100 99 98 93 88 94 97 99 96 90 91 94 97 92 92 96 95 92 85 84 88 88 84 84 80 79
91 100 100 100 100 100 100 100 100 94 90 98 96 90 79 93 100 100 100 100 100 98 98 94 96 97 94 94 98 99 97 100 99 92 91 86 84 86 88 84 84 83 78 79
98 92 100 100 100 100 95 98 100 100 95 99 95 98 95 81 88 100 100 100 99 98 100 100 100 100 99 100 100 100 100 94 92 91 86 84 82 80 82 86 82 78 77 83
99 85 91 100 100 100 100 96 99 100 100 98 97 100 100 95 94 96 97 98 99 98 99 98 100 99 95 96 100 91 88 90 92 91 88 85 83 80 82 82 79 77 81 72
100 98 85 96 100 100 100 100 100 100 100 98 97 100 99 100 100 93 90 88 96 98 94 88 88 91 96 98 90 88 94 95 92 91 87 88 89 85 81 77 80 82 74 81
91 100 98 99 100 100 100 100 100 100 100 100 100 100 100 100 100 100 100 100 95 93 93 90 91 89 90 93 97 93 95 96 96 93 92 100 95 83 80 85 84 79 82 86
80 96 100 100 100 100 100 100 100 100 100 99 100 100 100 100 100 100 100 100 100 100 99 98 94 95 96 95 95 96 99 96 91 93 100 97 91 84 85 87 88 85 87 81
49 83 99 100 100 100 100 100 100 99 95 93 92 91 88 86 98 100 97 95 97 99 100 100 100 100 100 100 99 100 93 91 91 98 100 96 89 92 93 83 84 86 74 62
32 44 72 94 96 100 99 100 100 100 100 100 98 99 100 100 100 100 100 100 100 98 100 100 100 100 100 100 100 96 89 90 94 97 94 93 93 91 83 82 75 56 58 81
34 37 39 48 74 96 97 95 98 99 99 100 97 95 95 94 95 100 100 100 100 100 98 100 100 100 100 100 98 93 89 89 97 96 94 90 83 83 71 66 64 64 83 94

GFSNGP_250_rhum_069.txt.gz
RH
39 40 40 38 40 38 60 71 71 84 91 91 90 88 89 82 78 99 100 100 100 100 100 100 100 99 87 72 64 68 67 68 65 61 59 51 51 48 43 40 32 23 17 15
40 38 35 39 40 46 50 56 71 80 94 100 98 100 100 100 92 90 100 100 97 89 88 84 73 69 70 72 70 67 64 57 58 59 61 56 51 45 40 34 33 30 33 36
40 43 50 47 50 68 69 62 74 87 99 98 90 89 91 100 100 99 96 97 98 94 98 98 87 81 73 70 67 65 60 62 67 66 57 49 47 49 49 40 36 33 38 39
47 38 39 44 52 60 74 90 80 78 81 82 80 84 98 96 96 100 100 100 97 100 94 86 83 78 70 68 63 62 69 71 56 54 55 52 48 49 55 52 47 47 46 50
80 69 52 49 59 69 83 90 87 91 98 95 94 93 92 94 100 98 94 94 97 82 83 81 75 69 64 66 76 73 55 50 54 64 62 60 54 53 61 57 49 41 45 50
79 73 72 65 77 86 90 97 100 100 100 100 100 99 100 99 91 93 96 97 97 91 75 79 75 79 90 72 55 56 57 60 68 65 63 63 60 59 64 59 54 54 59 69
80 84 79 74 79 85 97 96 97 95 98 98 98 96 96 94 93 84 76 76 79 82 88 90 89 67 58 55 57 62 68 66 68 70 61 53 56 60 69 64 67 67 71 78
81 89 96 89 87 92 96 95 94 99 98 99 100 99 96 88 87 84 82 91 96 99 85 67 60 58 62 65 71 71 70 74 74 66 58 58 56 62 64 73 71 71 79 86
94 85 77 80 83 93 96 95 95 98 99 97 96 95 98 99 99 99 100 98 73 68 63 60 63 70 76 79 79 79 77 70 68 74 82 62 58 63 78 78 74 82 87 91
92 95 96 92 95 96 95 91 92 90 96 95 100 100 100 100 100 94 74 72 70 78 83 89 92 97 98 98 90 80 74 74 81 87 78 67 71 80 79 77 79 90 92 97
97 91 90 96 98 96 97 93 94 98 99 100 100 100 100 96 78 76 80 89 85 86 85 78 77 77 75 89 86 82 78 77 81 81 73 80 86 81 80 85 93 90 94 94
91 96 90 95 90 93 95 94 97 100 100 100 100 95 98 95 81 79 82 82 81 80 75 76 70 70 72 81 88 79 80 83 81 78 83 86 85 85 89 91 91 88 89 84
96 96 96 96 99 97 96 91 82 87 95 99 95 96 97 93 93 90 90 97 92 83 64 58 61 64 68 82 81 75 74 76 80 92 94 85 83 92 97 92 87 89 83 80
92 96 88 88 89 93 76 69 78 87 95 96 96 98 100 95 94 99 100 91 78 69 59 56 60 67 79 81 88 86 83 88 91 95 98 97 90 92 94 92 90 84 87 85
90 93 80 67 69 66 70 73 80 80 83 87 94 99 100 100 100 99 92 91 72 64 62 65 70 83 91 95 93 91 91 87 85 89 89 90 90 93 92 96 97 94 87 86
81 86 62 58 55 68 74 75 73 67 62 69 75 89 95 97 100 96 97 99 89 93 94 96 100 98 95 98 96 89 86 87 90 96 99 98 97 96 100 94 88 87 89 92
70 80 56 53 61 71 76 73 73 72 72 73 79 87 97 100 100 100 99 98 95 98 98 98 97 91 88 91 92 92 86 88 87 90 96 98 95 91 88 82 85 92 93 94
59 67 56 56 65 76 78 82 80 79 80 92 95 81 84 97 100 100 100 94 91 94 95 86 87 86 89 88 85 83 79 78 79 78 78 80 80 79 86 92 100 100 97 92
62 66 58 63 69 75 81 83 83 85 90 88 88 85 86 91 92 97 97 96 92 89 87 92 96 94 92 91 84 82 83 83 82 82 87 92 95 98 100 100 100 98 90 87
68 69 65 65 78 83 84 86 86 89 93 94 95 91 90 92 90 84 90 98 99 99 99 94 92 93 95 94 91 90 95 92 92 90 87 88 91 92 94 100 100 88 86 86
76 70 74 73 77 86 89 89 88 88 91 93 92 96 98 100 92 91 95 99 100 97 94 98 99 95 95 97 99 98 91 88 96 94 97 99 96 98 100 100 94 89 85 84
76 73 74 78 86 86 88 94 96 93 92 96 97 99 100 100 100 100 100 100 99 100 100 99 100 100 98 92 93 94 93 96 93 90 90 95 99 97 94 92 91 89 90 94
45 71 76 79 80 88 94 93 92 92 95 99 100 99 100 100 100 100 100 100 100 100 100 100 98 97 91 92 93 89 87 92 97 94 94 98 92 91 96 92 95 95 95 99
23 30 59 78 81 80 80 84 94 100 99 99 98 97 96 97 100 100 100 99 100 100 100 100 100 99 100 100 100 100 100 100 98 98 100 88 82 97 100 100 100 100 100 100
21 21 23 33 61 87 86 85 88 96 100 100 100 100 100 100 100 100 100 98 97 97 96 96 96 100 100 100 100 100 100 100 100 100 93 94 99 100 100 100 100 100 100 100
22 22 22 22 23 30 52 80 96 99 100 100 98 98 100 100 100 100 100 100 100 100 100 99 98 99 100 100 100 100 100 100 100 99 100 100 100 96 98 100 100 100 100 99
27 24 22 23 23 23 25 29 45 90 97 100 100 100 100 99 98 98 99 98 96 95 94 93 93 96 100 100 100 100 97 96 100 100 100 98 98 97 98 100 100 100 95 72

GFSNGP_250_rhum_072.txt.gz
RH
37 38 34 33 35 34 33 29 28 28 23 23 22 24 27 23 28 52 100 100 100 100 100 100 100 100 100 100 100 100 100 100 100 100 100 98 90 67 53 54 51 45 46 42
36 35 37 39 40 50 61 55 42 59 47 43 36 34 32 29 31 44 60 100 100 100 100 100 100 100 100 100 100 100 100 100 100 95 84 62 55 55 54 53 54 47 43 43
35 31 32 42 40 51 63 68 64 70 81 72 73 68 63 62 58 52 61 81 100 99 99 100 100 100 100 100 100 100 100 88 67 65 63 56 55 58 64 56 48 46 52 48
34 33 33 28 36 42 48 65 75 86 86 74 71 70 84 84 74 68 83 100 100 99 94 94 98 100 96 97 94 85 77 70 72 65 57 58 67 67 56 49 45 50 52 56
44 36 36 36 37 39 46 49 57 78 88 89 90 91 98 100 95 98 100 98 97 97 92 91 95 88 85 89 91 93 83 77 71 64 70 75 59 54 57 55 50 50 52 58
58 54 54 42 41 41 41 52 62 64 66 69 71 71 68 78 74 89 98 95 96 94 90 94 90 98 96 96 99 87 76 69 76 85 64 57 52 55 60 53 54 51 54 57
77 80 73 68 55 52 54 56 61 67 72 88 86 84 79 85 78 72 94 100 100 100 99 100 95 96 91 83 80 76 87 81 61 53 52 55 58 61 59 54 54 54 57 56
78 76 80 74 68 64 62 62 72 82 83 82 88 92 91 92 96 98 99 100 100 97 88 83 88 86 79 86 90 77 60 53 52 57 62 64 65 60 57 67 62 58 57 67
76 76 76 85 82 83 83 79 82 87 89 89 88 89 84 80 82 87 89 85 83 84 80 77 83 97 93 69 58 56 64 63 69 76 75 66 59 68 80 69 62 62 71 74
76 69 75 84 92 96 96 93 98 100 100 98 96 94 93 93 89 91 88 84 83 92 100 98 84 69 60 63 69 77 83 83 79 74 70 72 80 83 78 72 77 79 74 74
84 80 80 83 78 75 84 92 92 96 96 98 95 94 95 94 94 97 99 100 100 97 77 75 72 78 81 86 78 75 75 85 89 81 74 76 78 81 82 80 81 82 81 86
100 96 93 88 82 88 86 87 89 93 96 96 97 98 99 100 100 100 100 93 82 80 76 83 88 89 87 78 72 70 73 74 80 76 73 76 80 83 86 91 95 96 96 92
100 95 100 97 100 96 92 87 80 81 87 90 93 98 99 99 98 100 89 82 81 81 89 90 87 73 62 60 61 64 68 76 80 75 74 73 83 90 97 97 96 98 98 98
100 93 94 98 94 100 100 100 98 92 93 95 96 98 98 99 100 100 96 85 84 88 100 88 69 62 59 56 58 63 69 74 81 85 88 88 89 92 97 99 99 99 96 95
82 91 92 96 92 93 94 97 99 100 100 96 93 98 100 100 99 97 94 90 100 100 89 73 65 57 56 60 66 80 84 82 83 89 94 94 98 100 99 97 96 98 98 92
81 75 83 82 86 90 83 80 92 100 87 85 91 93 97 98 91 95 98 98 98 89 83 80 75 76 78 80 86 90 93 95 97 96 97 94 96 94 96 99 99 88 82 79
87 91 80 76 76 80 67 63 77 74 79 88 84 86 83 88 92 94 97 100 92 88 100 92 84 91 94 96 99 96 92 93 89 85 81 81 83 86 83 79 80 86 90 93
63 77 85 79 74 73 57 55 56 67 79 76 67 67 62 64 76 94 98 100 100 99 100 97 88 94 98 90 85 82 85 86 83 80 80 79 77 81 87 92 96 97 94 91
34 56 74 82 82 74 57 51 56 68 71 66 66 68 72 77 73 74 84 93 92 94 86 98 90 86 87 86 88 85 82 85 86 88 88 90 93 96 100 100 100 100 96 92
27 33 54 77 81 77 63 54 64 68 69 70 72 74 81 82 81 81 78 76 73 75 82 86 95 100 100 95 93 93 93 92 91 88 91 98 98 98 100 95 93 93 90 88
21 27 40 64 78 78 68 59 65 72 73 75 76 80 83 86 82 85 88 86 78 82 79 80 85 91 98 98 98 97 93 90 88 86 89 96 92 90 93 85 85 93 88 90
13 18 26 55 80 85 77 65 65 73 76 78 79 82 85 89 89 89 90 88 84 92 89 86 91 95 97 99 100 100 97 93 90 88 84 86 88 88 78 84 94 92 91 95
14 14 19 45 75 82 80 72 70 75 80 87 91 92 95 96 96 98 100 100 98 96 94 92 95 97 99 100 100 99 92 92 97 97 97 97 92 87 88 100 98 94 95 86
19 18 19 46 64 75 82 84 78 78 85 90 91 93 97 98 99 100 99 100 100 100 99 99 100 100 100 100 97 95 99 100 100 100 100 97 93 92 97 97 92 96 84 87
22 22 23 37 61 74 75 85 88 88 92 96 100 100 100 100 100 100 100 100 100 100 100 100 100 100 100 100 100 100 100 100 100 100 100 99 98 97 92 92 92 84 85 88
28 25 24 25 29 46 64 72 78 86 95 100 100 100 100 100 100 100 100 100 100 100 100 100 100 100 100 100 100 100 100 100 100 100 100 100 100 98 94 89 82 83 87 90
35 31 29 28 27 26 26 28 41 62 72 78 86 94 100 100 100 100 100 100 100 100 100 100 100 100 100 100 100 100 100 100 100 100 100 100 98 88 86 83 84 88 95 100

GFSNGP_250_rhum_075.txt.gz
RH
43 48 48 43 40 36 30 26 26 24 23 19 16 16 16 16 16 16 17 20 21 25 32 36 40 49 61 64 70 84 93 86 91 90 92 91 90 78 92 100 92 99 96 90
36 38 40 49 46 41 37 35 32 27 26 23 20 18 17 17 17 18 19 22 29 34 38 40 43 52 64 67 95 99 90 100 100 100 100 94 99 100 100 100 100 97 71 60
34 36 34 38 41 44 41 46 52 52 34 34 26 22 20 18 19 19 20 21 27 51 72 87 96 100 85 83 91 98 96 98 99 100 100 100 100 100 100 99 88 66 64 53
34 34 31 28 35 44 44 62 61 63 55 52 45 26 26 23 22 22 23 23 22 30 84 98 100 100 100 100 100 100 100 100 100 100 100 100 100 100 92 77 69 64 58 60
43 34 33 32 34 32 36 43 55 68 75 63 48 55 46 31 27 28 29 32 33 40 56 71 96 100 100 100 100 100 100 100 100 100 100 91 80 84 80 78 64 68 60 50
47 46 36 37 33 35 37 43 56 57 69 73 64 71 80 76 60 57 52 49 48 53 58 55 68 78 82 95 98 95 81 89 89 80 83 87 85 85 69 77 72 55 49 51
69 58 39 52 46 43 40 42 46 47 51 70 69 71 84 96 91 87 87 84 82 82 89 89 88 89 91 83 84 84 90 92 96 98 97 88 73 80 76 58 52 52 51 60
74 66 66 62 58 54 46 41 54 60 58 62 64 66 65 70 70 69 75 75 77 87 93 93 92 94 96 100 100 99 100 99 96 92 79 80 74 58 52 56 56 54 59 75
64 78 80 73 76 77 65 53 49 52 54 62 70 66 69 76 77 78 82 90 94 94 94 100 100 100 100 99 99 90 92 91 82 84 69 55 54 57 61 60 60 70 82 77
58 65 79 79 75 78 77 73 66 68 68 70 79 86 84 88 89 94 95 95 93 95 97 100 99 97 98 98 98 89 89 88 66 58 60 64 68 70 75 74 78 80 81 78
68 72 72 70 74 85 87 80 76 82 85 85 92 97 97 99 99 90 86 85 87 90 88 87 89 91 94 98 99 90 69 62 68 71 72 73 80 84 85 77 82 87 89 94
70 73 70 69 72 84 80 91 90 88 91 94 92 94 93 92 90 87 86 84 88 89 93 98 100 99 87 79 74 71 72 74 71 71 71 72 75 82 78 75 79 84 92 90
68 73 84 86 86 76 75 76 78 83 91 94 91 88 91 96 92 91 91 94 98 100 100 99 87 78 80 82 79 73 73 70 66 67 65 68 83 89 83 85 94 94 95 90
66 82 83 79 84 94 86 82 78 74 74 82 88 86 86 89 92 96 97 96 98 99 87 80 78 78 88 85 72 62 63 64 59 59 63 71 84 88 92 95 98 94 88 88
83 77 80 76 76 87 90 86 86 90 88 80 79 81 82 87 90 93 95 99 99 89 85 86 89 100 93 78 69 62 59 59 61 69 87 92 93 95 96 95 92 94 92 90
96 100 92 98 88 83 88 90 89 88 89 96 99 95 91 90 91 93 100 98 98 96 98 100 100 95 87 74 72 77 76 75 86 96 94 97 98 98 92 81 80 83 85 85
39 70 93 97 93 86 85 90 90 93 92 95 99 100 97 88 86 89 95 100 100 100 100 100 100 94 84 85 98 100 100 100 100 100 97 97 93 89 86 82 83 83 84 85
31 29 45 86 99 93 82 82 86 91 92 81 90 95 89 81 84 99 94 97 93 91 93 100 99 92 94 96 89 94 100 97 96 94 90 89 88 88 88 86 83 81 88 91
24 28 30 39 63 90 97 93 84 81 90 82 74 81 76 78 85 83 83 84 84 88 89 100 100 100 94 98 98 92 91 90 93 98 95 94 90 88 87 88 88 87 88 93
22 25 28 31 33 38 73 96 97 83 83 82 70 66 68 75 75 67 64 74 74 74 82 96 100 98 91 87 88 88 92 99 99 98 92 91 86 85 88 86 86 94 96 97
22 23 25 28 32 32 35 67 94 89 83 80 65 61 69 72 70 68 70 82 78 78 75 79 88 77 73 74 80 77 84 95 99 97 92 85 82 82 85 93 93 90 94 97
21 20 21 23 26 30 31 37 74 90 79 77 62 62 69 68 72 74 74 80 80 85 78 77 82 81 79 84 86 85 88 88 89 88 90 93 92 88 91 84 81 88 94 94
20 19 19 18 18 22 30 29 37 80 81 80 70 65 73 74 76 83 86 88 85 88 87 84 86 90 92 93 93 90 87 90 92 90 93 100 100 100 96 94 97 100 100 99
20 20 20 18 14 14 20 27 28 53 81 80 76 69 78 85 83 87 94 95 94 94 95 98 100 100 97 93 90 96 100 100 100 100 100 100 100 100 100 100 100 98 98 100
23 23 23 22 20 17 17 22 25 39 79 88 85 79 74 81 92 96 100 100 100 100 100 100 100 100 100 100 100 100 100 100 100 100 100 97 99 100 100 96 94 98 100 100
26 27 27 26 24 23 20 20 24 39 72 88 89 90 89 87 89 96 100 100 100 100 100 100 100 100 100 100 100 100 100 100 100 100 100 100 99 98 99 99 96 97 100 99
29 31 31 30 28 26 25 26 31 41 58 80 89 91 92 93 95 98 100 100 100 100 100 100 100 100 100 100 100 100 100 100 100 100 100 99 99 98 96 96 98 99 94 85

GFSNGP_250_rhum_078.txt.gz
RH
38 40 43 42 48 47 49 43 40 38 36 26 23 19 18 16 15 14 15 16 16 15 14 14 16 19 24 28 30 37 48 65 96 100 100 100 98 100 100 91 89 73 80 83
49 58 62 61 59 53 41 38 36 31 28 22 21 19 17 17 16 15 16 16 17 17 17 16 17 19 22 25 26 28 33 34 45 64 62 75 89 80 76 74 94 100 100 100
37 40 47 51 48 46 45 40 36 42 32 27 22 19 17 16 16 16 16 17 17 18 18 18 18 18 23 26 29 38 42 43 58 72 74 89 78 88 78 100 100 100 100 100
35 39 39 43 41 46 50 56 62 58 48 33 28 24 18 17 16 16 16 16 17 18 18 18 18 22 32 46 59 59 62 75 74 81 100 83 80 100 100 100 100 100 100 97
32 33 35 37 34 29 30 40 51 58 61 58 45 32 28 24 20 19 18 17 18 19 20 23 30 51 52 74 77 97 97 97 100 100 100 100 100 100 100 100 100 100 94 81
31 32 32 35 38 42 48 42 30 39 50 50 49 42 31 28 26 25 22 21 20 20 21 24 31 52 62 88 100 99 100 100 100 100 100 100 100 100 100 100 91 85 84 85
33 33 32 40 36 37 40 44 48 42 38 40 46 46 53 43 37 39 41 36 33 32 30 28 30 35 47 69 95 98 98 100 100 100 100 100 100 98 83 87 80 86 70 73
48 47 46 43 40 37 38 37 42 48 57 59 55 48 52 56 46 50 52 51 53 59 61 69 70 69 65 60 62 63 71 86 93 96 95 87 80 96 88 85 70 71 59 55
67 69 62 60 54 49 46 43 40 39 44 47 52 61 59 61 66 59 58 62 67 71 86 92 89 89 91 91 88 89 92 97 98 95 95 100 95 85 75 73 61 60 64 69
60 68 67 71 71 68 66 62 61 46 41 50 60 69 76 91 72 62 73 72 75 79 81 82 90 94 97 100 99 100 100 96 96 92 91 90 79 78 66 60 73 77 82 85
56 60 49 60 71 77 76 81 82 74 63 56 62 75 82 87 90 89 92 89 94 93 91 88 89 91 92 94 92 90 96 99 99 96 88 87 78 62 72 74 74 76 78 89
62 52 50 54 67 70 75 84 87 81 74 71 70 67 75 76 80 89 92 96 96 95 95 96 95 95 93 92 94 94 94 93 96 98 90 73 74 77 74 74 70 73 82 83
66 66 70 62 59 59 62 74 82 88 93 89 81 83 87 91 95 96 96 96 96 95 96 94 90 89 90 89 92 98 100 100 90 82 75 75 75 73 68 64 65 70 88 95
69 78 69 68 73 78 74 68 65 68 77 88 91 89 96 96 94 95 94 91 93 92 89 88 92 100 100 100 100 99 98 91 78 76 78 72 69 69 62 61 66 85 95 93
57 82 77 74 73 80 82 81 82 81 78 79 82 85 90 94 93 92 88 88 90 94 94 99 100 100 100 98 92 90 98 84 75 71 67 63 64 62 64 80 99 100 98 95
31 56 82 88 87 82 88 83 82 85 87 92 88 78 75 80 84 88 88 89 94 100 98 96 98 95 86 86 95 100 99 90 76 76 77 80 77 81 100 100 99 96 94 90
29 37 41 63 71 76 90 96 98 91 89 90 95 95 94 90 85 84 87 92 96 100 100 94 100 97 90 100 100 97 94 86 89 97 95 97 98 98 92 93 93 89 87 86
24 25 30 35 44 60 77 85 96 100 96 95 98 100 100 100 100 100 99 100 100 97 92 98 99 96 100 100 100 100 99 93 89 90 99 96 97 95 93 89 87 86 88 87
24 26 24 24 28 35 55 77 88 91 98 100 100 100 99 100 99 100 100 99 98 93 90 97 100 100 98 99 100 100 100 98 94 92 96 95 94 92 89 85 82 87 91 86
19 23 26 26 25 25 27 35 56 82 94 93 97 100 100 93 93 92 100 98 91 88 90 94 93 97 97 97 98 100 99 97 99 96 91 93 95 94 92 88 81 78 86 94
17 17 19 22 23 22 24 26 26 33 57 86 91 91 92 96 95 84 87 85 73 87 90 86 84 82 86 88 92 100 96 90 83 86 86 86 83 84 83 78 74 75 87 92
18 19 20 21 22 24 25 26 26 26 31 41 64 81 87 88 95 87 79 69 69 83 82 72 72 76 78 82 83 87 86 84 82 84 88 89 89 89 87 86 90 92 86 83
19 20 21 21 23 23 23 24 24 25 27 33 35 54 75 78 89 92 70 66 70 74 76 72 78 85 87 89 91 90 88 90 93 94 94 94 96 98 100 100 100 95 93 98
20 20 21 22 21 20 20 19 19 21 26 30 32 33 52 71 80 88 77 68 71 76 77 75 80 87 94 100 100 100 100 100 100 100 100 100 100 100 100 100 100 100 99 96
24 22 22 22 22 22 21 19 17 16 18 23 27 31 34 67 80 84 78 72 77 83 87 89 92 95 100 100 100 100 100 100 100 100 100 100 100 100 100 100 99 99 100 100
24 25 25 24 24 23 23 22 20 17 15 16 22 29 31 51 77 85 87 76 74 82 92 100 100 100 100 100 100 100 100 100 100 100 100 100 100 100 100 100 100 100 100 100
26 26 25 24 26 27 26 25 23 22 20 20 22 28 31 38 70 84 87 87 83 83 88 97 100 100 100 100 100 99 100 100 100 100 100 100 100 100 100 100 100 100 100 100

GFSNGP_250_rhum_081.txt.gz
RH
14 16 18 22 25 33 47 60 51 74 68 38 32 30 23 20 20 21 19 16 15 16 16 16 16 15 15 16 17 18 18 18 19 21 21 22 22 22 25 33 42 50 74 88
23 23 26 32 25 31 51 57 66 61 61 34 24 24 23 20 20 19 18 17 16 15 16 17 17 17 16 16 15 15 15 16 17 18 19 22 26 30 34 45 63 80 70 74
31 35 31 34 31 36 44 54 63 63 48 37 33 27 24 21 19 18 17 16 15 16 16 15 16 16 16 15 14 14 15 15 16 20 24 30 38 46 48 52 69 67 82 84
30 31 38 38 46 48 53 47 48 45 40 33 30 26 25 23 20 19 17 16 16 17 17 17 17 16 16 16 16 15 15 18 22 27 29 32 45 68 71 56 75 88 91 86
30 30 33 34 42 41 42 40 42 44 42 34 32 28 26 23 22 20 18 18 18 18 18 19 19 18 18 17 17 17 26 35 33 47 48 49 56 69 75 73 86 98 84 100
32 36 32 36 40 42 38 34 34 40 43 37 38 35 29 26 21 22 21 19 18 19 19 18 18 18 19 20 20 21 25 33 41 44 49 70 65 65 76 94 100 100 100 100
30 31 35 35 38 39 42 45 44 39 38 34 34 38 41 28 24 25 30 29 29 26 22 22 21 21 21 20 22 29 33 50 61 77 98 100 100 100 100 100 100 100 100 100
35 33 33 36 38 37 38 40 45 53 62 54 45 41 37 35 33 34 31 31 35 34 32 31 26 26 26 28 32 38 47 67 74 90 100 100 100 100 100 100 100 100 99 99
57 55 47 43 42 39 37 40 42 43 47 54 62 52 53 54 38 44 43 48 46 42 43 43 41 40 40 43 43 48 57 75 87 100 100 100 97 98 100 100 98 100 88 89
61 60 65 68 68 60 54 43 41 45 50 48 48 52 54 59 70 68 62 69 59 59 62 64 67 77 75 74 74 77 82 85 85 83 84 92 99 100 100 100 99 91 86 84
60 61 62 68 74 77 73 66 59 52 51 55 51 48 51 51 61 72 80 81 82 77 72 75 82 88 93 100 100 100 98 98 98 100 100 99 99 100 100 100 92 88 79 75
53 54 53 60 58 57 66 80 83 75 69 70 65 54 50 52 60 64 72 83 89 83 84 82 86 84 83 84 85 87 88 91 97 100 100 100 100 100 96 94 91 79 82 80
43 47 58 68 65 56 55 60 75 83 80 80 80 76 69 59 62 68 78 87 91 93 91 91 90 89 90 91 93 95 98 100 100 100 100 98 98 100 97 86 81 81 77 76
31 40 58 72 79 79 70 66 67 73 87 92 95 93 86 82 84 89 94 92 92 92 94 97 96 97 97 98 96 96 95 95 96 98 100 100 97 91 82 82 81 75 70 68
29 31 40 59 74 90 89 82 82 89 87 86 94 98 98 98 95 95 93 93 94 96 98 98 98 100 97 98 97 94 98 100 100 100 100 93 88 81 74 69 66 65 65 72
25 28 30 40 56 76 95 99 95 96 95 95 95 97 95 95 97 97 97 96 97 98 98 99 97 96 96 96 96 99 100 100 100 99 96 90 83 76 78 82 79 80 91 99
25 29 34 32 34 52 76 98 100 100 97 97 100 100 99 93 90 89 95 97 97 97 98 94 96 94 95 95 97 100 100 100 100 100 100 95 92 86 98 96 97 100 96 93
18 20 22 24 24 27 37 69 86 94 98 98 96 100 100 100 100 99 95 96 94 84 84 85 92 96 100 100 100 100 98 96 100 97 96 94 100 95 92 100 97 93 89 84
22 22 23 25 27 26 25 28 48 76 88 96 97 97 97 100 100 100 100 100 98 97 88 96 100 100 98 94 97 100 100 100 100 100 100 100 100 100 100 98 92 88 87 90
21 24 24 24 23 24 24 25 26 30 49 74 91 100 100 97 95 100 100 100 96 96 93 100 100 99 94 97 98 100 100 100 100 100 100 100 100 100 96 89 89 89 89 84
16 19 22 24 23 22 21 22 23 25 27 32 46 66 84 96 100 100 100 99 99 100 95 95 100 94 87 91 99 100 100 98 97 96 93 97 97 90 84 82 83 88 88 87
18 18 18 18 20 22 23 23 22 22 23 26 26 28 41 65 87 96 100 100 100 100 98 89 89 87 87 92 95 95 92 89 91 92 88 84 87 92 91 92 99 100 100 99
19 19 19 19 19 20 21 22 23 22 22 23 23 24 26 30 39 59 85 97 100 100 98 94 83 78 78 83 89 88 86 81 82 84 85 86 96 100 100 100 100 100 100 99
20 19 18 19 20 20 21 22 23 23 23 24 25 26 26 26 29 32 41 67 88 98 98 93 84 77 73 75 75 76 78 81 85 89 91 99 100 100 100 100 100 96 96 97
21 21 22 22 22 23 23 22 22 22 22 21 22 21 22 23 26 28 31 36 66 94 98 96 82 72 74 76 75 75 76 80 87 93 98 98 99 100 100 100 100 100 100 100
23 24 23 22 22 25 25 24 24 22 22 21 20 19 18 18 20 26 31 34 42 79 93 93 87 74 68 74 81 85 88 89 92 95 97 99 99 98 99 100 100 100 100 100
23 26 29 27 26 27 25 25 26 26 25 23 21 19 19 16 16 19 26 32 35 52 87 92 91 84 74 71 75 79 84 90 94 98 100 100 100 100 100 100 100 100 100 100

GFSNGP_250_rhum_084.txt.gz
RH
15 19 23 26 32 37 54 78 69 84 90 83 51 41 37 29 27 28 28 23 20 18 17 16 15 14 15 15 15 16 17 17 18 18 19 20 20 19 20 20 20 22 27 27
14 14 20 30 35 43 49 57 81 94 100 80 61 40 34 30 27 25 26 24 21 18 18 16 16 16 16 16 16 16 17 17 18 18 18 18 18 19 19 22 19 36 42 24
11 13 16 25 31 44 46 49 55 75 63 72 66 34 24 23 23 20 21 21 20 19 18 17 17 16 15 14 14 14 14 15 15 16 16 17 17 18 24 22 23 22 24 26
16 15 16 15 21 26 31 39 58 67 67 57 52 31 23 20 20 20 19 19 18 18 17 17 16 15 14 13 13 13 13 14 15 16 16 17 16 17 18 19 20 26 34 41
26 25 23 19 20 22 23 25 40 48 43 38 40 36 31 23 24 21 19 21 17 17 17 16 15 15 15 16 15 14 14 15 16 17 17 17 17 18 22 24 28 35 58 64
28 26 27 34 33 31 33 33 39 41 39 36 38 39 32 31 35 32 26 23 23 20 18 19 19 17 15 17 18 18 18 19 19 18 18 18 19 22 30 50 54 56 65 75
30 30 31 36 40 40 42 40 41 38 36 34 31 33 37 37 35 32 31 27 25 24 23 22 22 22 21 20 20 20 20 19 19 19 20 22 29 34 53 55 58 63 63 88
38 33 30 32 34 35 38 38 39 41 43 40 37 39 47 42 36 39 30 35 30 29 23 22 23 24 24 23 22 21 21 21 21 21 22 22 23 30 54 61 92 100 100 100
49 48 41 37 35 38 41 42 43 44 47 43 41 43 52 56 55 51 44 40 48 42 38 33 31 28 27 26 25 25 25 24 22 23 28 42 65 71 79 86 94 100 100 100
51 59 61 61 54 49 44 44 47 44 45 45 40 37 38 53 62 66 70 72 62 72 66 55 46 46 43 44 44 37 31 32 39 43 55 60 63 77 81 97 100 100 100 100
38 56 65 72 76 78 72 69 67 62 54 53 50 44 41 41 50 63 69 76 72 74 78 85 68 59 57 62 70 73 72 72 72 73 77 85 89 93 99 100 99 100 100 100
32 46 58 71 72 78 81 88 96 88 81 70 61 61 60 55 49 46 51 63 78 73 77 90 88 87 86 89 94 96 93 91 94 98 98 96 98 100 100 100 100 99 100 100
28 34 46 66 76 72 67 66 72 82 85 87 87 86 81 88 77 56 53 57 62 70 85 84 90 91 93 88 91 94 93 98 100 100 100 100 100 100 100 100 100 100 100 100
22 26 36 57 67 73 74 76 74 78 82 86 93 91 91 97 94 90 76 63 69 81 82 86 90 93 90 88 86 82 88 93 95 95 100 100 100 100 100 100 100 98 95 88
19 22 27 39 53 67 76 87 91 86 91 96 90 94 97 96 95 94 91 87 82 81 85 91 92 93 91 90 89 94 98 99 100 100 100 96 97 100 99 96 92 88 86 80
19 20 24 29 39 56 67 76 87 98 98 99 98 96 93 93 94 97 98 96 92 90 91 91 87 90 87 94 98 99 100 98 98 98 97 98 100 98 98 91 86 90 84 82
20 20 20 22 24 30 41 49 67 84 97 98 99 98 96 94 93 92 89 91 92 89 89 90 92 95 94 98 98 97 99 100 99 97 100 100 100 100 98 97 95 88 90 93
20 21 21 20 19 21 25 32 43 64 79 88 94 98 99 100 100 99 96 90 84 84 84 94 100 100 98 96 94 95 99 100 100 100 100 100 100 100 100 99 96 98 90 98
20 19 21 21 22 23 24 26 28 32 45 66 81 89 96 99 98 100 100 98 96 89 85 84 88 92 90 86 87 94 95 96 99 99 100 100 100 100 100 100 100 100 99 100
24 21 18 18 20 21 21 21 22 26 28 31 39 62 83 91 96 96 100 100 100 92 87 92 94 96 92 86 85 89 93 99 99 100 100 100 100 100 100 100 100 100 100 100
20 23 22 20 19 20 20 21 21 20 20 23 27 30 34 56 77 86 88 90 99 99 93 86 94 100 100 95 90 95 93 94 99 98 97 98 100 100 100 100 100 100 100 100
16 17 19 21 21 20 20 20 20 22 22 22 23 24 26 28 31 44 67 81 84 91 97 97 94 94 96 98 99 96 99 93 91 95 96 97 98 100 100 100 100 100 100 100
20 20 19 20 21 21 22 23 24 23 22 21 20 20 21 23 24 27 30 34 53 77 84 88 94 98 100 99 94 94 99 96 89 85 89 94 94 95 96 97 97 95 98 100
18 18 18 19 20 21 21 21 22 22 21 21 21 20 21 22 22 23 24 25 26 28 41 71 87 92 94 96 98 95 91 95 92 85 83 83 84 85 83 82 85 89 97 100
20 21 21 21 22 21 22 22 21 21 22 23 23 23 23 23 23 24 24 25 26 26 27 29 42 75 93 93 90 90 93 87 86 86 81 80 82 79 79 85 91 95 98 100
22 22 22 22 22 23 23 23 23 22 23 24 25 24 23 22 22 22 22 21 22 23 27 29 31 34 56 89 93 88 83 83 77 75 76 77 76 76 77 81 85 86 92 100
22 22 23 21 20 21 23 24 23 24 24 25 24 24 23 24 24 23 22 20 18 18 20 25 30 32 35 44 81 91 90 88 83 73 72 76 79 81 82 85 89 96 100 100

GFSNGP_250_rhum_087.txt.gz
RH
16 22 28 29 31 36 43 47 56 64 57 36 26 25 33 40 38 31 25 23 21 21 21 20 19 20 19 20 21 21 20 19 18 17 18 20 21 21 22 24 24 27 28 25
15 18 22 29 35 39 43 50 78 86 83 46 34 40 50 42 32 33 34 28 25 19 16 16 17 17 17 19 21 21 20 20 19 18 18 18 18 19 21 21 21 21 21 23
11 14 24 34 38 52 67 73 76 82 63 68 53 50 51 40 31 32 33 32 29 24 20 17 17 18 17 18 18 18 17 17 17 17 17 19 19 19 21 21 22 22 22 23
12 13 16 22 36 49 62 74 84 81 73 71 76 64 52 33 27 29 32 32 32 30 25 22 20 18 17 17 17 16 15 16 16 16 16 15 16 17 17 18 21 23 23 25
19 15 14 15 24 34 43 52 62 65 58 56 56 62 47 31 26 23 19 19 18 19 19 20 20 19 18 18 18 18 18 18 17 16 16 16 17 18 18 19 19 19 19 19
21 20 21 20 18 20 24 34 40 33 34 40 39 37 27 34 28 20 23 22 22 20 19 18 18 18 17 17 17 17 18 18 18 17 17 18 18 20 20 20 20 20 20 23
26 25 24 24 26 27 25 22 22 23 25 27 30 34 36 32 30 30 29 28 30 30 27 25 23 20 19 19 20 21 20 21 19 19 18 20 21 22 21 21 23 21 21 26
37 33 33 31 32 32 37 36 37 36 34 34 33 32 33 35 34 34 35 33 34 33 30 33 30 25 23 23 25 24 24 24 24 22 21 21 22 23 22 22 22 21 22 34
41 43 42 40 39 38 41 41 42 43 41 40 39 39 38 40 42 47 51 51 40 40 38 35 32 33 29 26 27 27 26 26 25 26 25 24 24 24 24 24 24 25 28 31
34 44 46 48 44 46 43 44 46 51 50 46 44 40 40 42 45 50 53 57 55 58 58 60 50 46 45 39 31 28 26 26 26 26 25 26 28 29 29 29 35 48 76 85
27 35 44 54 58 60 60 55 54 56 54 49 46 40 37 38 40 44 48 55 62 66 66 77 89 86 75 68 54 44 41 38 37 35 34 35 36 44 55 62 71 81 78 87
19 27 38 54 63 77 75 76 85 88 87 82 74 62 52 43 40 41 43 46 54 62 69 66 69 87 88 90 84 82 76 69 68 60 61 58 60 65 67 72 76 83 89 95
23 25 32 47 56 66 70 69 76 92 93 87 91 94 86 68 53 54 52 49 50 52 58 66 73 78 90 89 88 94 93 92 92 89 87 85 91 90 95 96 98 98 99 100
21 22 25 39 54 65 76 76 74 78 84 80 80 86 91 95 89 86 74 77 74 64 56 55 58 65 72 83 89 86 93 92 87 94 96 96 95 97 96 93 99 100 100 100
22 22 23 25 39 54 72 89 87 77 80 88 82 84 88 96 98 97 94 91 86 83 77 64 60 65 72 77 86 90 89 86 87 92 92 95 100 100 100 100 100 100 99 96
21 21 21 23 26 31 41 60 85 86 78 84 94 91 85 88 92 94 96 93 91 90 86 83 78 83 82 86 88 91 92 93 94 95 99 99 100 100 100 100 100 100 99 99
21 21 21 20 20 21 23 28 42 67 85 86 83 90 95 94 93 94 92 89 90 97 98 96 95 92 85 86 88 88 88 89 94 99 100 100 100 100 100 100 100 100 98 100
19 23 23 22 20 19 21 24 28 35 45 61 81 89 92 95 96 96 94 91 88 89 95 97 98 100 94 90 91 94 94 95 96 98 100 99 99 100 100 100 100 100 96 100
21 21 23 24 22 21 19 21 25 26 26 31 44 62 77 82 81 84 90 89 86 83 92 89 92 95 96 97 97 94 94 94 95 96 98 100 100 100 100 100 99 99 98 99
23 25 22 22 22 22 21 20 21 22 22 24 26 31 39 52 71 84 88 93 96 91 87 91 94 94 92 90 92 91 88 90 94 98 97 100 100 100 100 100 100 100 99 100
20 26 29 26 24 22 21 20 20 21 21 22 23 25 28 31 33 38 52 77 87 90 91 92 90 92 93 93 94 93 89 86 88 91 93 95 99 100 99 97 97 100 100 100
18 21 25 28 28 26 22 20 19 19 20 21 21 23 25 26 28 30 29 30 35 57 80 87 89 90 93 95 94 97 97 94 91 92 94 89 87 93 100 99 99 100 100 100
18 20 22 23 25 27 26 23 21 20 20 20 22 22 22 22 23 25 26 25 27 27 28 36 57 80 87 90 94 93 93 96 95 94 96 98 100 98 96 98 100 99 98 98
18 20 20 19 20 21 20 20 21 21 21 22 22 21 21 21 21 22 24 24 24 24 24 24 26 27 34 61 86 93 99 98 97 97 97 98 100 100 100 99 96 96 95 95
18 20 20 19 21 22 22 22 23 23 23 23 23 23 23 22 22 22 21 22 23 23 24 25 24 24 25 27 30 48 83 98 100 100 98 98 100 99 99 100 98 97 96 97
16 18 19 18 19 20 21 20 21 22 22 22 22 21 22 22 22 22 23 23 22 23 24 24 24 25 26 27 28 28 29 42 77 95 99 99 97 98 99 99 95 93 93 93
14 18 20 20 22 23 22 22 22 22 21 21 23 23 22 24 25 25 25 25 25 24 24 23 23 23 23 22 24 27 29 29 32 45 76 88 95 98 100 100 98 94 90 92

GFSNGP_250_rhum_090.txt.gz
RH
22 27 32 34 34 36 36 35 38 36 33 30 32 25 20 23 26 26 28 24 22 21 20 18 18 18 18 18 18 18 18 18 19 19 18 18 19 20 20 22 24 24 30 44
19 26 29 32 34 33 38 42 44 40 39 26 25 26 24 26 24 28 30 25 22 20 19 19 18 17 16 17 17 17 17 17 17 17 17 17 17 19 20 20 22 24 26 30
18 23 24 31 35 35 33 35 42 46 37 33 33 30 34 30 29 29 27 24 24 23 20 19 18 18 17 16 17 18 18 19 18 16 17 17 18 17 19 20 21 21 21 22
12 18 26 32 38 39 38 40 45 46 48 50 49 42 40 43 37 31 24 24 26 28 24 20 17 16 16 15 16 17 18 18 18 19 18 16 17 17 18 19 21 21 22 22
15 14 18 26 38 43 49 59 61 58 62 66 63 55 43 39 35 32 24 23 31 33 31 30 26 21 17 16 15 16 17 18 19 19 19 19 18 18 17 20 21 19 21 21
22 19 16 18 28 33 38 47 55 58 54 57 64 57 49 48 39 34 33 28 25 32 31 30 33 28 26 23 21 18 18 18 18 19 20 20 19 19 19 19 21 20 20 21
24 24 23 21 22 26 33 44 39 40 44 52 54 46 52 54 46 42 37 31 28 31 27 26 24 22 22 21 20 20 19 18 18 19 19 20 20 21 23 22 24 24 23 23
18 27 28 27 29 31 32 29 31 40 42 48 50 48 44 43 41 38 42 38 34 32 28 32 33 30 27 25 24 25 24 23 22 21 22 23 25 26 27 24 23 24 26 29
17 25 28 31 29 28 31 35 38 38 36 36 37 36 36 38 38 39 44 48 46 43 44 43 41 40 36 36 30 28 28 26 26 28 27 28 27 27 28 27 27 26 27 26
20 26 30 33 37 36 34 35 34 35 38 40 42 44 48 50 49 50 50 50 50 53 56 64 57 53 60 49 46 43 41 33 30 29 29 31 30 28 27 27 28 28 28 27
19 25 32 35 43 46 43 40 41 43 43 43 41 42 44 46 47 48 47 47 48 51 51 60 64 77 80 74 63 63 60 58 49 38 32 31 31 30 33 37 35 34 40 42
21 23 30 36 43 51 55 55 52 54 56 58 54 50 48 47 49 47 43 43 43 43 48 54 57 70 82 84 81 81 81 79 73 63 60 52 46 44 44 45 47 54 63 66
19 21 26 32 41 47 57 68 70 70 77 86 90 84 80 80 76 71 67 54 51 49 43 44 53 56 65 76 84 84 83 85 85 82 84 83 75 72 70 68 63 63 74 76
17 21 23 24 32 42 52 62 72 80 84 87 90 88 90 91 85 84 85 73 56 54 56 52 48 50 58 62 66 81 84 87 93 93 92 92 90 91 91 91 91 90 90 93
15 17 22 22 24 25 32 42 51 60 70 77 80 80 78 80 78 78 82 82 74 74 72 70 80 78 66 59 59 63 70 82 88 86 94 94 92 94 93 94 94 97 98 100
14 16 18 22 23 22 22 24 33 40 52 62 74 76 78 77 78 80 78 75 81 85 81 77 82 88 80 66 59 60 65 69 81 83 85 85 86 82 85 89 94 99 100 100
10 16 18 20 23 25 23 21 22 28 37 48 61 77 84 86 85 82 79 76 77 81 88 88 86 88 87 79 74 71 74 80 82 86 85 84 84 85 93 98 98 100 99 100
10 13 18 20 21 23 25 27 27 26 27 34 44 58 68 80 86 88 89 86 80 81 78 76 83 88 90 92 90 87 85 83 84 85 84 85 85 90 98 100 100 100 98 99
11 13 16 18 20 21 23 25 26 26 27 29 32 36 42 52 63 78 89 91 87 83 81 77 75 76 78 80 85 89 89 91 92 88 88 90 93 95 97 99 96 94 94 95
7 13 17 19 20 20 22 23 24 25 25 25 26 28 29 32 40 50 58 72 86 91 96 96 90 86 84 84 83 78 82 88 92 94 92 94 96 92 91 93 94 94 91 90
7 8 15 21 20 21 22 24 24 24 23 23 23 25 26 28 29 30 30 31 38 53 66 76 87 91 92 92 95 95 89 85 86 85 89 91 91 94 93 92 93 94 92 90
7 8 10 17 22 23 21 21 22 23 24 24 24 24 22 22 23 23 25 28 29 30 32 34 41 61 77 85 88 90 91 89 89 93 95 91 90 87 90 91 92 93 91 89
6 7 8 13 19 23 25 24 24 23 24 25 25 24 22 21 22 22 23 24 26 26 25 26 27 28 29 35 55 76 85 86 85 85 86 87 90 94 93 91 89 88 89 89
6 6 6 9 14 18 20 22 23 22 22 22 22 21 21 21 22 22 24 25 25 26 27 26 26 24 24 24 25 28 30 46 70 82 86 84 86 90 92 91 92 91 93 94
5 6 6 7 11 16 20 21 22 23 24 25 24 22 22 22 24 23 22 23 23 24 24 23 24 24 25 25 25 25 25 27 28 31 47 70 84 91 93 94 93 93 94 97
5 6 7 8 10 16 19 21 22 22 22 23 23 23 23 24 24 24 24 23 23 23 23 24 24 24 24 25 25 26 27 26 26 26 27 29 34 53 72 85 96 98 99 100
5 6 7 7 9 13 19 19 20 22 24 24 24 24 24 24 24 24 24 24 24 24 24 26 26 26 27 27 27 25 23 22 22 23 24 26 28 30 32 43 64 83 96 100

GFSNGP_250_rhum_093.txt.gz
RH
12 27 32 33 35 33 30 24 22 22 20 22 32 41 31 26 23 27 29 24 21 19 17 16 15 17 17 18 21 24 22 20 20 21 21 22 21 22 22 22 22 23 24 25
8 15 18 25 30 32 35 33 29 24 23 25 32 36 32 29 26 28 31 27 24 22 19 18 16 15 15 15 14 15 18 21 21 20 20 20 21 22 23 23 22 23 22 23
10 12 14 16 24 28 34 32 32 30 24 27 32 46 44 33 26 26 31 32 28 24 22 19 18 17 16 14 14 14 14 15 15 16 17 19 20 20 21 21 23 23 23 24
16 13 14 18 22 27 33 37 36 34 34 36 33 35 35 29 25 24 32 33 32 29 24 22 19 17 17 16 16 16 15 15 15 15 15 15 17 18 18 19 20 20 21 22
18 17 21 22 26 30 32 39 42 38 35 35 40 35 31 38 40 40 40 36 30 28 24 22 21 20 20 17 16 16 16 16 16 16 16 16 17 17 17 18 18 19 20 20
22 21 21 25 31 32 38 42 45 41 40 44 45 42 46 43 46 48 43 38 36 32 27 27 26 24 22 20 18 16 16 14 14 15 15 16 16 15 16 16 15 16 17 19
20 22 25 24 26 35 38 52 41 45 51 54 60 52 50 49 43 43 41 40 34 32 33 34 34 35 31 29 26 26 24 21 20 17 18 18 18 18 19 19 19 19 20 21
18 26 30 27 26 25 29 35 33 39 42 45 47 50 52 51 44 46 48 48 43 37 38 43 44 41 39 38 34 32 28 24 21 20 22 22 21 21 22 21 22 23 24 23
16 22 28 34 33 32 30 30 32 33 36 40 45 50 54 53 52 53 56 55 50 48 43 43 42 41 39 39 34 31 28 26 26 23 21 20 22 22 22 24 25 25 27 28
14 18 23 31 42 40 36 39 38 39 37 35 35 37 42 49 56 55 48 42 43 46 47 47 49 49 49 44 40 42 43 40 36 34 31 28 26 24 23 23 24 26 27 26
11 16 20 25 29 37 43 42 39 40 43 46 47 49 52 56 60 63 63 60 57 50 45 44 44 45 44 48 52 51 56 58 52 55 49 46 37 32 29 28 30 30 28 28
10 14 19 23 28 31 40 49 50 46 40 40 42 43 46 49 49 51 51 52 49 48 49 48 48 49 52 55 59 69 74 78 70 71 61 59 61 52 44 42 38 38 37 34
9 11 16 20 23 30 33 43 52 57 58 51 44 42 42 40 42 45 49 52 49 47 44 43 43 43 47 56 59 64 78 83 86 81 78 78 78 72 64 58 52 48 47 49
8 10 14 18 20 22 29 36 46 54 56 65 64 64 67 64 65 66 65 65 67 62 61 57 48 48 50 47 49 58 65 74 78 81 86 87 84 84 81 83 84 75 71 70
7 8 10 14 18 21 22 26 32 40 47 56 65 72 76 82 83 85 85 83 85 88 91 87 75 66 63 61 56 55 56 60 66 71 78 79 84 87 89 86 88 88 87 86
6 6 8 12 18 21 25 25 25 29 39 48 53 65 75 78 78 76 76 78 78 81 86 90 94 87 79 75 66 68 70 68 62 60 64 76 78 78 82 86 88 90 93 91
7 6 7 10 14 18 20 26 29 29 33 38 48 56 66 78 81 80 74 75 79 79 78 78 85 88 92 88 87 88 90 90 86 70 61 61 67 80 85 85 90 93 93 91
6 6 6 7 11 15 19 22 24 27 29 31 36 42 46 54 68 85 87 81 78 84 88 85 79 77 79 85 90 91 90 91 92 87 82 74 72 75 81 90 92 94 90 88
7 6 6 6 8 11 17 21 23 24 26 27 28 28 33 41 50 59 71 83 87 89 90 92 92 90 88 84 82 79 79 81 89 95 93 89 85 83 84 89 92 93 93 94
6 7 7 7 7 8 12 19 22 25 26 28 28 28 28 29 33 37 41 46 56 65 77 81 81 83 87 91 91 87 82 77 76 76 78 83 89 90 89 87 85 90 92 94
6 6 6 7 7 8 9 12 20 23 25 26 28 29 28 26 26 26 26 29 32 38 41 44 52 57 64 74 79 83 87 86 85 83 83 81 76 77 82 84 87 87 86 87
6 6 6 6 6 7 8 10 13 20 22 24 26 28 29 31 30 29 27 26 26 27 28 28 29 30 33 36 40 49 64 73 76 82 90 91 91 91 88 83 79 75 76 78
6 6 6 5 6 6 7 8 11 16 21 25 28 32 33 32 31 30 27 26 26 26 26 26 26 26 27 27 28 29 30 30 31 37 50 65 79 85 88 88 88 88 87 85
6 6 6 5 5 6 6 7 8 12 18 23 25 27 29 30 29 28 28 28 27 26 26 26 26 25 24 25 24 24 24 26 27 29 30 30 32 40 60 81 89 94 95 92
6 6 6 5 5 5 6 7 8 10 16 22 26 26 26 26 26 25 25 25 25 24 23 22 22 23 24 24 24 24 23 22 22 22 23 24 24 25 24 25 30 52 80 89
7 6 5 5 5 5 5 7 7 8 12 19 23 24 24 24 24 24 24 22 21 22 23 24 24 24 24 24 23 23 23 23 22 23 24 23 22 22 22 22 22 22 24 29
7 6 5 6 6 5 6 7 7 8 10 17 22 22 22 22 22 23 23 24 23 24 24 23 23 22 22 22 22 22 22 22 21 21 20 21 22 23 23 23 24 24 25 24

GFSNGP_250_rhum_096.txt.gz
RH
7 10 14 18 22 27 26 23 19 16 17 21 25 29 28 30 36 38 36 32 24 22 22 21 20 21 22 22 24 25 24 23 23 22 21 20 20 20 20 22 23 23 23 23
9 13 19 20 27 34 31 27 19 16 17 22 27 33 36 40 42 46 43 34 24 20 20 19 18 17 16 16 16 16 17 20 22 23 24 24 23 22 22 22 23 24 23 22
13 10 14 26 33 34 36 33 28 22 19 28 28 34 37 37 37 42 42 35 27 28 26 21 18 18 16 15 15 15 15 15 16 17 20 22 23 22 22 22 22 22 21 20
17 16 15 17 24 33 37 37 34 31 27 25 28 29 29 32 38 43 42 33 28 33 31 26 22 19 18 16 15 15 16 16 17 16 16 16 17 18 20 20 21 22 23 23
19 20 20 20 20 27 29 34 36 35 32 30 30 32 34 45 45 40 50 46 38 33 31 26 24 21 18 16 15 15 15 14 14 14 16 17 18 17 16 16 16 16 17 18
14 21 26 24 26 26 30 34 37 38 40 38 35 32 42 42 38 50 46 42 38 34 31 35 31 28 26 23 22 19 17 16 15 14 14 15 14 15 16 16 16 16 16 17
10 17 25 25 30 33 36 44 35 36 42 43 44 45 51 46 47 47 48 44 44 43 41 37 33 31 34 31 30 29 26 25 23 20 18 15 14 14 14 14 15 15 15 15
12 12 19 26 28 30 37 40 41 49 50 54 56 57 58 56 65 68 65 62 54 51 49 48 43 44 45 42 42 42 42 38 33 28 24 22 19 19 18 18 18 18 17 17
11 11 12 17 26 32 33 39 40 44 46 46 48 52 54 53 47 46 48 53 54 53 52 51 54 55 56 52 54 55 52 50 42 36 35 32 28 26 24 21 19 20 24 26
7 11 11 14 20 27 34 34 33 30 34 41 46 43 48 58 60 58 64 64 64 67 73 74 70 64 58 53 56 52 50 44 42 40 36 29 26 25 21 20 20 19 20 21
12 8 10 12 16 21 32 40 40 33 30 30 34 36 42 50 50 53 54 52 56 57 52 50 52 50 53 51 50 50 49 45 42 39 37 36 36 32 30 32 30 29 28 25
11 7 8 10 12 16 25 34 45 48 45 38 38 38 38 37 38 43 48 51 54 56 60 55 52 47 48 49 46 43 42 39 38 40 44 45 52 50 50 50 50 42 39 40
12 7 7 8 10 12 17 23 34 46 57 58 51 46 48 48 49 50 54 58 62 63 61 58 55 54 52 47 43 43 45 47 46 44 51 54 57 62 68 67 61 58 54 54
12 8 6 6 8 10 12 17 21 26 36 45 53 57 53 48 46 50 53 55 55 52 53 49 48 47 45 43 42 42 44 44 48 56 62 65 66 64 72 79 79 80 75 73
20 13 7 6 7 8 11 14 20 22 25 28 37 47 56 63 62 56 51 51 52 53 57 64 63 62 63 62 61 53 47 47 46 47 55 65 70 73 75 79 86 88 86 80
46 15 11 6 7 7 8 12 17 22 25 30 34 40 53 57 68 73 71 72 78 82 87 92 92 87 84 82 84 82 74 58 56 58 58 55 61 72 83 83 80 81 83 89
62 20 10 8 6 7 7 9 14 18 22 24 30 36 42 51 56 63 75 76 78 85 90 88 85 81 75 68 70 77 84 88 84 82 76 73 78 81 75 66 66 77 86 84
79 38 14 9 7 7 7 7 10 15 20 23 24 27 30 35 44 52 58 65 72 78 85 86 85 85 84 82 83 84 83 86 91 93 88 86 86 88 89 89 82 69 65 70
81 55 21 9 8 7 7 7 8 10 16 20 24 24 26 32 36 40 46 51 58 60 63 67 73 80 89 92 91 92 93 90 85 83 82 80 86 86 85 88 90 86 82 79
91 56 26 11 8 7 7 7 7 8 12 16 21 23 26 27 29 32 32 31 35 40 45 46 49 59 74 81 80 79 78 80 82 84 87 86 80 76 78 80 83 87 91 91
77 76 27 12 8 7 7 6 6 7 8 12 16 21 22 25 27 29 31 31 30 30 32 34 34 36 40 47 57 63 61 57 57 62 66 74 84 88 89 87 87 88 84 82
82 86 28 12 8 7 7 6 6 6 7 8 11 14 18 21 25 29 32 34 34 33 33 32 31 31 30 31 31 32 34 36 34 32 32 33 39 55 73 81 88 92 95 98
71 89 39 13 8 7 7 6 6 6 6 7 8 11 17 26 30 30 29 30 30 30 30 30 29 28 28 27 27 26 25 25 24 24 25 26 27 30 32 35 42 54 72 86
66 75 54 14 9 7 7 7 6 6 6 7 8 9 11 18 25 27 28 29 30 30 30 30 30 29 27 25 24 23 23 23 23 23 23 23 23 24 25 26 27 28 28 28
70 80 53 14 9 7 6 7 6 6 5 6 7 8 10 13 18 24 28 28 28 28 29 31 30 29 28 27 25 23 22 21 21 21 21 21 22 22 22 22 23 24 24 25
75 80 41 14 8 7 6 7 7 6 6 6 7 8 9 10 12 18 24 26 26 26 27 27 26 25 24 24 23 23 23 22 23 23 24 23 23 22 22 22 22 21 21 20
78 67 25 12 8 7 6 6 6 6 6 6 7 9 9 9 11 15 21 25 26 26 25 24 24 24 24 23 23 23 23 23 23 23 23 23 22 20 20 22 24 24 25 27

GFSNGP_250_rhum_099.txt.gz
RH
10 8 9 10 11 17 20 23 21 18 15 16 16 17 18 18 19 22 25 29 36 42 43 42 45 41 34 31 29 31 30 29 27 25 24 23 23 22 21 21 22 22 22 22
13 12 12 13 13 17 25 31 28 23 19 17 17 17 17 18 18 20 24 27 31 32 32 36 41 42 37 32 31 30 29 30 29 28 27 25 23 22 21 21 23 22 21 22
13 16 16 17 18 19 23 27 31 31 27 20 19 18 18 19 20 21 22 25 29 32 37 42 38 35 29 27 24 21 22 22 22 22 21 22 23 24 24 24 24 24 24 24
14 13 17 20 23 24 28 30 32 33 32 27 22 20 21 21 22 25 26 31 35 40 43 39 36 32 26 23 21 19 18 18 19 19 17 16 16 16 17 18 19 21 22 22
14 13 17 20 20 21 27 33 31 37 35 30 27 25 27 26 26 28 30 31 34 37 37 38 34 30 26 27 24 19 18 18 18 18 19 19 18 18 17 17 18 18 18 18
10 13 12 18 23 27 25 30 34 37 37 39 36 29 27 34 35 35 37 40 43 47 44 41 43 39 35 30 23 20 20 19 18 16 15 15 16 16 16 16 16 16 16 17
13 10 12 15 21 27 31 31 29 34 40 41 40 42 39 33 31 31 39 46 54 67 73 62 50 41 39 38 32 28 28 26 24 22 20 20 20 18 16 14 13 13 14 15
15 12 8 12 16 21 27 30 31 36 41 45 49 50 50 48 43 44 45 51 57 61 64 59 55 56 56 51 46 42 40 34 36 34 36 35 32 26 20 18 16 14 14 14
15 12 9 9 13 16 23 26 30 37 44 48 60 64 69 69 63 62 63 64 62 61 62 62 60 59 61 62 67 61 57 59 57 53 46 47 37 32 31 28 28 27 25 23
21 12 10 7 10 12 17 22 30 32 36 45 50 66 72 71 69 63 65 67 69 73 76 76 75 74 73 78 79 73 75 76 67 63 56 52 44 40 38 36 32 30 28 23
36 14 10 7 7 10 12 16 26 33 37 40 42 46 49 56 57 60 67 66 67 65 64 67 72 78 82 82 77 77 72 72 60 54 50 44 41 40 41 41 39 34 32 31
56 28 13 8 6 7 10 12 15 23 32 40 42 41 36 34 40 48 56 59 54 52 56 61 68 70 66 64 61 59 49 42 34 33 34 38 40 41 41 44 45 45 48 44
59 49 15 10 6 7 8 10 12 15 22 28 36 43 45 41 39 40 41 44 46 49 46 44 47 51 48 45 46 47 46 45 43 41 46 48 44 44 48 50 48 54 55 60
65 54 35 12 8 6 7 8 10 12 16 23 28 38 46 50 48 46 44 47 50 52 51 53 51 49 53 55 56 54 50 50 50 49 47 46 46 46 47 51 60 62 68 65
63 69 62 16 9 7 6 7 8 9 12 18 24 27 36 47 60 65 64 58 54 53 54 56 54 54 54 52 51 51 51 50 50 48 47 46 46 47 47 47 54 60 67 73
62 72 70 48 11 7 7 7 7 8 9 13 17 22 28 38 53 69 76 74 76 71 63 59 57 58 60 60 61 66 71 75 84 85 84 87 82 66 63 58 51 51 58 66
68 68 76 70 25 9 7 7 7 7 8 9 12 16 21 26 34 45 52 57 70 78 86 81 77 81 86 93 93 88 85 84 84 82 81 88 92 88 73 72 74 68 66 69
63 64 75 81 79 18 7 7 7 7 8 8 9 11 16 22 26 30 35 40 48 59 72 76 82 86 89 89 86 84 83 86 90 86 81 82 84 81 83 89 93 92 90 91
65 70 80 76 78 32 9 7 7 7 8 8 8 9 12 17 23 27 30 37 39 40 48 57 64 68 74 76 77 78 80 81 86 88 88 84 81 81 84 85 85 89 92 94
64 73 79 83 71 42 16 7 7 7 8 8 8 8 9 12 17 22 26 27 30 34 38 41 45 48 53 55 54 54 57 62 70 72 73 75 76 73 76 82 88 92 92 90
69 65 73 79 92 43 18 8 6 6 7 8 8 8 8 9 12 14 19 23 27 30 32 34 36 37 37 37 37 37 38 37 38 41 45 48 52 56 59 63 66 71 80 90
76 69 65 78 79 60 22 8 6 6 6 7 8 8 7 8 8 10 14 22 28 32 34 34 34 34 33 32 31 30 29 28 28 28 29 29 28 29 30 33 34 36 41 46
79 73 69 86 75 67 24 9 6 6 6 6 7 8 7 7 8 9 13 18 24 27 29 29 29 30 29 29 29 30 29 27 26 25 25 24 24 24 24 24 25 26 27 28
81 74 78 81 90 62 24 11 6 6 6 6 7 7 7 6 7 8 10 12 15 19 23 26 27 28 29 30 30 30 29 27 27 26 25 24 23 22 22 21 21 22 23 23
80 70 87 80 95 42 19 11 7 6 6 6 6 7 7 7 7 7 9 11 14 17 21 24 27 29 28 29 30 28 27 28 27 26 25 24 23 22 21 22 21 22 22 24
87 72 85 85 91 31 14 10 7 6 5 6 6 6 7 7 7 7 8 8 9 10 13 18 21 24 26 28 28 28 27 26 26 25 24 23 22 21 21 22 22 22 21 21
72 85 79 94 66 20 11 8 7 6 5 5 6 6 6 7 8 8 8 9 9 9 9 10 13 18 22 25 26 25 24 24 23 22 22 21 21 22 22 21 21 21 21 22

GFSNGP_250_rhum_102.txt.gz
RH
9 7 8 10 8 8 14 17 21 20 16 16 18 18 18 21 25 26 28 32 36 43 47 51 57 59 64 63 64 55 50 44 37 36 33 31 30 29 28 27 25 24 22 22
10 11 9 11 12 15 16 18 20 22 20 17 16 15 16 18 20 23 27 30 31 34 38 43 40 40 44 52 54 51 44 41 42 41 38 35 33 32 31 29 28 27 25 24
8 11 10 11 13 15 16 17 22 28 29 25 19 16 16 16 16 18 19 21 23 26 26 30 36 37 42 48 47 46 46 48 44 36 33 32 31 30 29 29 28 27 27 27
11 9 11 12 14 15 19 22 22 30 30 30 25 20 18 16 15 16 19 21 23 25 28 30 33 36 41 45 49 46 42 36 30 28 27 29 27 26 24 23 24 24 24 25
13 10 9 12 15 18 16 20 26 29 33 33 33 28 21 17 16 16 17 18 19 22 24 28 31 34 36 37 35 36 35 30 27 26 26 22 22 21 22 21 20 19 20 20
19 13 11 9 13 16 21 20 23 31 35 37 37 39 34 28 23 19 19 20 23 24 25 25 26 33 39 43 52 43 37 36 31 29 25 24 22 21 22 22 21 20 19 18
27 18 13 10 10 14 15 21 27 24 31 42 42 40 39 36 32 28 24 23 25 30 30 30 31 31 31 34 35 38 38 37 32 30 27 23 22 20 20 20 19 19 18 16
58 25 13 10 9 9 14 17 23 31 31 32 39 47 50 44 38 36 37 32 32 32 35 38 40 41 37 36 37 38 39 40 40 36 32 28 29 28 27 28 29 25 22 16
75 41 21 10 11 8 8 12 17 26 33 37 37 38 45 55 58 52 48 47 49 51 50 51 55 57 56 55 60 59 58 55 52 51 54 56 52 47 40 39 35 33 29 26
74 67 30 16 8 10 7 9 12 14 21 33 39 42 43 46 47 55 64 65 63 58 56 61 66 70 73 76 76 74 79 81 76 78 83 74 67 58 48 45 44 40 34 35
69 78 62 47 16 9 8 7 8 12 14 21 32 39 46 50 55 53 56 62 67 75 80 80 77 73 71 75 78 75 72 77 77 83 82 79 68 54 47 45 46 40 37 33
68 72 76 60 42 11 8 8 7 8 12 14 19 30 38 45 50 59 62 58 60 69 74 77 79 81 79 74 74 76 81 85 82 76 72 65 54 47 50 45 37 37 32 36
63 68 79 78 60 44 13 8 8 8 8 11 14 19 29 36 42 48 52 53 54 53 52 59 65 67 69 75 74 68 66 63 61 58 51 46 38 42 45 43 42 42 43 45
68 62 67 79 71 70 20 10 8 8 8 8 10 13 19 29 36 45 52 52 51 49 48 47 46 47 50 53 54 57 53 47 46 42 42 45 47 48 46 44 43 42 43 47
62 60 63 77 80 67 59 20 9 7 8 8 9 10 12 16 23 36 43 50 57 57 52 48 46 46 48 48 49 51 53 51 52 50 49 49 49 46 46 45 44 46 46 46
60 64 65 66 86 75 77 28 11 8 7 7 8 8 9 12 16 24 37 45 53 63 71 70 68 64 57 54 53 53 56 58 58 58 60 60 64 72 80 89 87 86 82 78
64 63 67 65 88 74 92 36 18 8 7 7 7 7 8 9 11 15 22 34 44 51 54 62 74 74 71 66 64 61 61 63 66 71 76 82 94 96 94 90 86 86 88 93
56 67 60 62 74 87 85 60 19 12 6 6 6 7 7 8 9 10 15 21 30 39 43 50 61 70 72 74 77 80 78 73 78 84 88 90 92 92 88 89 89 89 86 86
55 70 64 68 70 84 93 81 55 15 8 6 6 6 7 8 8 9 10 14 20 25 31 39 46 60 70 68 70 74 79 80 86 88 86 88 89 90 89 86 86 88 89 89
62 69 75 69 76 82 85 84 87 25 12 8 6 6 6 7 8 8 9 10 13 18 23 28 32 38 48 58 63 66 69 73 75 77 82 82 81 83 85 86 87 82 78 83
67 82 72 80 75 80 81 75 91 82 14 9 7 6 6 6 7 8 8 8 9 12 17 23 29 33 37 43 50 57 60 61 60 59 58 58 58 58 60 59 62 65 67 67
60 78 84 76 73 80 90 84 94 79 26 9 7 6 6 7 7 7 7 8 8 10 12 15 20 25 31 34 37 40 44 45 44 43 41 39 37 36 35 34 31 32 32 32
71 79 90 69 84 84 89 85 100 81 28 10 7 6 6 6 6 7 7 7 7 8 10 13 15 19 23 27 29 31 32 33 33 34 34 35 35 33 31 29 29 29 28 28
72 83 84 76 86 77 83 92 95 80 25 10 6 6 6 6 6 6 6 7 7 7 8 10 10 12 16 19 22 25 28 29 30 32 33 34 33 33 33 33 31 30 29 28
76 72 89 77 83 80 84 86 90 87 24 10 7 5 6 6 6 6 6 6 7 8 7 8 9 11 14 15 17 19 24 28 29 30 31 31 32 32 32 31 30 29 28 27
90 86 76 74 77 80 87 90 84 89 18 9 7 6 5 6 6 6 6 6 7 7 8 7 8 8 9 10 12 13 16 20 24 28 30 31 31 31 30 28 27 26 25 24
82 83 72 72 79 89 84 93 92 66 12 7 6 7 6 6 6 6 6 6 7 7 8 8 8 8 8 9 9 9 11 15 19 22 25 26 27 26 26 24 23 22 22 21

GFSNGP_250_rhum_105.txt.gz
RH
8 9 6 6 6 9 10 18 23 23 25 32 40 38 37 35 50 55 55 59 58 62 67 69 80 89 85 75 66 59 60 63 55 51 48 46 45 44 44 44 43 40 39 37
9 10 11 8 9 8 10 12 22 30 26 23 21 26 28 28 26 28 32 36 41 44 47 52 61 67 67 62 61 56 51 49 43 39 40 43 43 46 42 44 38 37 37 37
12 11 11 14 12 10 11 12 16 26 30 29 26 24 24 28 28 29 31 35 48 48 47 45 43 41 38 41 44 45 40 41 41 46 46 49 49 44 42 43 40 38 36 37
13 9 10 10 15 15 14 16 17 20 26 29 28 24 22 23 24 27 31 35 38 36 34 34 37 33 32 35 40 41 42 42 46 51 58 58 60 48 44 42 43 42 35 32
23 13 10 8 10 14 18 17 17 20 25 27 31 29 24 20 20 22 23 26 29 31 33 34 37 38 40 47 46 39 36 36 38 47 57 56 50 46 45 42 34 25 26 28
39 29 15 8 8 9 13 18 19 21 21 26 31 32 31 26 22 20 20 22 26 26 26 28 30 32 30 28 30 35 36 40 46 46 44 43 43 42 34 27 25 25 25 30
68 42 28 16 11 7 8 11 16 20 22 27 28 33 37 34 31 26 22 20 20 25 28 29 29 28 29 29 30 35 38 42 43 46 46 42 36 30 33 31 34 32 32 25
88 74 53 22 14 8 7 7 8 13 20 23 23 29 33 35 36 36 32 27 23 22 23 25 26 26 28 30 30 27 26 30 34 38 41 36 36 49 51 48 40 37 31 27
81 87 64 37 24 15 10 7 7 7 11 16 25 26 28 36 40 40 41 37 32 29 26 25 26 27 27 30 33 34 37 41 46 47 54 66 59 56 55 52 47 43 39 30
70 81 86 57 34 27 21 10 7 7 7 9 13 24 34 32 36 40 44 49 44 39 35 32 33 34 40 47 50 50 53 62 67 68 67 60 51 48 51 54 62 55 47 44
63 72 76 88 78 40 32 21 12 8 7 7 9 13 17 29 37 40 45 44 46 54 55 52 49 48 50 52 53 54 56 56 58 58 61 65 65 70 77 76 73 72 56 44
57 67 68 78 95 77 79 51 18 11 8 8 8 8 12 18 28 34 40 47 55 53 57 65 68 70 70 68 70 71 72 73 74 74 74 76 80 83 85 81 73 63 56 50
52 61 67 77 79 84 82 73 64 16 10 8 8 8 9 11 17 27 31 40 44 55 59 60 69 75 77 82 84 85 85 85 84 84 83 84 86 83 79 71 61 56 46 47
48 53 64 68 78 82 79 78 77 63 16 10 7 8 8 8 10 15 23 34 40 46 51 59 61 63 66 71 74 74 74 72 69 68 70 76 78 68 58 51 49 46 53 57
51 48 63 64 70 72 76 87 90 79 81 16 10 8 7 8 8 9 12 18 26 35 41 50 57 63 63 60 58 58 56 54 56 58 55 56 55 52 48 49 53 52 53 53
50 50 62 64 63 62 79 86 89 76 93 40 13 10 8 8 8 8 9 10 16 24 34 44 49 52 56 58 56 54 52 50 52 52 52 52 51 52 52 54 57 56 57 62
58 46 54 61 50 68 79 85 78 80 76 90 18 10 8 8 8 8 9 9 10 13 20 30 46 56 59 62 65 65 63 62 62 61 58 56 54 52 55 58 63 73 75 83
59 48 46 59 66 74 73 90 80 94 63 91 72 12 9 8 7 8 8 9 10 10 12 18 26 35 47 55 63 73 77 79 79 81 80 75 72 71 65 66 68 77 88 90
62 54 50 56 70 67 72 93 80 88 88 70 71 16 9 7 7 7 7 8 9 9 10 11 13 17 25 35 47 58 68 78 81 82 84 85 83 81 82 75 74 84 88 85
67 52 47 66 84 66 89 97 88 93 95 77 66 20 9 8 6 6 7 7 7 8 9 10 12 14 18 22 28 37 50 59 64 69 75 78 79 82 84 84 83 81 80 78
73 61 48 54 70 65 85 94 88 88 100 75 92 26 8 8 7 6 6 6 7 7 8 9 10 12 14 16 19 23 29 36 43 50 56 62 68 72 75 78 79 78 79 78
77 64 47 46 69 68 91 94 92 85 97 91 92 36 8 6 7 6 6 6 6 7 7 8 9 9 10 12 16 19 22 25 30 35 40 45 50 54 56 57 58 60 59 58
66 60 54 58 71 72 89 89 95 83 95 96 82 37 9 7 6 6 6 6 6 6 7 7 8 9 9 10 12 14 17 19 22 25 28 31 33 34 35 38 41 41 37 36
70 60 60 59 71 69 100 79 97 90 94 83 78 29 9 7 6 5 6 6 6 6 6 6 7 8 9 10 10 11 12 13 16 20 23 27 29 32 34 34 34 35 33 32
73 64 56 70 74 71 90 88 87 100 90 89 79 23 9 8 6 5 5 6 6 6 6 6 7 7 8 9 9 9 10 11 13 16 17 18 20 24 26 28 30 28 28 29
67 61 62 58 73 82 78 85 93 94 93 86 47 13 8 7 7 6 6 6 6 6 6 6 6 7 8 8 9 9 9 9 10 10 12 14 14 15 17 19 23 26 26 26
64 59 65 68 78 76 79 82 99 93 87 55 22 8 7 6 6 6 6 6 6 6 6 6 6 6 7 7 8 9 10 10 10 10 10 10 10 11 12 14 15 17 19 22

GFSNGP_250_rhum_108.txt.gz
RH
7 8 6 5 5 9 16 31 31 38 58 66 76 84 91 82 86 97 100 100 99 91 94 75 76 50 39 35 37 50 67 72 77 89 93 100 98 89 99 100 99 100 96 85
6 7 10 8 6 7 13 22 30 42 54 63 65 64 70 86 85 83 95 100 100 94 88 71 61 57 47 41 36 28 35 34 35 42 52 53 61 69 76 78 80 83 71 65
13 8 8 10 11 8 9 12 16 28 42 47 57 68 66 56 79 79 77 72 81 89 94 91 93 88 76 72 63 42 43 48 43 48 57 53 53 51 54 55 58 56 51 46
18 15 11 9 10 13 13 10 11 14 22 30 38 40 35 36 36 46 59 57 50 54 63 61 64 61 69 64 62 67 63 58 69 58 60 53 62 59 47 46 44 38 35 34
27 18 15 10 8 10 13 16 17 17 17 18 26 30 32 35 33 30 30 39 40 50 51 54 56 58 71 84 86 93 86 79 80 75 66 59 54 50 43 38 36 33 36 42
49 29 24 16 13 8 9 12 17 19 21 22 23 26 32 34 32 30 34 31 36 41 40 38 53 65 83 91 89 91 81 68 68 51 46 43 45 41 41 48 47 52 52 48
70 64 45 28 20 17 10 9 9 14 19 22 26 29 30 33 36 35 32 32 38 37 25 21 29 42 44 43 37 35 35 39 41 41 44 58 48 47 53 52 50 48 51 48
78 73 85 55 41 23 25 13 8 9 11 19 22 23 32 36 33 34 32 29 28 29 25 23 23 27 26 28 32 33 33 31 35 44 48 51 50 46 42 42 52 62 60 55
68 76 80 80 60 44 41 26 17 11 8 10 14 24 27 30 38 40 39 36 32 29 28 28 30 33 32 34 34 32 31 36 36 35 34 34 32 37 43 49 50 53 49 42
56 67 67 71 80 55 49 45 29 29 12 8 9 10 19 30 34 42 46 47 43 39 36 35 34 33 34 35 34 33 32 34 37 38 39 39 41 49 54 55 53 43 47 58
49 56 72 73 72 75 66 64 49 41 26 13 9 7 9 12 25 37 39 45 46 46 46 44 42 38 33 30 31 32 32 33 36 40 42 44 48 56 57 57 59 64 67 66
51 50 65 69 72 70 69 67 59 76 53 41 16 11 8 8 9 13 30 43 47 46 48 50 54 52 48 47 45 41 38 39 42 48 51 53 60 66 68 67 73 76 72 64
58 51 50 58 69 66 68 71 74 66 80 62 35 16 10 8 7 9 9 15 31 46 52 53 54 61 69 68 63 58 54 53 54 57 61 65 68 70 69 64 64 69 74 75
64 51 47 52 69 76 71 80 66 78 75 76 64 34 15 9 8 7 8 10 11 19 32 44 53 57 60 65 72 74 76 77 77 76 74 74 75 81 83 86 90 89 85 85
71 64 52 56 54 72 76 75 81 79 62 78 63 70 28 11 8 8 7 7 9 10 12 22 34 39 45 54 63 72 79 81 81 81 83 86 87 89 88 87 86 84 81 79
75 71 78 54 52 64 86 75 80 84 78 76 71 53 56 20 9 8 8 7 7 8 10 10 15 26 34 42 49 56 62 67 74 77 78 79 79 80 75 70 70 64 64 58
73 70 69 60 55 62 81 89 86 82 88 81 83 77 54 36 12 8 7 7 7 7 7 9 11 12 18 28 36 47 53 57 62 64 66 64 65 61 55 52 51 53 56 58
75 78 72 63 60 69 72 95 82 88 92 88 85 75 64 39 20 9 7 7 7 7 6 7 8 11 11 14 20 30 38 47 56 63 66 68 68 68 66 64 63 66 68 68
75 78 80 71 66 59 78 82 76 98 90 100 86 92 75 41 24 10 8 6 6 6 6 6 7 8 9 10 11 13 17 25 33 43 55 63 67 73 80 81 81 80 80 80
77 73 76 74 68 62 73 76 86 100 100 100 89 100 81 51 23 11 8 8 6 6 6 6 6 7 8 8 10 11 12 15 19 24 34 44 52 60 67 66 65 68 71 68
76 74 79 64 67 65 68 76 91 92 100 94 93 99 80 59 24 12 8 7 7 6 6 6 6 6 6 8 8 9 10 11 13 15 21 26 32 40 50 55 59 63 66 66
76 78 71 65 72 71 74 89 97 100 100 94 99 100 84 58 28 11 9 7 6 6 5 6 6 6 6 6 8 9 9 10 11 12 12 14 19 25 31 36 43 48 52 54
84 74 72 61 72 73 74 86 89 98 100 98 100 100 92 58 23 11 9 7 6 5 6 6 6 6 6 6 7 8 8 9 10 11 12 13 15 18 21 24 29 32 33 37
83 76 73 66 71 87 74 79 97 97 100 95 100 92 87 50 20 11 8 7 6 5 5 6 6 6 6 6 6 7 7 8 9 10 12 14 15 16 18 20 22 22 24 27
86 71 66 73 64 78 78 74 88 100 96 100 99 98 85 39 14 9 8 7 6 5 5 5 5 6 6 6 6 7 7 8 8 9 10 10 11 12 12 13 14 16 18 20
73 65 68 68 71 72 71 79 91 99 94 100 95 94 71 31 10 7 6 6 6 5 5 5 6 6 6 6 6 6 7 8 8 8 9 9 10 10 10 10 11 12 13 14
67 64 65 75 68 64 75 86 98 100 100 100 87 85 46 22 8 6 5 5 6 5 5 6 6 6 7 7 6 6 6 7 8 8 9 9 10 10 10 10 10 10 10 10

GFSNGP_250_rhum_111.txt.gz
RH
6 7 5 6 9 11 16 20 25 29 38 44 57 79 86 100 99 95 100 100 91 66 95 81 80 81 76 100 100 100 100 100 100 100 100 100 100 100 100 100 100 100 100 100
7 6 9 7 7 9 9 13 26 35 41 52 52 56 82 99 100 100 94 91 100 68 53 74 83 62 72 74 84 100 100 100 100 100 100 100 100 100 100 100 100 100 100 100
14 11 7 9 10 8 8 10 15 27 40 46 51 69 76 80 67 89 91 100 85 100 86 67 72 75 75 71 78 87 98 100 100 100 100 100 100 100 100 100 100 100 100 100
19 18 17 8 8 12 11 10 10 13 19 30 44 49 63 79 92 82 99 99 97 88 85 73 64 53 54 60 77 83 87 83 91 100 100 100 100 100 100 99 98 96 95 92
34 29 25 16 12 8 9 15 16 15 15 19 26 35 54 56 62 74 67 75 84 93 88 87 85 73 65 57 52 54 59 67 81 90 83 78 79 81 92 85 78 76 69 69
55 44 40 29 25 19 14 10 8 13 16 16 23 32 38 55 59 60 66 66 59 84 92 97 94 97 98 87 69 69 74 65 54 53 60 55 55 54 52 49 51 59 57 50
62 62 46 44 34 28 26 22 16 10 10 16 22 22 24 27 33 53 54 48 66 72 73 77 84 84 90 96 99 97 92 96 90 77 68 71 81 77 71 57 52 51 48 49
69 63 69 56 45 42 30 29 28 25 14 10 10 14 19 21 23 33 44 43 40 52 57 65 77 75 65 70 63 64 75 74 74 75 74 63 54 61 53 55 46 51 51 56
70 68 72 65 56 52 51 44 36 31 26 26 16 10 10 15 23 26 28 32 32 34 41 53 57 53 40 41 49 49 49 47 51 55 71 63 53 44 50 41 39 49 43 34
59 67 67 70 68 78 69 67 63 52 33 29 31 26 13 9 10 16 27 31 33 37 41 42 40 34 33 36 35 29 33 35 35 40 45 42 40 41 47 42 40 37 38 37
60 59 77 71 74 71 61 70 57 61 74 45 32 38 31 19 10 8 9 12 22 28 31 34 35 37 36 32 28 25 25 29 32 30 30 30 29 28 28 29 30 31 33 36
59 56 64 70 75 74 88 80 81 61 67 58 58 42 37 34 24 12 10 9 10 12 24 32 37 40 40 38 36 34 31 29 28 28 24 23 24 26 28 30 32 32 33 33
62 60 60 60 68 69 73 76 86 90 83 78 64 69 77 44 34 26 12 9 10 10 11 16 28 35 40 45 46 45 43 40 38 36 34 35 34 32 31 34 37 38 37 37
59 64 62 63 60 74 68 88 85 85 70 77 77 69 74 79 51 31 24 12 9 8 9 10 13 18 29 36 45 52 55 53 51 51 51 52 52 51 50 44 44 47 50 53
61 60 61 62 61 69 76 81 88 95 77 77 85 78 78 81 65 46 28 18 11 9 8 8 9 10 14 20 31 39 48 60 68 70 71 70 69 69 67 66 66 65 62 62
60 61 56 62 64 64 72 76 96 84 98 85 99 74 78 85 81 62 38 22 13 10 8 8 8 8 8 10 13 19 35 50 62 70 75 78 76 77 80 84 86 86 85 84
54 58 60 69 69 64 66 82 89 92 95 94 89 82 89 88 81 83 56 28 16 11 9 8 7 7 7 8 9 10 12 15 26 37 50 58 72 80 85 86 86 86 85 83
54 54 63 65 69 73 71 76 90 96 99 94 95 86 92 76 95 75 64 37 20 13 9 8 7 7 7 7 7 8 9 10 11 13 19 28 42 56 66 76 82 87 87 86
54 56 64 64 68 68 72 78 84 85 99 90 99 100 99 94 99 88 77 42 18 12 10 8 7 7 6 6 6 7 7 8 9 10 12 15 20 29 39 51 61 67 73 77
59 58 61 66 67 65 79 84 82 92 98 98 100 99 91 94 100 93 77 58 23 9 8 7 6 6 6 6 6 6 6 7 7 9 11 13 16 20 28 37 48 55 65 67
60 58 60 60 64 68 72 82 86 85 99 99 97 100 96 100 100 88 85 48 28 10 7 6 5 5 5 5 5 5 6 6 6 7 9 10 12 14 17 23 30 35 43 50
64 60 62 67 66 67 72 85 88 93 100 100 92 99 98 97 100 92 70 41 23 11 7 6 5 5 5 5 5 5 5 6 6 6 7 8 9 11 13 15 16 19 24 31
66 61 67 69 67 70 78 90 78 90 93 100 96 97 100 96 99 79 51 29 15 9 7 6 5 4 4 5 5 5 5 6 6 6 7 7 8 9 10 12 13 15 17 18
72 64 66 69 69 67 82 98 89 94 97 100 100 100 98 100 96 91 61 28 9 7 7 6 5 4 4 4 5 5 6 6 6 6 7 7 7 8 9 10 12 14 15 17
75 64 63 64 69 74 83 100 88 99 95 100 100 100 100 91 92 63 61 26 8 6 6 6 6 6 6 5 5 6 6 7 7 6 6 7 7 8 8 10 11 12 14 14
78 63 63 70 67 71 92 94 98 91 98 100 100 100 100 93 76 58 36 19 7 5 6 8 9 8 8 7 6 7 7 7 8 8 7 7 7 7 8 8 9 10 11 12
71 68 66 69 69 79 85 91 97 92 100 100 100 100 100 88 72 44 26 12 6 5 6 8 10 9 9 8 7 7 7 8 8 8 8 7 7 7 7 8 8 8 9 10

GFSNGP_250_rhum_114.txt.gz
RH
6 4 4 6 11 19 30 31 34 45 51 49 75 79 68 66 71 56 56 57 63 57 88 100 100 100 100 100 100 100 100 100 100 100 100 100 100 100 100 100 100 100 100 100
5 7 8 6 8 13 16 23 26 31 39 55 70 60 73 66 73 78 72 50 54 53 65 94 100 100 100 96 100 100 100 100 100 100 100 100 100 100 100 100 100 100 100 100
19 11 7 10 10 9 11 22 25 39 53 47 55 64 78 75 78 75 67 63 61 69 51 50 77 95 100 100 100 100 100 100 100 100 100 100 100 100 100 100 100 100 100 100
26 26 21 12 12 15 13 22 33 43 51 62 62 64 69 67 71 72 64 68 58 63 74 78 52 56 73 91 100 100 100 100 100 100 100 100 100 100 100 100 100 100 100 100
21 22 25 25 24 18 12 20 29 38 49 75 61 78 73 77 89 91 90 76 93 89 63 57 72 73 55 56 81 96 100 100 100 100 100 100 100 100 100 100 100 100 100 100
40 33 39 32 27 27 23 18 11 14 22 23 40 78 89 96 99 94 97 100 89 80 89 80 65 62 59 66 88 81 90 97 100 100 100 100 100 100 100 100 100 100 100 100
52 52 50 39 37 29 29 26 22 23 19 12 15 23 43 54 96 100 93 94 100 100 96 85 85 76 81 66 62 55 63 79 92 98 90 100 100 100 100 100 100 100 100 100
78 58 52 52 45 46 44 32 32 29 24 23 25 17 13 18 27 44 62 79 86 100 100 100 96 92 92 92 80 87 78 67 67 64 69 70 83 99 100 100 100 100 100 100
65 65 59 58 51 47 48 45 42 31 30 34 34 29 26 21 12 11 21 26 28 38 47 83 100 99 91 99 100 99 96 79 80 71 70 78 79 74 79 82 87 90 90 89
63 67 65 66 65 56 47 47 48 49 49 40 33 27 29 30 30 25 14 10 10 18 21 24 34 51 60 70 70 81 85 88 94 79 79 72 68 65 68 72 69 67 65 67
52 58 70 74 80 75 76 60 50 51 55 58 54 50 50 38 29 30 27 24 14 11 11 18 27 31 31 31 40 52 60 67 70 63 82 98 90 70 68 55 49 51 52 50
50 52 61 61 71 90 93 73 72 65 67 60 63 48 49 48 51 60 52 40 25 20 12 10 10 11 17 24 27 34 40 47 46 44 48 48 48 42 39 30 28 30 30 27
54 53 54 63 68 72 76 96 91 96 70 62 58 60 58 52 53 51 48 57 51 28 17 13 9 9 9 10 16 25 30 32 32 32 37 37 35 34 31 27 26 25 23 23
53 52 56 58 61 66 81 87 92 97 93 84 70 83 65 61 58 48 56 53 51 50 29 16 11 9 8 9 9 10 15 23 30 32 35 36 35 35 34 33 29 27 26 25
51 52 55 56 58 67 76 82 96 95 89 79 76 76 82 67 62 61 62 64 68 58 40 23 13 10 8 7 7 8 8 9 12 19 28 35 39 42 44 44 45 42 38 37
52 50 55 59 65 66 72 86 79 87 97 99 88 84 91 83 90 74 66 72 76 67 53 33 16 10 9 8 7 7 7 8 8 8 12 20 30 38 46 53 56 57 57 55
54 52 54 58 66 67 74 82 85 79 92 83 97 89 96 93 82 80 82 77 74 69 63 39 20 11 8 8 7 6 6 6 7 8 9 10 14 19 32 42 50 58 63 68
58 55 54 59 65 66 78 83 83 94 92 78 91 98 93 95 84 91 73 81 77 72 61 44 21 11 8 6 6 6 5 5 5 6 6 7 8 10 13 21 34 48 58 61
60 59 59 58 63 70 71 81 79 94 82 92 100 100 92 94 86 99 87 92 81 77 55 47 23 10 7 6 5 5 5 5 4 5 5 6 6 7 8 11 15 24 37 47
62 62 63 60 64 70 72 73 76 80 96 97 96 100 100 95 91 92 96 95 87 78 59 42 24 9 6 5 5 5 5 5 4 4 5 5 5 6 6 8 10 13 17 24
68 67 66 66 70 73 76 74 77 77 85 100 98 94 98 100 92 93 100 90 83 81 61 33 19 8 6 5 5 5 4 5 4 4 5 5 5 6 6 7 8 10 12 16
77 72 66 69 69 69 73 73 78 76 86 100 100 97 94 100 92 89 92 86 83 68 54 23 14 7 6 5 6 6 6 5 5 5 5 5 5 6 6 7 7 8 10 12
81 74 68 70 71 68 68 70 77 82 93 86 100 86 100 100 99 92 92 86 76 65 44 18 11 7 6 6 7 8 8 7 6 5 5 5 6 6 6 7 7 8 9 10
81 74 66 72 76 65 65 67 78 85 96 87 96 90 100 100 100 94 89 78 70 58 34 13 8 7 6 7 8 9 9 9 8 7 6 6 6 7 7 7 7 8 8 9
82 68 69 73 71 62 63 66 76 81 96 91 97 97 100 100 93 94 88 77 62 43 27 11 6 6 6 9 10 10 9 9 9 8 7 7 7 8 8 7 7 8 8 8
74 71 70 66 64 60 62 71 74 80 98 94 95 100 100 99 99 90 86 64 47 32 21 9 5 5 7 10 11 10 9 10 10 9 8 8 7 8 8 8 8 7 8 8
76 72 63 61 64 62 70 75 76 94 88 92 86 90 100 100 100 89 73 54 32 23 12 7 5 6 8 10 10 10 9 9 9 9 8 8 8 7 8 8 8 7 7 7

GFSNGP_250_rhum_117.txt.gz
RH
4 4 5 11 21 26 36 30 26 31 34 32 21 19 20 28 34 100 100 100 100 100 100 100 100 100 100 100 100 100 100 100 100 100 100 100 100 100 100 100 100 100 100 100
6 4 4 8 23 25 33 42 37 33 43 44 40 25 24 29 32 50 100 100 100 100 100 100 100 100 100 100 100 100 100 100 87 100 100 100 100 100 100 100 100 100 100 100
8 7 6 7 11 22 28 32 38 42 50 46 40 39 31 21 29 33 34 31 48 99 100 100 100 100 100 100 100 100 100 100 100 97 100 100 100 100 100 100 100 100 100 100
20 18 9 7 7 13 17 25 32 44 49 66 56 51 44 42 21 25 26 40 41 57 100 100 100 100 100 100 100 100 100 100 100 100 100 100 100 93 91 100 100 100 100 100
21 24 23 21 14 9 13 49 58 62 80 66 60 70 70 64 63 49 32 27 33 33 52 100 100 100 100 100 100 100 100 100 100 100 100 100 100 100 100 97 94 100 100 100
29 29 27 27 28 26 37 28 52 94 100 100 100 92 75 79 72 86 82 66 48 44 68 72 100 100 100 100 100 100 100 100 100 100 100 100 100 100 100 100 100 100 100 100
41 33 35 30 32 34 36 37 32 25 19 26 52 93 100 99 93 73 66 82 76 73 52 64 92 99 100 100 100 100 100 100 100 100 100 100 100 100 100 100 100 100 100 100
68 57 45 40 32 34 39 32 36 34 33 32 26 17 20 56 64 86 82 76 76 84 79 76 65 52 55 69 97 100 100 100 98 93 98 100 100 100 100 100 100 100 100 100
80 81 68 51 44 42 42 37 33 33 37 40 44 41 32 26 22 29 40 45 73 73 79 82 65 78 79 66 63 60 73 82 87 100 100 100 99 100 100 100 100 100 100 100
63 76 84 88 74 67 64 46 39 44 42 39 36 34 35 41 45 38 32 25 21 26 29 41 61 81 77 71 58 55 68 59 68 70 74 78 87 99 99 96 98 96 95 86
55 61 73 72 66 90 78 64 56 40 44 38 38 39 43 43 42 39 36 41 47 41 30 20 18 27 32 31 42 51 64 71 56 58 68 80 91 98 95 100 100 89 88 88
55 59 61 70 75 75 78 76 74 58 56 53 51 42 44 43 41 44 47 44 42 40 35 35 31 23 16 13 16 26 39 34 52 50 53 49 49 58 69 83 85 90 88 100
54 58 64 66 67 68 72 67 55 52 71 79 77 66 66 55 54 48 42 45 43 40 43 45 38 31 24 17 16 12 12 15 17 19 24 36 36 45 64 72 70 67 65 62
57 55 60 66 70 71 68 76 84 61 78 80 66 66 76 62 78 58 49 53 51 43 39 43 47 42 31 23 16 12 12 10 8 10 15 20 22 25 44 64 61 52 50 53
62 61 56 57 68 77 78 73 78 83 72 71 73 77 73 63 90 84 79 65 60 56 58 47 40 43 44 35 19 13 10 9 9 8 7 7 8 13 22 29 32 35 40 46
64 68 63 62 62 69 77 83 81 74 84 84 76 71 85 86 89 96 88 77 72 65 58 62 55 51 31 31 29 14 9 8 7 7 7 6 6 7 8 9 14 26 32 33
66 69 73 70 69 71 70 69 78 78 83 74 77 70 55 94 88 88 83 86 81 74 66 66 55 49 45 23 19 16 8 6 6 5 5 5 5 5 5 6 7 8 10 14
69 71 74 80 74 76 73 68 67 77 84 81 77 93 90 83 97 95 100 98 87 83 76 73 59 44 41 26 13 10 8 6 5 5 5 4 4 4 4 4 5 6 7 9
72 64 76 86 78 72 78 73 70 70 72 78 84 89 95 96 98 93 93 87 95 87 71 62 49 40 38 25 12 7 6 5 5 5 5 4 4 4 4 4 5 5 5 6
70 65 79 84 82 72 70 66 65 67 72 73 85 85 70 96 91 100 100 99 96 89 80 69 48 38 31 19 11 6 5 4 5 6 6 5 4 4 4 4 5 5 5 5
73 75 88 86 81 76 68 56 60 62 71 73 76 98 88 85 98 93 100 100 98 90 88 65 43 38 27 16 8 5 4 5 6 7 8 8 6 5 4 4 4 5 5 5
81 90 96 85 77 72 65 56 58 60 64 72 74 88 96 89 99 100 98 100 98 79 80 64 40 29 21 13 7 5 4 6 7 8 9 9 8 7 6 5 4 5 5 5
96 91 90 78 76 69 63 60 57 61 65 71 79 82 94 86 90 91 100 100 98 74 69 59 37 24 16 10 6 5 5 6 8 8 9 9 9 8 7 6 6 5 5 6
90 88 84 78 73 66 62 60 59 59 68 71 74 79 88 80 95 85 93 93 93 75 60 46 31 20 14 9 5 5 6 7 8 8 9 9 9 9 8 8 7 7 7 6
90 86 79 73 72 67 66 65 61 63 68 65 74 82 79 90 81 84 90 94 87 74 60 43 27 17 12 7 5 5 6 8 8 8 8 9 9 9 9 8 8 8 7 8
85 80 72 66 68 68 68 71 66 63 69 66 74 82 89 81 80 82 87 87 85 68 58 40 21 13 9 6 5 5 7 9 9 9 9 9 9 9 8 8 8 7 8 8
87 80 73 69 69 67 71 73 71 68 77 70 77 74 70 89 72 86 80 82 79 63 44 29 17 11 6 4 5 6 8 9 9 8 9 8 8 9 8 7 6 6 7 7

GFSNGP_250_rhum_120.txt.gz
RH
6 5 6 16 25 34 29 22 15 14 19 23 22 23 24 23 34 58 99 100 100 100 100 100 100 100 100 100 100 100 100 100 100 100 100 100 100 100 100 100 100 100 100 100
7 7 7 14 26 45 44 40 26 14 25 29 39 36 37 75 100 100 100 100 100 100 100 100 100 100 100 100 100 100 100 100 100 100 100 100 100 100 100 100 100 100 100 100
6 6 9 13 19 41 59 60 38 30 16 28 65 100 100 100 100 100 100 100 100 100 100 100 100 100 100 100 100 100 100 100 100 100 93 100 100 100 100 100 100 100 100 100
7 6 6 11 15 21 42 61 50 58 48 23 60 100 100 100 100 100 100 100 100 100 100 100 100 100 100 100 100 100 100 98 100 100 99 95 98 88 100 100 100 98 100 100
20 15 11 11 13 15 38 74 64 57 55 56 31 100 100 100 100 100 100 100 100 100 100 100 100 100 100 100 100 100 100 100 100 100 100 100 99 100 100 99 100 100 95 72
23 21 20 17 16 32 26 18 38 66 56 40 46 41 90 100 100 100 100 100 100 100 100 100 100 100 100 100 100 100 100 100 86 100 98 100 100 100 99 100 100 100 100 100
26 24 24 25 26 32 35 29 23 20 17 24 27 33 48 44 87 100 100 100 100 100 100 100 100 100 100 100 100 100 100 100 100 100 100 100 100 100 99 78 76 93 100 100
42 39 38 34 33 31 31 29 31 33 29 23 18 13 14 29 35 76 93 100 100 100 100 100 100 100 100 100 100 96 94 91 100 99 100 100 100 98 98 100 99 99 89 82
59 53 53 49 43 42 35 34 32 29 29 28 28 27 28 26 15 19 68 100 100 100 100 100 100 88 91 94 90 90 91 89 100 100 90 88 99 92 91 99 94 95 100 100
80 80 58 56 50 48 45 43 42 36 35 34 33 35 36 35 31 23 18 15 31 60 74 82 94 99 100 100 100 100 100 100 100 100 100 100 100 100 98 87 100 79 76 96
77 76 78 79 66 53 53 57 58 62 58 41 42 39 36 38 40 38 38 34 28 19 14 15 17 20 28 37 45 41 50 61 70 77 73 77 86 98 100 100 100 100 100 100
59 68 75 72 83 86 78 65 69 61 56 58 53 52 51 34 28 30 32 30 39 45 47 47 39 29 21 16 14 13 13 19 23 24 25 28 37 50 70 87 97 100 100 100
64 63 67 71 69 66 77 79 85 61 71 61 57 63 50 50 50 44 38 38 33 29 30 32 29 29 32 37 37 33 22 14 12 13 14 18 30 37 52 62 70 80 96 100
64 61 70 77 78 72 64 68 76 81 82 86 80 83 65 75 60 67 58 62 53 48 43 38 35 35 38 32 32 34 32 30 29 19 15 14 14 13 12 16 27 39 49 59
74 67 58 70 83 77 70 68 64 67 70 76 74 70 68 62 64 72 78 68 74 60 56 50 47 48 45 38 35 30 28 25 20 20 26 21 16 14 12 13 14 12 10 10
76 82 71 65 80 81 72 62 58 60 60 63 69 75 74 72 72 64 74 78 72 81 64 70 63 51 49 42 34 27 24 22 20 15 11 12 14 10 10 9 9 9 10 11
91 86 76 66 82 81 77 72 63 56 56 56 58 68 66 66 67 69 74 80 76 82 83 83 78 66 56 44 38 25 20 20 15 12 9 6 6 6 6 5 5 5 6 6
84 81 76 64 67 84 80 73 67 60 57 55 55 58 62 62 61 66 70 82 75 76 78 78 79 66 59 54 42 29 20 17 13 8 5 4 4 4 4 4 4 4 4 5
78 78 73 72 76 83 86 74 67 60 59 56 57 59 62 61 63 62 67 70 70 74 81 77 71 68 60 49 44 29 17 14 10 6 4 4 4 4 4 5 5 5 4 4
71 71 80 85 93 81 80 78 73 68 62 62 60 59 64 67 67 70 74 66 74 67 82 72 77 72 60 54 44 28 15 12 8 5 4 4 5 6 7 7 7 7 7 6
74 84 92 92 97 83 80 75 74 69 61 59 60 64 67 75 74 76 69 66 71 68 75 72 72 61 55 47 40 25 14 9 6 4 4 4 6 7 9 9 9 8 8 8
84 85 86 91 87 89 82 75 70 66 58 57 62 73 76 76 80 74 64 67 69 70 74 76 71 59 47 41 33 18 12 7 5 4 4 6 7 8 8 9 9 9 9 9
98 94 88 91 85 84 77 70 67 65 65 66 68 76 77 78 77 76 66 61 73 69 73 71 68 60 45 38 26 12 10 6 4 4 5 7 8 9 9 9 9 9 9 9
100 100 100 100 92 92 89 91 86 84 88 85 82 84 79 82 78 71 76 66 66 72 70 68 59 48 37 29 17 10 8 6 4 5 6 8 9 10 10 10 10 9 9 9
100 100 100 100 100 100 98 98 95 88 89 88 88 85 82 74 84 65 71 72 62 71 67 65 50 40 32 23 11 8 7 4 4 6 7 8 9 9 9 9 9 9 9 8
100 100 100 100 100 99 98 98 92 88 88 88 85 80 81 77 76 69 65 73 68 69 70 56 48 35 28 17 10 8 6 4 4 6 8 8 8 8 9 9 8 8 8 8
100 100 100 100 100 96 95 90 86 84 84 85 78 78 85 75 72 70 71 66 70 69 71 55 43 31 24 12 8 7 5 4 5 7 7 8 8 8 8 9 8 8 7 7

GFSNGP_250_rhum_123.txt.gz
RH
10 10 24 29 36 54 30 28 31 17 17 19 16 16 16 12 12 14 20 32 40 100 100 100 99 100 100 100 100 100 100 100 100 100 100 100 100 100 100 100 100 100 100 100
17 26 39 49 57 53 40 37 39 33 29 28 22 26 20 19 19 15 27 29 56 100 100 100 100 100 100 100 100 100 100 100 100 100 100 100 100 100 100 100 100 100 100 100
26 41 55 62 66 63 48 58 59 54 55 57 27 36 60 28 28 21 31 100 100 100 100 100 100 100 100 100 100 100 100 100 100 100 100 100 100 100 100 100 100 100 100 100
24 37 58 71 80 85 64 53 60 63 75 76 37 52 98 40 49 33 31 100 100 100 100 100 100 100 100 100 100 100 100 100 100 94 98 100 100 100 100 100 100 96 100 100
17 24 36 37 50 72 96 88 46 43 72 47 46 64 100 71 47 32 38 100 100 100 100 100 100 100 100 100 98 100 100 100 100 100 100 100 100 100 100 100 100 100 100 100
20 20 27 35 28 22 30 45 70 69 45 96 47 62 97 75 47 34 63 100 100 100 100 100 100 100 100 100 100 100 100 100 100 100 100 100 100 100 100 100 100 100 100 100
26 30 35 37 36 37 27 18 28 44 61 56 95 98 89 88 76 58 82 100 100 100 100 100 100 100 100 100 100 100 100 100 100 100 100 100 100 100 98 92 100 93 99 100
33 33 30 29 32 32 33 28 25 22 33 48 82 83 96 99 97 88 100 100 100 100 100 100 100 100 100 100 100 100 100 100 94 100 100 100 100 100 100 100 90 96 94 100
40 42 38 35 33 31 28 28 27 28 30 30 34 86 100 99 91 99 100 100 100 100 100 100 100 100 100 100 100 100 100 100 90 96 100 100 100 100 98 95 100 100 100 100
61 59 56 49 48 40 31 30 26 25 25 26 29 38 77 97 94 96 100 100 100 100 100 100 100 100 100 100 100 100 100 100 100 100 100 97 96 100 100 100 99 85 89 85
72 68 70 77 63 64 57 45 46 40 33 29 29 31 26 35 49 67 80 85 86 94 100 100 100 100 100 100 100 100 100 94 100 100 100 100 100 97 96 95 100 100 100 100
70 65 72 63 65 62 63 64 56 56 68 58 55 43 36 31 29 29 26 24 28 42 68 67 75 91 98 98 100 98 98 98 100 100 100 98 94 93 99 78 75 79 96 100
71 66 70 67 65 61 58 58 55 54 54 66 64 59 59 55 54 47 40 39 36 29 28 32 30 35 40 48 55 62 63 64 68 73 75 77 72 74 74 84 92 94 89 78
70 74 73 72 70 65 61 64 57 51 52 56 58 55 56 56 54 52 56 48 47 46 40 28 22 22 26 23 27 28 24 26 25 24 24 24 20 21 25 29 32 36 53 58
87 82 79 77 69 66 68 65 65 63 58 57 55 54 56 60 55 53 52 56 59 54 47 42 38 35 32 29 31 31 27 21 19 21 15 11 13 13 11 9 8 8 8 9
91 86 82 78 73 66 69 68 71 70 65 61 62 60 57 54 54 59 62 60 61 56 54 50 47 51 46 47 41 38 34 28 24 21 14 10 9 11 12 12 10 8 7 6
95 91 88 78 71 70 72 76 81 74 68 66 62 61 58 56 55 57 62 67 64 64 59 56 51 60 51 47 44 41 37 31 28 21 13 11 10 9 8 7 6 5 5 4
86 82 80 73 73 77 81 92 83 76 75 72 68 61 60 65 68 74 75 71 69 64 54 61 57 66 60 58 48 45 41 33 26 19 11 9 8 6 4 4 4 3 3 3
75 75 76 76 78 78 84 82 86 88 79 70 68 67 74 80 83 83 81 76 71 59 59 57 65 69 64 60 55 49 42 33 25 17 10 7 7 5 3 3 3 3 3 4
86 76 76 85 79 74 82 85 74 68 68 68 81 86 89 90 84 77 75 74 67 62 61 62 72 69 68 66 62 50 38 34 23 14 9 7 6 4 3 3 4 4 5 6
100 100 96 99 96 87 81 83 86 93 94 96 89 89 96 90 84 76 71 70 61 65 59 68 70 68 70 72 63 46 41 29 16 10 8 7 5 4 3 4 5 6 7 8
100 100 100 100 100 100 100 100 100 100 100 99 94 97 96 89 86 79 70 65 59 66 60 70 69 68 78 70 62 39 36 23 12 8 7 6 4 4 4 5 6 8 8 9
100 100 100 100 100 100 100 100 100 100 100 100 96 94 90 86 76 71 66 62 60 66 69 70 68 70 76 75 58 42 29 16 9 7 7 5 4 4 5 6 7 8 8 9
100 100 100 100 100 100 100 100 100 100 97 94 95 98 92 76 69 69 67 63 66 67 68 77 71 72 75 73 51 37 22 14 8 7 6 4 4 6 7 7 8 8 8 8
100 100 100 100 100 100 100 100 100 100 100 89 94 92 82 76 79 77 73 72 73 74 70 75 65 66 72 64 53 32 19 12 8 7 5 4 5 7 8 8 8 7 8 8
100 100 100 99 100 100 100 100 97 100 99 86 84 82 76 82 85 80 75 81 75 79 73 70 67 64 70 58 42 22 15 9 8 7 5 5 6 7 7 7 8 7 7 8
100 100 100 100 100 100 100 100 98 96 91 95 86 85 87 98 88 82 87 82 82 78 73 72 63 65 64 57 35 18 13 9 7 5 5 6 7 7 7 7 7 7 7 8